| time (UTC) | temp F | wind direction | speed MPH | gust MPH | rain 1hr in | rain 24hr in | rain mn in | humidity % | barometer mb |
| 20260901203613 | 90 | 296 | 4.0 | 7.0 | 0.00 | 0.01 | 0.00 | 68 | 1013.5 |
| 20260901203508 | 90 | 244 | 2.0 | 7.0 | 0.00 | 0.01 | 0.00 | 69 | 1013.5 |
| 20260901203401 | 89 | 212 | 0.0 | 7.0 | 0.00 | 0.01 | 0.00 | 69 | 1013.5 |
| 20260901203256 | 89 | 177 | 1.0 | 7.0 | 0.00 | 0.01 | 0.00 | 68 | 1013.5 |
| 20260901203150 | 89 | 222 | 1.0 | 7.0 | 0.00 | 0.01 | 0.00 | 68 | 1013.5 |
| 20260901203102 | 89 | 11 | 2.0 | 7.0 | 0.00 | 0.01 | 0.00 | 68 | 1013.5 |
| 20260901203044 | 89 | 17 | 2.0 | 7.0 | 0.00 | 0.01 | 0.00 | 68 | 1013.5 |
| 20260901202938 | 90 | 219 | 4.0 | 7.0 | 0.00 | 0.01 | 0.00 | 67 | 1013.9 |
| 20260901202832 | 90 | 294 | 4.0 | 7.0 | 0.00 | 0.01 | 0.00 | 67 | 1013.5 |
| 20260901202726 | 90 | 257 | 0.0 | 7.0 | 0.00 | 0.01 | 0.00 | 67 | 1013.9 |
| 20260901202621 | 90 | 238 | 3.0 | 7.0 | 0.00 | 0.01 | 0.00 | 67 | 1013.5 |
| 20260901202554 | 90 | 339 | 4.0 | 7.0 | 0.00 | 0.01 | 0.00 | 66 | 1013.5 |
| 20260901202515 | 90 | 298 | 1.0 | 7.0 | 0.00 | 0.01 | 0.00 | 68 | 1013.9 |
| 20260901202422 | 90 | 226 | 1.0 | 7.0 | 0.00 | 0.01 | 0.00 | 68 | 1013.5 |
| 20260901202306 | 90 | 266 | 3.0 | 7.0 | 0.00 | 0.01 | 0.00 | 68 | 1013.5 |
| 20260901202159 | 90 | 238 | 2.0 | 7.0 | 0.00 | 0.01 | 0.00 | 67 | 1013.9 |
| 20260901202052 | 91 | 167 | 4.0 | 7.0 | 0.00 | 0.01 | 0.00 | 67 | 1013.5 |
| 20260901201946 | 92 | 129 | 1.0 | 7.0 | 0.00 | 0.01 | 0.00 | 66 | 1013.5 |
| 20260901201841 | 92 | 227 | 4.0 | 7.0 | 0.00 | 0.01 | 0.00 | 65 | 1013.5 |
| 20260901201736 | 92 | 272 | 2.0 | 7.0 | 0.00 | 0.01 | 0.00 | 65 | 1013.5 |
| 20260901201628 | 92 | 240 | 1.0 | 4.0 | 0.00 | 0.01 | 0.00 | 65 | 1013.5 |
| 20260901201540 | 91 | 136 | 0.0 | 4.0 | 0.00 | 0.01 | 0.00 | 66 | 1013.5 |
| 20260901201522 | 91 | 201 | 0.0 | 4.0 | 0.00 | 0.01 | 0.00 | 66 | 1013.5 |
| 20260901201417 | 91 | 176 | 2.0 | 4.0 | 0.00 | 0.01 | 0.00 | 66 | 1013.5 |
| 20260901201311 | 92 | 347 | 2.0 | 6.0 | 0.00 | 0.01 | 0.00 | 66 | 1013.5 |
| 20260901201206 | 92 | 277 | 2.0 | 6.0 | 0.00 | 0.01 | 0.00 | 66 | 1013.5 |
| 20260901201101 | 92 | 205 | 2.0 | 6.0 | 0.00 | 0.01 | 0.00 | 65 | 1013.5 |
| 20260901201034 | 92 | 305 | 1.0 | 6.0 | 0.00 | 0.01 | 0.00 | 65 | 1013.5 |
| 20260901200955 | 91 | 247 | 0.0 | 6.0 | 0.00 | 0.01 | 0.00 | 66 | 1013.5 |
| 20260901200848 | 91 | 197 | 0.0 | 6.0 | 0.00 | 0.01 | 0.00 | 67 | 1013.5 |
| 20260901200743 | 92 | 182 | 4.0 | 6.0 | 0.00 | 0.01 | 0.00 | 65 | 1013.5 |
| 20260901200637 | 92 | 230 | 2.0 | 6.0 | 0.00 | 0.01 | 0.00 | 64 | 1013.9 |
| 20260901200531 | 92 | 210 | 1.0 | 6.0 | 0.00 | 0.01 | 0.00 | 64 | 1013.5 |
| 20260901200426 | 92 | 168 | 2.0 | 6.0 | 0.00 | 0.01 | 0.00 | 65 | 1013.5 |
| 20260901200320 | 92 | 226 | 2.0 | 6.0 | 0.00 | 0.01 | 0.00 | 65 | 1013.5 |
| 20260901200216 | 92 | 198 | 1.0 | 7.0 | 0.00 | 0.01 | 0.00 | 64 | 1013.5 |
| 20260901200122 | 92 | 206 | 0.0 | 7.0 | 0.00 | 0.01 | 0.00 | 65 | 1013.5 |
| 20260901200020 | 92 | 126 | 1.0 | 7.0 | 0.00 | 0.01 | 0.00 | 65 | 1013.5 |
| 20260901200003 | 92 | 295 | 1.0 | 7.0 | 0.00 | 0.01 | 0.00 | 65 | 1013.5 |
| 20260901195858 | 92 | 273 | 4.0 | 7.0 | 0.00 | 0.01 | 0.00 | 65 | 1013.9 |
| 20260901195754 | 92 | 201 | 3.0 | 8.0 | 0.00 | 0.01 | 0.00 | 64 | 1013.5 |
| 20260901195646 | 92 | 158 | 1.0 | 8.0 | 0.00 | 0.01 | 0.00 | 64 | 1013.5 |
| 20260901195541 | 92 | 315 | 3.0 | 8.0 | 0.00 | 0.01 | 0.00 | 65 | 1013.9 |
| 20260901195514 | 92 | 237 | 4.0 | 8.0 | 0.00 | 0.01 | 0.00 | 64 | 1013.5 |
| 20260901195435 | 92 | 93 | 4.0 | 8.0 | 0.00 | 0.01 | 0.00 | 65 | 1013.5 |
| 20260901195342 | 92 | 215 | 1.0 | 8.0 | 0.00 | 0.01 | 0.00 | 64 | 1013.5 |
| 20260901195223 | 92 | 288 | 4.0 | 8.0 | 0.00 | 0.01 | 0.00 | 63 | 1013.5 |
| 20260901195130 | 92 | 243 | 4.0 | 8.0 | 0.00 | 0.01 | 0.00 | 63 | 1013.5 |
| 20260901195011 | 93 | 65 | 2.0 | 8.0 | 0.00 | 0.01 | 0.00 | 64 | 1013.5 |
| 20260901194906 | 93 | 167 | 4.0 | 8.0 | 0.00 | 0.01 | 0.00 | 65 | 1013.9 |
| 20260901194800 | 93 | 209 | 0.0 | 7.0 | 0.00 | 0.01 | 0.00 | 64 | 1013.5 |
| 20260901194653 | 93 | 335 | 3.0 | 7.0 | 0.00 | 0.01 | 0.00 | 63 | 1013.5 |
| 20260901194547 | 93 | 339 | 3.0 | 7.0 | 0.00 | 0.01 | 0.00 | 64 | 1013.5 |
| 20260901194459 | 93 | 239 | 1.0 | 7.0 | 0.00 | 0.01 | 0.00 | 63 | 1013.9 |
| 20260901194441 | 93 | 159 | 2.0 | 7.0 | 0.00 | 0.01 | 0.00 | 63 | 1013.9 |
| 20260901194336 | 93 | 235 | 0.0 | 7.0 | 0.00 | 0.01 | 0.00 | 64 | 1013.9 |
| 20260901194230 | 92 | 205 | 0.0 | 7.0 | 0.00 | 0.01 | 0.00 | 64 | 1013.5 |
| 20260901194125 | 92 | 238 | 0.0 | 7.0 | 0.00 | 0.01 | 0.00 | 65 | 1013.9 |
| 20260901194019 | 92 | 228 | 4.0 | 7.0 | 0.00 | 0.01 | 0.00 | 64 | 1013.9 |
| 20260901193952 | 92 | 212 | 4.0 | 7.0 | 0.00 | 0.01 | 0.00 | 65 | 1013.9 |
| 20260901193913 | 93 | 213 | 1.0 | 6.0 | 0.00 | 0.01 | 0.00 | 65 | 1013.9 |
| 20260901193808 | 93 | 213 | 1.0 | 6.0 | 0.00 | 0.01 | 0.00 | 65 | 1013.5 |
| 20260901193702 | 93 | 290 | 3.0 | 6.0 | 0.00 | 0.01 | 0.00 | 64 | 1013.9 |
| 20260901193556 | 93 | 80 | 2.0 | 6.0 | 0.00 | 0.01 | 0.00 | 64 | 1013.9 |
| 20260901193450 | 93 | 283 | 1.0 | 6.0 | 0.00 | 0.01 | 0.00 | 65 | 1013.5 |
| 20260901193344 | 93 | 183 | 0.0 | 6.0 | 0.00 | 0.01 | 0.00 | 64 | 1013.9 |
| 20260901193239 | 93 | 305 | 5.0 | 6.0 | 0.00 | 0.01 | 0.00 | 64 | 1013.9 |
| 20260901193134 | 93 | 274 | 0.0 | 6.0 | 0.00 | 0.01 | 0.00 | 65 | 1013.9 |
| 20260901193027 | 92 | 207 | 0.0 | 6.0 | 0.00 | 0.01 | 0.00 | 65 | 1013.9 |
| 20260901192939 | 92 | 153 | 1.0 | 6.0 | 0.00 | 0.01 | 0.00 | 66 | 1013.9 |
| 20260901192922 | 92 | 328 | 0.0 | 6.0 | 0.00 | 0.01 | 0.00 | 66 | 1013.9 |
| 20260901192816 | 92 | 136 | 1.0 | 6.0 | 0.00 | 0.01 | 0.00 | 66 | 1013.5 |
| 20260901192710 | 92 | 277 | 2.0 | 6.0 | 0.00 | 0.01 | 0.00 | 67 | 1013.9 |
| 20260901192605 | 92 | 294 | 0.0 | 6.0 | 0.00 | 0.01 | 0.00 | 66 | 1013.9 |
| 20260901192459 | 92 | 156 | 3.0 | 6.0 | 0.00 | 0.01 | 0.00 | 66 | 1013.9 |
| 20260901192433 | 92 | 269 | 3.0 | 6.0 | 0.00 | 0.01 | 0.00 | 67 | 1013.9 |
| 20260901192353 | 92 | 223 | 2.0 | 6.0 | 0.00 | 0.01 | 0.00 | 66 | 1013.9 |
| 20260901192248 | 92 | 312 | 4.0 | 6.0 | 0.00 | 0.01 | 0.00 | 64 | 1013.5 |
| 20260901192142 | 92 | 222 | 1.0 | 3.0 | 0.00 | 0.01 | 0.00 | 66 | 1013.9 |
| 20260901192037 | 92 | 239 | 1.0 | 3.0 | 0.00 | 0.01 | 0.00 | 66 | 1013.5 |
| 20260901191930 | 92 | 276 | 1.0 | 6.0 | 0.00 | 0.01 | 0.00 | 66 | 1013.5 |
| 20260901191824 | 92 | 195 | 1.0 | 6.0 | 0.00 | 0.01 | 0.00 | 65 | 1013.9 |
| 20260901191717 | 91 | 253 | 0.0 | 7.0 | 0.00 | 0.01 | 0.00 | 66 | 1013.5 |
| 20260901191612 | 91 | 346 | 1.0 | 7.0 | 0.00 | 0.01 | 0.00 | 66 | 1013.9 |
| 20260901191506 | 91 | 237 | 1.0 | 7.0 | 0.00 | 0.01 | 0.00 | 66 | 1013.9 |
| 20260901191418 | 91 | 138 | 0.0 | 7.0 | 0.00 | 0.01 | 0.00 | 67 | 1013.5 |
| 20260901191400 | 91 | 236 | 1.0 | 7.0 | 0.00 | 0.01 | 0.00 | 67 | 1013.5 |
| 20260901191255 | 91 | 165 | 1.0 | 7.0 | 0.00 | 0.01 | 0.00 | 66 | 1013.5 |
| 20260901191148 | 91 | 152 | 2.0 | 7.0 | 0.00 | 0.01 | 0.00 | 66 | 1013.9 |
| 20260901191043 | 91 | 195 | 4.0 | 7.0 | 0.00 | 0.01 | 0.00 | 65 | 1013.9 |
| 20260901190937 | 91 | 177 | 1.0 | 7.0 | 0.00 | 0.01 | 0.00 | 66 | 1013.9 |
| 20260901190911 | 91 | 226 | 2.0 | 7.0 | 0.00 | 0.01 | 0.00 | 65 | 1013.9 |
| 20260901190832 | 91 | 225 | 2.0 | 7.0 | 0.00 | 0.01 | 0.00 | 66 | 1013.5 |
| 20260901190725 | 91 | 192 | 0.0 | 7.0 | 0.00 | 0.01 | 0.00 | 66 | 1013.9 |
| 20260901190622 | 91 | 276 | 2.0 | 7.0 | 0.00 | 0.01 | 0.00 | 67 | 1013.9 |
| 20260901190517 | 91 | 280 | 2.0 | 7.0 | 0.00 | 0.01 | 0.00 | 67 | 1013.9 |
| 20260901190408 | 91 | 255 | 1.0 | 7.0 | 0.00 | 0.01 | 0.00 | 66 | 1013.9 |
| 20260901190315 | 91 | 268 | 1.0 | 7.0 | 0.00 | 0.01 | 0.00 | 65 | 1013.5 |
| 20260901190157 | 91 | 225 | 3.0 | 7.0 | 0.00 | 0.01 | 0.00 | 65 | 1013.9 |
| 20260901190104 | 91 | 189 | 2.0 | 7.0 | 0.00 | 0.01 | 0.00 | 65 | 1013.9 |
| 20260901185946 | 91 | 204 | 4.0 | 7.0 | 0.00 | 0.01 | 0.00 | 66 | 1013.5 |
| 20260901185856 | 91 | 213 | 3.0 | 7.0 | 0.00 | 0.01 | 0.00 | 65 | 1013.9 |
| 20260901185839 | 91 | 265 | 4.0 | 7.0 | 0.00 | 0.01 | 0.00 | 65 | 1013.9 |
| 20260901185733 | 92 | 150 | 2.0 | 7.0 | 0.00 | 0.01 | 0.00 | 65 | 1013.5 |
| 20260901185628 | 92 | 287 | 3.0 | 7.0 | 0.00 | 0.01 | 0.00 | 63 | 1013.5 |
| 20260901185521 | 91 | 344 | 1.0 | 7.0 | 0.00 | 0.01 | 0.00 | 65 | 1013.5 |
| 20260901185416 | 91 | 201 | 1.0 | 7.0 | 0.00 | 0.01 | 0.00 | 66 | 1013.9 |
| 20260901185350 | 91 | 103 | 0.0 | 7.0 | 0.00 | 0.01 | 0.00 | 66 | 1013.9 |
| 20260901185310 | 91 | 317 | 4.0 | 7.0 | 0.00 | 0.01 | 0.00 | 65 | 1013.9 |
| 20260901185205 | 91 | 215 | 1.0 | 7.0 | 0.00 | 0.01 | 0.00 | 66 | 1013.9 |
| 20260901185122 | 92 | 0 | 2.0 | 7.0 | 0.00 | 0.01 | 0.00 | 65 | 1013.5 |
| 20260901185113 | 92 | 322 | 2.0 | 6.0 | 0.00 | 0.01 | 0.00 | 64 | 1013.9 |
| 20260901185103 | 92 | 352 | 2.0 | 6.0 | 0.00 | 0.02 | 0.00 | 65 | 1013.5 |
| 20260901184742 | 92 | 207 | 2.0 | 6.0 | 0.00 | 0.02 | 0.00 | 64 | 1013.5 |
| 20260901184635 | 92 | 222 | 2.0 | 6.0 | 0.00 | 0.02 | 0.00 | 66 | 1013.5 |
| 20260901184529 | 91 | 170 | 1.0 | 6.0 | 0.00 | 0.02 | 0.00 | 65 | 1013.5 |
| 20260901184424 | 92 | 196 | 2.0 | 7.0 | 0.00 | 0.02 | 0.00 | 65 | 1013.9 |
| 20260901184335 | 92 | 270 | 2.0 | 7.0 | 0.00 | 0.02 | 0.00 | 65 | 1013.9 |
| 20260901184318 | 92 | 233 | 3.0 | 7.0 | 0.00 | 0.02 | 0.00 | 64 | 1013.5 |
| 20260901184211 | 92 | 183 | 2.0 | 7.0 | 0.00 | 0.02 | 0.00 | 64 | 1013.5 |
| 20260901184106 | 92 | 268 | 3.0 | 7.0 | 0.00 | 0.02 | 0.00 | 63 | 1013.5 |
| 20260901184000 | 92 | 188 | 1.0 | 7.0 | 0.00 | 0.02 | 0.00 | 64 | 1013.5 |
| 20260901183854 | 92 | 177 | 1.0 | 7.0 | 0.00 | 0.02 | 0.00 | 63 | 1013.5 |
| 20260901183828 | 92 | 164 | 1.0 | 7.0 | 0.00 | 0.02 | 0.00 | 64 | 1013.5 |
| 20260901183749 | 92 | 202 | 1.0 | 7.0 | 0.00 | 0.02 | 0.00 | 64 | 1013.5 |
| 20260901183643 | 92 | 206 | 3.0 | 7.0 | 0.00 | 0.02 | 0.00 | 64 | 1013.5 |
| 20260901183537 | 93 | 277 | 5.0 | 10.0 | 0.00 | 0.02 | 0.00 | 63 | 1013.5 |
| 20260901183432 | 93 | 239 | 2.0 | 10.0 | 0.00 | 0.02 | 0.00 | 63 | 1013.5 |
| 20260901183326 | 93 | 311 | 1.0 | 10.0 | 0.00 | 0.02 | 0.00 | 64 | 1013.5 |
| 20260901183220 | 92 | 0 | 2.0 | 10.0 | 0.00 | 0.02 | 0.00 | 64 | 1013.5 |
| 20260901183115 | 91 | 271 | 1.0 | 10.0 | 0.00 | 0.02 | 0.00 | 64 | 1013.5 |
| 20260901183009 | 91 | 278 | 2.0 | 10.0 | 0.00 | 0.02 | 0.00 | 67 | 1013.5 |
| 20260901182903 | 91 | 244 | 3.0 | 10.0 | 0.00 | 0.02 | 0.00 | 66 | 1013.9 |
| 20260901182815 | 91 | 272 | 1.0 | 10.0 | 0.00 | 0.02 | 0.00 | 65 | 1013.5 |
| 20260901182757 | 91 | 206 | 0.0 | 10.0 | 0.00 | 0.02 | 0.00 | 66 | 1013.5 |
| 20260901182652 | 92 | 181 | 2.0 | 10.0 | 0.00 | 0.02 | 0.00 | 65 | 1013.5 |
| 20260901182546 | 92 | 101 | 2.0 | 7.0 | 0.00 | 0.02 | 0.00 | 64 | 1013.5 |
| 20260901182440 | 92 | 37 | 2.0 | 7.0 | 0.00 | 0.02 | 0.00 | 65 | 1013.5 |
| 20260901182308 | 91 | 216 | 0.0 | 8.0 | 0.00 | 0.02 | 0.00 | 67 | 1013.9 |
| 20260901182229 | 92 | 318 | 3.0 | 8.0 | 0.00 | 0.02 | 0.00 | 67 | 1013.5 |
| 20260901182123 | 92 | 354 | 3.0 | 8.0 | 0.00 | 0.02 | 0.00 | 66 | 1013.5 |
| 20260901182018 | 93 | 239 | 2.0 | 8.0 | 0.00 | 0.02 | 0.00 | 65 | 1013.5 |
| 20260901181912 | 93 | 261 | 5.0 | 8.0 | 0.00 | 0.02 | 0.00 | 65 | 1013.5 |
| 20260901181806 | 92 | 83 | 1.0 | 8.0 | 0.00 | 0.02 | 0.00 | 64 | 1013.5 |
| 20260901181701 | 92 | 151 | 0.0 | 8.0 | 0.00 | 0.02 | 0.00 | 65 | 1013.5 |
| 20260901181554 | 92 | 273 | 2.0 | 8.0 | 0.00 | 0.02 | 0.00 | 67 | 1013.5 |
| 20260901181449 | 93 | 136 | 2.0 | 8.0 | 0.00 | 0.02 | 0.00 | 66 | 1013.9 |
| 20260901181343 | 93 | 204 | 0.0 | 6.0 | 0.00 | 0.02 | 0.00 | 64 | 1013.5 |
| 20260901181255 | 92 | 267 | 0.0 | 6.0 | 0.00 | 0.02 | 0.00 | 64 | 1013.5 |
| 20260901181237 | 92 | 161 | 0.0 | 6.0 | 0.00 | 0.02 | 0.00 | 63 | 1013.5 |
| 20260901181132 | 92 | 213 | 0.0 | 10.0 | 0.00 | 0.02 | 0.00 | 66 | 1013.5 |
| 20260901181026 | 91 | 205 | 2.0 | 10.0 | 0.00 | 0.02 | 0.00 | 66 | 1013.5 |
| 20260901180920 | 91 | 206 | 0.0 | 10.0 | 0.00 | 0.02 | 0.00 | 65 | 1013.5 |
| 20260901180815 | 90 | 222 | 1.0 | 10.0 | 0.00 | 0.02 | 0.00 | 67 | 1013.5 |
| 20260901180749 | 90 | 150 | 2.0 | 10.0 | 0.00 | 0.02 | 0.00 | 66 | 1013.5 |
| 20260901180708 | 90 | 125 | 1.0 | 10.0 | 0.00 | 0.02 | 0.00 | 68 | 1013.5 |
| 20260901180603 | 89 | 165 | 5.0 | 10.0 | 0.00 | 0.02 | 0.00 | 67 | 1013.5 |
| 20260901180517 | 89 | 130 | 1.0 | 10.0 | 0.00 | 0.02 | 0.00 | 68 | 1013.5 |
| 20260901180509 | 89 | 282 | 3.0 | 10.0 | 0.00 | 0.02 | 0.00 | 68 | 1013.5 |
| 20260901180457 | 89 | 216 | 6.0 | 10.0 | 0.00 | 0.02 | 0.00 | 69 | 1013.9 |
| 20260901180154 | 89 | 290 | 4.0 | 7.0 | 0.00 | 0.02 | 0.00 | 69 | 1013.5 |
| 20260901180035 | 90 | 188 | 4.0 | 7.0 | 0.00 | 0.02 | 0.00 | 68 | 1013.5 |
| 20260901175929 | 90 | 178 | 2.0 | 6.0 | 0.00 | 0.02 | 0.00 | 67 | 1013.5 |
| 20260901175823 | 90 | 221 | 2.0 | 6.0 | 0.00 | 0.02 | 0.00 | 68 | 1013.9 |
| 20260901175735 | 90 | 264 | 2.0 | 6.0 | 0.00 | 0.02 | 0.00 | 68 | 1013.9 |
| 20260901175717 | 90 | 261 | 1.0 | 6.0 | 0.00 | 0.02 | 0.00 | 67 | 1013.9 |
| 20260901175612 | 90 | 203 | 2.0 | 6.0 | 0.00 | 0.02 | 0.00 | 67 | 1013.5 |
| 20260901175505 | 90 | 339 | 1.0 | 6.0 | 0.00 | 0.02 | 0.00 | 68 | 1013.5 |
| 20260901175400 | 90 | 155 | 2.0 | 6.0 | 0.00 | 0.02 | 0.00 | 68 | 1013.5 |
| 20260901175254 | 91 | 208 | 3.0 | 6.0 | 0.00 | 0.02 | 0.00 | 68 | 1013.5 |
| 20260901175228 | 91 | 208 | 3.0 | 6.0 | 0.00 | 0.02 | 0.00 | 68 | 1013.9 |
| 20260901175149 | 91 | 247 | 3.0 | 6.0 | 0.00 | 0.02 | 0.00 | 67 | 1013.9 |
| 20260901175043 | 90 | 190 | 2.0 | 6.0 | 0.00 | 0.02 | 0.00 | 68 | 1013.9 |
| 20260901174937 | 90 | 298 | 2.0 | 7.0 | 0.00 | 0.02 | 0.00 | 67 | 1013.9 |
| 20260901174844 | 90 | 180 | 4.0 | 7.0 | 0.00 | 0.02 | 0.00 | 67 | 1013.9 |
| 20260901174726 | 90 | 200 | 3.0 | 8.0 | 0.00 | 0.02 | 0.00 | 68 | 1013.5 |
| 20260901174620 | 90 | 172 | 4.0 | 8.0 | 0.00 | 0.02 | 0.00 | 67 | 1013.9 |
| 20260901174514 | 90 | 198 | 4.0 | 8.0 | 0.00 | 0.02 | 0.00 | 69 | 1013.5 |
| 20260901174409 | 90 | 226 | 1.0 | 8.0 | 0.00 | 0.02 | 0.00 | 69 | 1013.5 |
| 20260901174317 | 89 | 251 | 2.0 | 8.0 | 0.00 | 0.02 | 0.00 | 69 | 1013.9 |
| 20260901174214 | 89 | 291 | 1.0 | 8.0 | 0.00 | 0.02 | 0.00 | 68 | 1013.9 |
| 20260901174158 | 89 | 204 | 2.0 | 8.0 | 0.00 | 0.02 | 0.00 | 68 | 1013.9 |
| 20260901174051 | 89 | 248 | 4.0 | 8.0 | 0.00 | 0.02 | 0.00 | 70 | 1013.5 |
| 20260901173948 | 89 | 212 | 2.0 | 8.0 | 0.00 | 0.02 | 0.00 | 69 | 1013.5 |
| 20260901173940 | 89 | 191 | 2.0 | 7.0 | 0.00 | 0.02 | 0.00 | 69 | 1013.9 |
| 20260901173936 | 89 | 157 | 3.0 | 8.0 | 0.00 | 0.02 | 0.00 | 69 | 1013.5 |
| 20260901173927 | 89 | 172 | 0.0 | 7.0 | 0.00 | 0.02 | 0.00 | 69 | 1013.9 |
| 20260901173628 | 89 | 132 | 2.0 | 7.0 | 0.00 | 0.02 | 0.00 | 69 | 1013.5 |
| 20260901173523 | 89 | 195 | 0.0 | 7.0 | 0.00 | 0.02 | 0.00 | 69 | 1013.5 |
| 20260901173418 | 89 | 215 | 5.0 | 7.0 | 0.00 | 0.02 | 0.00 | 69 | 1013.5 |
| 20260901173311 | 89 | 200 | 2.0 | 7.0 | 0.00 | 0.02 | 0.00 | 69 | 1013.9 |
| 20260901173206 | 89 | 235 | 1.0 | 7.0 | 0.00 | 0.02 | 0.00 | 69 | 1013.9 |
| 20260901173101 | 89 | 248 | 2.0 | 7.0 | 0.00 | 0.02 | 0.00 | 69 | 1013.9 |
| 20260901173007 | 89 | 232 | 1.0 | 7.0 | 0.00 | 0.02 | 0.00 | 69 | 1013.9 |
| 20260901172849 | 89 | 221 | 2.0 | 7.0 | 0.00 | 0.02 | 0.00 | 70 | 1013.9 |
| 20260901172744 | 89 | 205 | 2.0 | 8.0 | 0.00 | 0.02 | 0.00 | 70 | 1013.9 |
| 20260901172655 | 88 | 188 | 3.0 | 8.0 | 0.00 | 0.02 | 0.00 | 70 | 1013.9 |
| 20260901172638 | 88 | 192 | 2.0 | 11.0 | 0.00 | 0.02 | 0.00 | 70 | 1013.5 |
| 20260901172531 | 88 | 191 | 2.0 | 11.0 | 0.00 | 0.02 | 0.00 | 70 | 1013.9 |
| 20260901172426 | 88 | 171 | 1.0 | 11.0 | 0.00 | 0.02 | 0.00 | 70 | 1013.9 |
| 20260901172320 | 88 | 146 | 2.0 | 11.0 | 0.00 | 0.02 | 0.00 | 70 | 1013.9 |
| 20260901172215 | 88 | 189 | 0.0 | 11.0 | 0.00 | 0.02 | 0.00 | 70 | 1013.9 |
| 20260901172149 | 88 | 189 | 0.0 | 11.0 | 0.00 | 0.02 | 0.00 | 70 | 1013.9 |
| 20260901172109 | 88 | 164 | 4.0 | 11.0 | 0.00 | 0.02 | 0.00 | 70 | 1013.5 |
| 20260901172003 | 88 | 287 | 3.0 | 11.0 | 0.00 | 0.02 | 0.00 | 70 | 1014.2 |
| 20260901171857 | 88 | 223 | 4.0 | 11.0 | 0.00 | 0.02 | 0.00 | 71 | 1013.9 |
| 20260901171752 | 88 | 215 | 4.0 | 11.0 | 0.00 | 0.02 | 0.00 | 70 | 1013.5 |
| 20260901171646 | 88 | 219 | 6.0 | 11.0 | 0.00 | 0.02 | 0.00 | 69 | 1013.9 |
| 20260901171540 | 89 | 166 | 4.0 | 10.0 | 0.00 | 0.02 | 0.00 | 70 | 1013.9 |
| 20260901171435 | 89 | 168 | 7.0 | 10.0 | 0.00 | 0.02 | 0.00 | 69 | 1013.9 |
| 20260901171409 | 90 | 205 | 1.0 | 10.0 | 0.00 | 0.02 | 0.00 | 68 | 1013.9 |
| 20260901171405 | 89 | 192 | 2.0 | 10.0 | 0.00 | 0.02 | 0.00 | 70 | 1013.9 |
| 20260901171357 | 89 | 195 | 4.0 | 10.0 | 0.00 | 0.02 | 0.00 | 69 | 1013.9 |
| 20260901171118 | 90 | 221 | 2.0 | 10.0 | 0.00 | 0.02 | 0.00 | 68 | 1013.5 |
| 20260901171011 | 90 | 201 | 5.0 | 6.0 | 0.00 | 0.02 | 0.00 | 68 | 1013.9 |
| 20260901170912 | 90 | 262 | 2.0 | 7.0 | 0.00 | 0.02 | 0.00 | 68 | 1013.9 |
| 20260901170907 | 90 | 239 | 1.0 | 4.0 | 0.00 | 0.02 | 0.00 | 68 | 1013.9 |
| 20260901170858 | 90 | 175 | 1.0 | 6.0 | 0.00 | 0.02 | 0.00 | 68 | 1013.9 |
| 20260901170849 | 89 | 178 | 1.0 | 7.0 | 0.00 | 0.02 | 0.00 | 69 | 1013.9 |
| 20260901170549 | 90 | 165 | 1.0 | 7.0 | 0.00 | 0.02 | 0.00 | 68 | 1013.9 |
| 20260901170443 | 90 | 249 | 2.0 | 7.0 | 0.00 | 0.02 | 0.00 | 69 | 1013.9 |
| 20260901170338 | 89 | 229 | 0.0 | 7.0 | 0.00 | 0.02 | 0.00 | 69 | 1014.2 |
| 20260901170231 | 89 | 252 | 2.0 | 7.0 | 0.00 | 0.02 | 0.00 | 68 | 1013.9 |
| 20260901170127 | 89 | 0 | 1.0 | 7.0 | 0.00 | 0.02 | 0.00 | 68 | 1014.2 |
| 20260901170020 | 88 | 215 | 0.0 | 7.0 | 0.00 | 0.02 | 0.00 | 69 | 1014.2 |
| 20260901165914 | 88 | 227 | 1.0 | 8.0 | 0.00 | 0.02 | 0.00 | 69 | 1014.2 |
| 20260901165843 | 89 | 122 | 1.0 | 8.0 | 0.00 | 0.02 | 0.00 | 69 | 1014.2 |
| 20260901165839 | 89 | 169 | 2.0 | 8.0 | 0.00 | 0.02 | 0.00 | 69 | 1014.2 |
| 20260901165830 | 89 | 207 | 5.0 | 8.0 | 0.00 | 0.02 | 0.00 | 69 | 1013.9 |
| 20260901165555 | 89 | 200 | 2.0 | 8.0 | 0.00 | 0.02 | 0.00 | 69 | 1014.2 |
| 20260901165450 | 89 | 311 | 1.0 | 8.0 | 0.00 | 0.02 | 0.00 | 69 | 1014.2 |
| 20260901165345 | 89 | 330 | 1.0 | 8.0 | 0.00 | 0.02 | 0.00 | 68 | 1013.9 |
| 20260901165239 | 88 | 199 | 1.0 | 8.0 | 0.00 | 0.02 | 0.00 | 70 | 1014.2 |
| 20260901165133 | 88 | 250 | 1.0 | 8.0 | 0.00 | 0.02 | 0.00 | 71 | 1014.2 |
| 20260901165106 | 88 | 220 | 2.0 | 9.0 | 0.00 | 0.02 | 0.00 | 71 | 1014.2 |
| 20260901165027 | 88 | 177 | 5.0 | 9.0 | 0.00 | 0.02 | 0.00 | 70 | 1014.2 |
| 20260901164921 | 88 | 205 | 3.0 | 9.0 | 0.00 | 0.02 | 0.00 | 71 | 1014.2 |
| 20260901164815 | 88 | 155 | 5.0 | 11.0 | 0.00 | 0.02 | 0.00 | 71 | 1014.2 |
| 20260901164707 | 87 | 181 | 4.0 | 11.0 | 0.00 | 0.02 | 0.00 | 71 | 1014.2 |
| 20260901164607 | 87 | 177 | 5.0 | 11.0 | 0.00 | 0.02 | 0.00 | 71 | 1014.2 |
| 20260901164601 | 87 | 186 | 4.0 | 11.0 | 0.00 | 0.02 | 0.00 | 72 | 1014.2 |
| 20260901164454 | 87 | 271 | 2.0 | 11.0 | 0.00 | 0.03 | 0.00 | 72 | 1014.2 |
| 20260901164349 | 87 | 277 | 2.0 | 11.0 | 0.00 | 0.03 | 0.00 | 72 | 1014.2 |
| 20260901164243 | 87 | 254 | 3.0 | 11.0 | 0.00 | 0.03 | 0.00 | 71 | 1014.2 |
| 20260901164138 | 87 | 172 | 9.0 | 11.0 | 0.00 | 0.03 | 0.00 | 71 | 1014.2 |
| 20260901164100 | 87 | 167 | 3.0 | 11.0 | 0.00 | 0.03 | 0.00 | 71 | 1014.2 |
| 20260901164032 | 87 | 259 | 3.0 | 11.0 | 0.00 | 0.03 | 0.00 | 72 | 1014.2 |
| 20260901163927 | 87 | 175 | 5.0 | 11.0 | 0.00 | 0.03 | 0.00 | 71 | 1014.2 |
| 20260901163833 | 87 | 244 | 2.0 | 8.0 | 0.00 | 0.04 | 0.00 | 71 | 1014.2 |
| 20260901163829 | 88 | 202 | 4.0 | 8.0 | 0.00 | 0.04 | 0.00 | 71 | 1014.2 |
| 20260901163820 | 88 | 206 | 6.0 | 8.0 | 0.00 | 0.04 | 0.00 | 70 | 1014.2 |
| 20260901163812 | 87 | 244 | 2.0 | 8.0 | 0.00 | 0.04 | 0.00 | 71 | 1014.2 |
| 20260901163504 | 87 | 237 | 2.0 | 8.0 | 0.00 | 0.04 | 0.00 | 71 | 1014.2 |
| 20260901163400 | 87 | 202 | 4.0 | 8.0 | 0.00 | 0.04 | 0.00 | 72 | 1014.2 |
| 20260901163322 | 88 | 156 | 3.0 | 8.0 | 0.00 | 0.04 | 0.00 | 71 | 1014.6 |
| 20260901163318 | 87 | 205 | 4.0 | 8.0 | 0.00 | 0.04 | 0.00 | 70 | 1014.2 |
| 20260901163309 | 87 | 313 | 1.0 | 8.0 | 0.00 | 0.04 | 0.00 | 71 | 1014.6 |
| 20260901163043 | 88 | 218 | 4.0 | 8.0 | 0.00 | 0.04 | 0.00 | 71 | 1014.6 |
| 20260901162938 | 89 | 152 | 4.0 | 7.0 | 0.00 | 0.04 | 0.00 | 71 | 1014.6 |
| 20260901162831 | 89 | 218 | 3.0 | 7.0 | 0.00 | 0.04 | 0.00 | 70 | 1014.2 |
| 20260901162726 | 89 | 236 | 1.0 | 7.0 | 0.00 | 0.04 | 0.00 | 70 | 1014.6 |
| 20260901162621 | 88 | 338 | 1.0 | 7.0 | 0.00 | 0.04 | 0.00 | 71 | 1014.2 |
| 20260901162543 | 88 | 207 | 0.0 | 7.0 | 0.00 | 0.04 | 0.00 | 71 | 1014.2 |
| 20260901162515 | 88 | 182 | 1.0 | 7.0 | 0.00 | 0.04 | 0.00 | 71 | 1014.6 |
| 20260901162409 | 88 | 261 | 1.0 | 7.0 | 0.00 | 0.04 | 0.00 | 71 | 1014.6 |
| 20260901162306 | 88 | 146 | 1.0 | 7.0 | 0.00 | 0.06 | 0.00 | 71 | 1014.6 |
| 20260901162158 | 89 | 235 | 2.0 | 7.0 | 0.00 | 0.06 | 0.00 | 70 | 1014.6 |
| 20260901162052 | 89 | 272 | 1.0 | 3.0 | 0.00 | 0.06 | 0.00 | 69 | 1014.6 |
| 20260901162036 | 89 | 279 | 1.0 | 3.0 | 0.00 | 0.06 | 0.00 | 70 | 1014.6 |
| 20260901161946 | 89 | 203 | 0.0 | 4.0 | 0.00 | 0.06 | 0.00 | 70 | 1014.2 |
| 20260901161840 | 88 | 208 | 2.0 | 4.0 | 0.00 | 0.06 | 0.00 | 71 | 1014.6 |
| 20260901161735 | 88 | 325 | 0.0 | 4.0 | 0.00 | 0.06 | 0.00 | 71 | 1014.6 |
| 20260901161629 | 88 | 156 | 1.0 | 4.0 | 0.00 | 0.06 | 0.00 | 71 | 1014.2 |
| 20260901161524 | 87 | 170 | 1.0 | 4.0 | 0.00 | 0.06 | 0.00 | 72 | 1014.2 |
| 20260901161417 | 87 | 161 | 1.0 | 4.0 | 0.00 | 0.06 | 0.00 | 72 | 1014.6 |
| 20260901161312 | 87 | 148 | 2.0 | 4.0 | 0.00 | 0.06 | 0.00 | 71 | 1014.6 |
| 20260901161254 | 88 | 181 | 1.0 | 4.0 | 0.00 | 0.06 | 0.00 | 72 | 1014.9 |
| 20260901161249 | 88 | 248 | 2.0 | 4.0 | 0.00 | 0.06 | 0.00 | 72 | 1014.6 |
| 20260901161241 | 88 | 231 | 1.0 | 4.0 | 0.00 | 0.06 | 0.00 | 71 | 1014.9 |
| 20260901160954 | 88 | 202 | 2.0 | 4.0 | 0.00 | 0.06 | 0.00 | 71 | 1014.9 |
| 20260901160849 | 88 | 139 | 1.0 | 4.0 | 0.00 | 0.06 | 0.00 | 71 | 1014.9 |
| 20260901160743 | 88 | 196 | 2.0 | 4.0 | 0.00 | 0.06 | 0.00 | 71 | 1014.9 |
| 20260901160638 | 88 | 267 | 2.0 | 4.0 | 0.00 | 0.06 | 0.00 | 70 | 1014.9 |
| 20260901160516 | 88 | 206 | 0.0 | 4.0 | 0.00 | 0.06 | 0.00 | 71 | 1014.6 |
| 20260901160428 | 87 | 242 | 1.0 | 4.0 | 0.00 | 0.06 | 0.00 | 72 | 1014.9 |
| 20260901160323 | 86 | 74 | 0.0 | 4.0 | 0.00 | 0.06 | 0.00 | 73 | 1014.6 |
| 20260901160216 | 86 | 223 | 2.0 | 4.0 | 0.00 | 0.06 | 0.00 | 73 | 1014.9 |
| 20260901160124 | 87 | 247 | 2.0 | 4.0 | 0.00 | 0.06 | 0.00 | 73 | 1014.6 |
| 20260901160012 | 87 | 195 | 3.0 | 4.0 | 0.00 | 0.06 | 0.00 | 72 | 1014.6 |
| 20260901160007 | 87 | 203 | 3.0 | 4.0 | 0.00 | 0.06 | 0.00 | 72 | 1014.6 |
| 20260901155859 | 87 | 231 | 3.0 | 4.0 | 0.00 | 0.06 | 0.00 | 72 | 1014.9 |
| 20260901155754 | 87 | 243 | 1.0 | 3.0 | 0.00 | 0.06 | 0.00 | 71 | 1014.6 |
| 20260901155739 | 87 | 197 | 0.0 | 6.0 | 0.00 | 0.06 | 0.00 | 73 | 1014.2 |
| 20260901155732 | 87 | 286 | 2.0 | 6.0 | 0.00 | 0.06 | 0.00 | 71 | 1014.6 |
| 20260901155724 | 87 | 286 | 1.0 | 6.0 | 0.00 | 0.06 | 0.00 | 73 | 1014.6 |
| 20260901155437 | 87 | 180 | 1.0 | 6.0 | 0.00 | 0.06 | 0.00 | 72 | 1014.6 |
| 20260901155331 | 87 | 302 | 1.0 | 6.0 | 0.00 | 0.06 | 0.00 | 72 | 1014.6 |
| 20260901155225 | 87 | 160 | 2.0 | 6.0 | 0.00 | 0.06 | 0.00 | 73 | 1014.6 |
| 20260901155120 | 87 | 209 | 2.0 | 6.0 | 0.00 | 0.06 | 0.00 | 72 | 1014.6 |
| 20260901155014 | 86 | 148 | 0.0 | 6.0 | 0.00 | 0.06 | 0.00 | 73 | 1014.6 |
| 20260901154958 | 86 | 217 | 1.0 | 6.0 | 0.00 | 0.06 | 0.00 | 73 | 1014.6 |
| 20260901154922 | 85 | 239 | 1.0 | 6.0 | 0.00 | 0.06 | 0.00 | 74 | 1014.6 |
| 20260901154802 | 85 | 237 | 1.0 | 6.0 | 0.00 | 0.06 | 0.00 | 73 | 1014.9 |
| 20260901154657 | 86 | 213 | 4.0 | 6.0 | 0.00 | 0.06 | 0.00 | 73 | 1014.6 |
| 20260901154552 | 86 | 184 | 3.0 | 6.0 | 0.00 | 0.06 | 0.00 | 73 | 1014.9 |
| 20260901154446 | 85 | 135 | 0.0 | 6.0 | 0.00 | 0.06 | 0.00 | 74 | 1014.9 |
| 20260901154340 | 85 | 206 | 2.0 | 6.0 | 0.00 | 0.06 | 0.00 | 74 | 1014.9 |
| 20260901154234 | 85 | 201 | 0.0 | 7.0 | 0.00 | 0.06 | 0.00 | 73 | 1014.6 |
| 20260901154215 | 85 | 235 | 1.0 | 7.0 | 0.00 | 0.06 | 0.00 | 73 | 1014.9 |
| 20260901154211 | 85 | 179 | 2.0 | 7.0 | 0.00 | 0.06 | 0.00 | 74 | 1014.9 |
| 20260901154202 | 86 | 234 | 1.0 | 7.0 | 0.00 | 0.06 | 0.00 | 73 | 1014.9 |
| 20260901153917 | 85 | 252 | 4.0 | 7.0 | 0.00 | 0.06 | 0.00 | 73 | 1014.9 |
| 20260901153812 | 85 | 191 | 0.0 | 7.0 | 0.00 | 0.06 | 0.00 | 74 | 1014.9 |
| 20260901153705 | 85 | 271 | 2.0 | 7.0 | 0.00 | 0.06 | 0.00 | 74 | 1014.9 |
| 20260901153600 | 85 | 162 | 1.0 | 8.0 | 0.00 | 0.06 | 0.00 | 74 | 1014.6 |
| 20260901153454 | 85 | 197 | 2.0 | 9.0 | 0.00 | 0.06 | 0.00 | 74 | 1015.3 |
| 20260901153438 | 85 | 203 | 1.0 | 9.0 | 0.00 | 0.06 | 0.00 | 75 | 1015.3 |
| 20260901153348 | 85 | 223 | 2.0 | 9.0 | 0.00 | 0.06 | 0.00 | 75 | 1014.9 |
| 20260901153243 | 85 | 134 | 2.0 | 14.0 | 0.00 | 0.06 | 0.00 | 74 | 1014.6 |
| 20260901153139 | 85 | 185 | 2.0 | 14.0 | 0.00 | 0.06 | 0.00 | 75 | 1014.6 |
| 20260901153031 | 85 | 176 | 3.0 | 14.0 | 0.00 | 0.06 | 0.00 | 74 | 1014.9 |
| 20260901152931 | 84 | 185 | 0.0 | 14.0 | 0.00 | 0.06 | 0.00 | 75 | 1014.6 |
| 20260901152925 | 84 | 185 | 0.0 | 14.0 | 0.00 | 0.06 | 0.00 | 75 | 1014.6 |
| 20260901152820 | 84 | 185 | 2.0 | 14.0 | 0.00 | 0.06 | 0.00 | 76 | 1014.6 |
| 20260901152714 | 84 | 151 | 2.0 | 14.0 | 0.00 | 0.06 | 0.00 | 75 | 1014.6 |
| 20260901152659 | 84 | 260 | 1.0 | 14.0 | 0.00 | 0.06 | 0.00 | 75 | 1014.9 |
| 20260901152655 | 84 | 204 | 6.0 | 14.0 | 0.00 | 0.06 | 0.00 | 75 | 1014.6 |
| 20260901152646 | 84 | 189 | 1.0 | 14.0 | 0.00 | 0.06 | 0.00 | 75 | 1014.6 |
| 20260901152357 | 84 | 267 | 4.0 | 14.0 | 0.00 | 0.06 | 0.00 | 76 | 1014.9 |
| 20260901152251 | 85 | 173 | 7.0 | 10.0 | 0.00 | 0.06 | 0.00 | 74 | 1014.6 |
| 20260901152146 | 85 | 240 | 3.0 | 4.0 | 0.00 | 0.06 | 0.00 | 76 | 1014.9 |
| 20260901152039 | 85 | 226 | 2.0 | 4.0 | 0.00 | 0.06 | 0.00 | 74 | 1014.6 |
| 20260901151934 | 85 | 171 | 1.0 | 4.0 | 0.00 | 0.06 | 0.00 | 76 | 1014.9 |
| 20260901151919 | 85 | 207 | 3.0 | 4.0 | 0.00 | 0.06 | 0.00 | 76 | 1014.9 |
| 20260901151828 | 85 | 209 | 1.0 | 4.0 | 0.00 | 0.06 | 0.00 | 75 | 1014.9 |
| 20260901151723 | 85 | 184 | 1.0 | 4.0 | 0.00 | 0.06 | 0.00 | 74 | 1014.6 |
| 20260901151630 | 85 | 133 | 1.0 | 4.0 | 0.00 | 0.06 | 0.00 | 75 | 1014.6 |
| 20260901151512 | 85 | 180 | 2.0 | 4.0 | 0.00 | 0.06 | 0.00 | 75 | 1014.9 |
| 20260901151405 | 85 | 189 | 1.0 | 4.0 | 0.00 | 0.06 | 0.00 | 75 | 1014.9 |
| 20260901151300 | 85 | 218 | 1.0 | 4.0 | 0.00 | 0.06 | 0.00 | 75 | 1014.9 |
| 20260901151154 | 84 | 201 | 0.0 | 4.0 | 0.00 | 0.06 | 0.00 | 76 | 1014.6 |
| 20260901151137 | 84 | 235 | 1.0 | 10.0 | 0.00 | 0.06 | 0.00 | 76 | 1014.9 |
| 20260901151133 | 84 | 231 | 2.0 | 10.0 | 0.00 | 0.06 | 0.00 | 76 | 1014.6 |
| 20260901151124 | 84 | 169 | 1.0 | 10.0 | 0.00 | 0.06 | 0.00 | 76 | 1014.9 |
| 20260901150836 | 84 | 259 | 1.0 | 10.0 | 0.00 | 0.06 | 0.00 | 76 | 1014.9 |
| 20260901150731 | 84 | 295 | 2.0 | 10.0 | 0.00 | 0.06 | 0.00 | 76 | 1014.9 |
| 20260901150626 | 83 | 232 | 0.0 | 10.0 | 0.00 | 0.06 | 0.00 | 77 | 1014.9 |
| 20260901150520 | 83 | 162 | 3.0 | 10.0 | 0.00 | 0.06 | 0.00 | 76 | 1014.6 |
| 20260901150414 | 83 | 257 | 2.0 | 10.0 | 0.00 | 0.06 | 0.00 | 77 | 1014.9 |
| 20260901150358 | 83 | 216 | 2.0 | 10.0 | 0.00 | 0.06 | 0.00 | 77 | 1014.9 |
| 20260901150308 | 83 | 319 | 2.0 | 10.0 | 0.00 | 0.06 | 0.00 | 77 | 1014.9 |
| 20260901150203 | 83 | 211 | 6.0 | 10.0 | 0.00 | 0.06 | 0.00 | 77 | 1014.6 |
| 20260901150109 | 83 | 182 | 0.0 | 7.0 | 0.00 | 0.06 | 0.00 | 76 | 1014.6 |
| 20260901145951 | 84 | 175 | 3.0 | 7.0 | 0.00 | 0.06 | 0.00 | 76 | 1014.9 |
| 20260901145852 | 84 | 265 | 1.0 | 7.0 | 0.00 | 0.06 | 0.00 | 76 | 1014.6 |
| 20260901145846 | 84 | 271 | 0.0 | 7.0 | 0.00 | 0.06 | 0.00 | 76 | 1014.6 |
| 20260901145739 | 84 | 182 | 4.0 | 6.0 | 0.00 | 0.06 | 0.00 | 77 | 1014.9 |
| 20260901145634 | 84 | 195 | 1.0 | 6.0 | 0.00 | 0.06 | 0.00 | 78 | 1014.9 |
| 20260901145529 | 84 | 250 | 2.0 | 6.0 | 0.00 | 0.06 | 0.00 | 76 | 1014.6 |
| 20260901145422 | 84 | 271 | 0.0 | 6.0 | 0.00 | 0.06 | 0.00 | 77 | 1014.9 |
| 20260901145345 | 84 | 324 | 2.0 | 7.0 | 0.00 | 0.06 | 0.00 | 77 | 1014.9 |
| 20260901145316 | 84 | 297 | 2.0 | 7.0 | 0.00 | 0.06 | 0.00 | 76 | 1014.6 |
| 20260901145211 | 84 | 193 | 1.0 | 7.0 | 0.00 | 0.06 | 0.00 | 77 | 1014.9 |
| 20260901145105 | 85 | 170 | 4.0 | 7.0 | 0.00 | 0.06 | 0.00 | 76 | 1014.9 |
| 20260901145000 | 85 | 123 | 2.0 | 7.0 | 0.00 | 0.06 | 0.00 | 76 | 1014.6 |
| 20260901144853 | 84 | 183 | 0.0 | 7.0 | 0.00 | 0.06 | 0.00 | 76 | 1014.6 |
| 20260901144838 | 84 | 169 | 0.0 | 7.0 | 0.00 | 0.06 | 0.00 | 76 | 1014.6 |
| 20260901144748 | 84 | 194 | 0.0 | 7.0 | 0.00 | 0.06 | 0.00 | 77 | 1014.9 |
| 20260901144643 | 84 | 186 | 2.0 | 7.0 | 0.00 | 0.06 | 0.00 | 77 | 1014.6 |
| 20260901144536 | 84 | 134 | 0.0 | 7.0 | 0.00 | 0.06 | 0.00 | 77 | 1015.3 |
| 20260901144431 | 84 | 164 | 3.0 | 7.0 | 0.00 | 0.06 | 0.00 | 77 | 1014.9 |
| 20260901144326 | 83 | 164 | 1.0 | 3.0 | 0.00 | 0.06 | 0.00 | 76 | 1014.9 |
| 20260901144219 | 83 | 280 | 0.0 | 3.0 | 0.00 | 0.06 | 0.00 | 77 | 1014.9 |
| 20260901144114 | 83 | 198 | 1.0 | 3.0 | 0.00 | 0.06 | 0.00 | 77 | 1014.9 |
| 20260901144009 | 83 | 212 | 0.0 | 3.0 | 0.00 | 0.06 | 0.00 | 78 | 1014.6 |
| 20260901143903 | 83 | 128 | 0.0 | 3.0 | 0.00 | 0.06 | 0.00 | 79 | 1014.9 |
| 20260901143826 | 83 | 229 | 0.0 | 3.0 | 0.00 | 0.06 | 0.00 | 78 | 1015.3 |
| 20260901143757 | 83 | 177 | 0.0 | 4.0 | 0.00 | 0.06 | 0.00 | 79 | 1015.3 |
| 20260901143651 | 83 | 207 | 0.0 | 4.0 | 0.00 | 0.06 | 0.00 | 79 | 1014.9 |
| 20260901143545 | 82 | 162 | 1.0 | 4.0 | 0.00 | 0.06 | 0.00 | 79 | 1014.9 |
| 20260901143440 | 82 | 164 | 0.0 | 4.0 | 0.00 | 0.06 | 0.00 | 79 | 1014.9 |
| 20260901143334 | 82 | 271 | 2.0 | 4.0 | 0.00 | 0.06 | 0.00 | 79 | 1014.9 |
| 20260901143318 | 82 | 303 | 1.0 | 4.0 | 0.00 | 0.06 | 0.00 | 78 | 1014.9 |
| 20260901143229 | 82 | 269 | 1.0 | 4.0 | 0.00 | 0.06 | 0.00 | 78 | 1014.9 |
| 20260901143123 | 82 | 212 | 1.0 | 4.0 | 0.00 | 0.06 | 0.00 | 79 | 1014.6 |
| 20260901143030 | 82 | 182 | 1.0 | 4.0 | 0.00 | 0.06 | 0.00 | 79 | 1015.3 |
| 20260901142851 | 82 | 205 | 1.0 | 4.0 | 0.00 | 0.06 | 0.00 | 79 | 1014.9 |
| 20260901142814 | 82 | 252 | 4.0 | 4.0 | 0.00 | 0.06 | 0.00 | 79 | 1014.9 |
| 20260901142746 | 82 | 169 | 1.0 | 4.0 | 0.00 | 0.06 | 0.00 | 79 | 1014.9 |
| 20260901142639 | 82 | 229 | 0.0 | 4.0 | 0.00 | 0.06 | 0.00 | 79 | 1014.9 |
| 20260901142534 | 82 | 153 | 2.0 | 4.0 | 0.00 | 0.06 | 0.00 | 79 | 1014.9 |
| 20260901142429 | 82 | 169 | 1.0 | 4.0 | 0.00 | 0.06 | 0.00 | 79 | 1014.9 |
| 20260901142307 | 82 | 200 | 0.0 | 4.0 | 0.00 | 0.06 | 0.00 | 80 | 1014.9 |
| 20260901142217 | 81 | 226 | 2.0 | 4.0 | 0.00 | 0.06 | 0.00 | 80 | 1014.6 |
| 20260901142111 | 81 | 215 | 2.0 | 4.0 | 0.00 | 0.06 | 0.00 | 80 | 1014.9 |
| 20260901142006 | 81 | 196 | 2.0 | 4.0 | 0.00 | 0.06 | 0.00 | 80 | 1014.9 |
| 20260901141900 | 82 | 199 | 2.0 | 4.0 | 0.00 | 0.06 | 0.00 | 80 | 1014.9 |
| 20260901141800 | 82 | 183 | 2.0 | 4.0 | 0.00 | 0.06 | 0.00 | 79 | 1014.9 |
| 20260901141754 | 82 | 193 | 2.0 | 4.0 | 0.00 | 0.06 | 0.00 | 79 | 1014.9 |
| 20260901141648 | 82 | 204 | 1.0 | 4.0 | 0.00 | 0.06 | 0.00 | 79 | 1014.6 |
| 20260901141543 | 83 | 166 | 1.0 | 4.0 | 0.00 | 0.06 | 0.00 | 79 | 1014.6 |
| 20260901141437 | 83 | 208 | 3.0 | 4.0 | 0.00 | 0.06 | 0.00 | 78 | 1014.9 |
| 20260901141331 | 83 | 100 | 0.0 | 2.0 | 0.00 | 0.06 | 0.00 | 78 | 1014.9 |
| 20260901141254 | 83 | 203 | 0.0 | 2.0 | 0.00 | 0.06 | 0.00 | 78 | 1014.9 |
| 20260901141239 | 83 | 223 | 1.0 | 2.0 | 0.00 | 0.06 | 0.00 | 78 | 1014.9 |
| 20260901141120 | 82 | 202 | 0.0 | 2.0 | 0.00 | 0.06 | 0.00 | 78 | 1014.6 |
| 20260901141015 | 82 | 171 | 0.0 | 4.0 | 0.00 | 0.06 | 0.00 | 79 | 1014.9 |
| 20260901140909 | 82 | 255 | 0.0 | 4.0 | 0.00 | 0.06 | 0.00 | 79 | 1014.6 |
| 20260901140803 | 82 | 246 | 0.0 | 4.0 | 0.00 | 0.06 | 0.00 | 79 | 1014.6 |
| 20260901140747 | 82 | 176 | 0.0 | 4.0 | 0.00 | 0.06 | 0.00 | 79 | 1014.6 |
| 20260901140656 | 82 | 236 | 1.0 | 4.0 | 0.00 | 0.06 | 0.00 | 79 | 1014.6 |
| 20260901140551 | 81 | 252 | 0.0 | 4.0 | 0.00 | 0.06 | 0.00 | 79 | 1014.9 |
| 20260901140446 | 81 | 207 | 1.0 | 4.0 | 0.00 | 0.06 | 0.00 | 79 | 1014.6 |
| 20260901140339 | 81 | 183 | 1.0 | 4.0 | 0.00 | 0.06 | 0.00 | 79 | 1014.6 |
| 20260901140240 | 81 | 269 | 1.0 | 4.0 | 0.00 | 0.06 | 0.00 | 80 | 1014.9 |
| 20260901140234 | 81 | 336 | 0.0 | 4.0 | 0.00 | 0.06 | 0.00 | 80 | 1014.9 |
| 20260901140129 | 81 | 259 | 2.0 | 4.0 | 0.00 | 0.06 | 0.00 | 80 | 1014.9 |
| 20260901140023 | 81 | 320 | 1.0 | 3.0 | 0.00 | 0.06 | 0.00 | 79 | 1014.6 |
| 20260901135917 | 81 | 284 | 1.0 | 3.0 | 0.00 | 0.06 | 0.00 | 79 | 1014.9 |
| 20260901135811 | 81 | 336 | 1.0 | 3.0 | 0.00 | 0.06 | 0.00 | 79 | 1014.6 |
| 20260901135734 | 81 | 256 | 0.0 | 3.0 | 0.00 | 0.06 | 0.00 | 80 | 1014.6 |
| 20260901135706 | 81 | 53 | 1.0 | 3.0 | 0.00 | 0.06 | 0.00 | 80 | 1014.6 |
| 20260901135559 | 81 | 306 | 1.0 | 3.0 | 0.00 | 0.06 | 0.00 | 79 | 1014.6 |
| 20260901135454 | 81 | 300 | 2.0 | 3.0 | 0.00 | 0.06 | 0.00 | 80 | 1014.6 |
| 20260901135348 | 81 | 250 | 1.0 | 2.0 | 0.00 | 0.06 | 0.00 | 79 | 1014.6 |
| 20260901135227 | 81 | 241 | 1.0 | 4.0 | 0.00 | 0.06 | 0.00 | 79 | 1014.9 |
| 20260901135137 | 82 | 236 | 0.0 | 4.0 | 0.00 | 0.06 | 0.00 | 79 | 1014.6 |
| 20260901135032 | 82 | 235 | 0.0 | 4.0 | 0.00 | 0.06 | 0.00 | 79 | 1014.9 |
| 20260901134925 | 82 | 236 | 1.0 | 4.0 | 0.00 | 0.06 | 0.00 | 79 | 1014.6 |
| 20260901134820 | 81 | 235 | 0.0 | 4.0 | 0.00 | 0.06 | 0.00 | 80 | 1014.6 |
| 20260901134714 | 81 | 235 | 0.0 | 4.0 | 0.00 | 0.06 | 0.00 | 80 | 1014.6 |
| 20260901134608 | 81 | 236 | 0.0 | 4.0 | 0.00 | 0.06 | 0.00 | 80 | 1014.6 |
| 20260901134504 | 80 | 235 | 0.0 | 4.0 | 0.00 | 0.06 | 0.00 | 81 | 1014.6 |
| 20260901134357 | 80 | 235 | 0.0 | 4.0 | 0.00 | 0.06 | 0.00 | 81 | 1014.6 |
| 20260901134251 | 80 | 235 | 2.0 | 4.0 | 0.00 | 0.06 | 0.00 | 81 | 1014.6 |
| 20260901134214 | 80 | 228 | 1.0 | 3.0 | 0.00 | 0.06 | 0.00 | 81 | 1014.6 |
| 20260901134146 | 80 | 226 | 0.0 | 3.0 | 0.00 | 0.06 | 0.00 | 81 | 1014.6 |
| 20260901134039 | 80 | 226 | 0.0 | 3.0 | 0.00 | 0.06 | 0.00 | 82 | 1014.9 |
| 20260901133934 | 79 | 226 | 0.0 | 3.0 | 0.00 | 0.06 | 0.00 | 82 | 1014.6 |
| 20260901133828 | 80 | 226 | 0.0 | 3.0 | 0.00 | 0.06 | 0.00 | 82 | 1014.9 |
| 20260901133708 | 80 | 199 | 1.0 | 3.0 | 0.00 | 0.06 | 0.00 | 82 | 1014.6 |
| 20260901133620 | 80 | 198 | 1.0 | 3.0 | 0.00 | 0.06 | 0.00 | 82 | 1014.6 |
| 20260901133513 | 80 | 192 | 2.0 | 3.0 | 0.00 | 0.06 | 0.00 | 82 | 1014.9 |
| 20260901133409 | 79 | 191 | 0.0 | 4.0 | 0.00 | 0.06 | 0.00 | 83 | 1014.6 |
| 20260901133302 | 79 | 191 | 0.0 | 4.0 | 0.00 | 0.06 | 0.00 | 83 | 1014.6 |
| 20260901133159 | 78 | 190 | 0.0 | 4.0 | 0.00 | 0.06 | 0.00 | 83 | 1014.6 |
| 20260901133153 | 78 | 190 | 0.0 | 4.0 | 0.00 | 0.06 | 0.00 | 84 | 1014.6 |
| 20260901133047 | 78 | 191 | 1.0 | 4.0 | 0.00 | 0.06 | 0.00 | 84 | 1014.9 |
| 20260901132942 | 78 | 185 | 1.0 | 4.0 | 0.00 | 0.06 | 0.00 | 83 | 1014.9 |
| 20260901132924 | 78 | 211 | 2.0 | 4.0 | 0.00 | 0.06 | 0.00 | 84 | 1014.6 |
| 20260901132919 | 78 | 233 | 1.0 | 4.0 | 0.00 | 0.06 | 0.00 | 84 | 1014.6 |
| 20260901132910 | 78 | 211 | 2.0 | 4.0 | 0.00 | 0.06 | 0.00 | 84 | 1014.6 |
| 20260901132624 | 78 | 211 | 1.0 | 4.0 | 0.00 | 0.06 | 0.00 | 84 | 1014.6 |
| 20260901132519 | 78 | 187 | 1.0 | 4.0 | 0.00 | 0.06 | 0.00 | 84 | 1014.6 |
| 20260901132413 | 78 | 211 | 2.0 | 4.0 | 0.00 | 0.06 | 0.00 | 83 | 1014.6 |
| 20260901132308 | 78 | 197 | 1.0 | 4.0 | 0.00 | 0.06 | 0.00 | 84 | 1014.6 |
| 20260901132146 | 78 | 197 | 3.0 | 4.0 | 0.00 | 0.06 | 0.00 | 84 | 1014.6 |
| 20260901132109 | 78 | 197 | 1.0 | 4.0 | 0.00 | 0.06 | 0.00 | 85 | 1014.9 |
| 20260901131950 | 78 | 178 | 1.0 | 4.0 | 0.00 | 0.06 | 0.00 | 84 | 1014.6 |
| 20260901131844 | 78 | 190 | 1.0 | 4.0 | 0.00 | 0.06 | 0.00 | 84 | 1014.2 |
| 20260901131738 | 77 | 170 | 0.0 | 4.0 | 0.00 | 0.06 | 0.00 | 84 | 1014.6 |
| 20260901131635 | 77 | 171 | 0.0 | 4.0 | 0.00 | 0.06 | 0.00 | 85 | 1014.6 |
| 20260901131527 | 77 | 179 | 2.0 | 4.0 | 0.00 | 0.06 | 0.00 | 85 | 1014.6 |
| 20260901131422 | 77 | 206 | 2.0 | 3.0 | 0.00 | 0.06 | 0.00 | 84 | 1014.6 |
| 20260901131315 | 77 | 197 | 2.0 | 3.0 | 0.00 | 0.06 | 0.00 | 85 | 1014.6 |
| 20260901131210 | 77 | 191 | 2.0 | 4.0 | 0.00 | 0.06 | 0.00 | 84 | 1014.6 |
| 20260901131132 | 77 | 222 | 2.0 | 4.0 | 0.00 | 0.06 | 0.00 | 85 | 1014.6 |
| 20260901131105 | 77 | 225 | 0.0 | 4.0 | 0.00 | 0.06 | 0.00 | 85 | 1014.6 |
| 20260901130958 | 77 | 212 | 1.0 | 4.0 | 0.00 | 0.06 | 0.00 | 85 | 1014.9 |
| 20260901130906 | 77 | 190 | 1.0 | 4.0 | 0.00 | 0.06 | 0.00 | 85 | 1014.6 |
| 20260901130749 | 77 | 181 | 0.0 | 4.0 | 0.00 | 0.06 | 0.00 | 85 | 1014.9 |
| 20260901130641 | 77 | 177 | 0.0 | 4.0 | 0.00 | 0.06 | 0.00 | 85 | 1014.6 |
| 20260901130626 | 77 | 176 | 1.0 | 4.0 | 0.00 | 0.06 | 0.00 | 85 | 1014.6 |
| 20260901130536 | 77 | 170 | 0.0 | 4.0 | 0.00 | 0.06 | 0.00 | 86 | 1014.6 |
| 20260901130430 | 76 | 174 | 0.0 | 4.0 | 0.00 | 0.06 | 0.00 | 86 | 1014.6 |
| 20260901130325 | 76 | 205 | 1.0 | 4.0 | 0.00 | 0.06 | 0.00 | 86 | 1014.6 |
| 20260901130218 | 76 | 209 | 2.0 | 4.0 | 0.00 | 0.06 | 0.00 | 86 | 1014.6 |
| 20260901130122 | 76 | 222 | 0.0 | 4.0 | 0.00 | 0.06 | 0.00 | 86 | 1014.9 |
| 20260901130118 | 76 | 222 | 0.0 | 4.0 | 0.00 | 0.06 | 0.00 | 86 | 1014.9 |
| 20260901130006 | 76 | 222 | 0.0 | 4.0 | 0.00 | 0.06 | 0.00 | 86 | 1014.6 |
| 20260901125901 | 76 | 222 | 2.0 | 4.0 | 0.00 | 0.06 | 0.00 | 86 | 1014.9 |
| 20260901125845 | 76 | 212 | 2.0 | 4.0 | 0.00 | 0.06 | 0.00 | 86 | 1014.6 |
| 20260901125841 | 76 | 200 | 1.0 | 4.0 | 0.00 | 0.06 | 0.00 | 86 | 1014.9 |
| 20260901125832 | 76 | 199 | 2.0 | 4.0 | 0.00 | 0.06 | 0.00 | 86 | 1014.6 |
| 20260901125543 | 76 | 145 | 2.0 | 3.0 | 0.00 | 0.06 | 0.00 | 86 | 1014.6 |
| 20260901125438 | 76 | 220 | 2.0 | 3.0 | 0.00 | 0.06 | 0.00 | 86 | 1014.6 |
| 20260901125332 | 76 | 213 | 0.0 | 2.0 | 0.00 | 0.06 | 0.00 | 87 | 1014.9 |
| 20260901125226 | 76 | 213 | 0.0 | 2.0 | 0.00 | 0.06 | 0.00 | 87 | 1014.9 |
| 20260901125106 | 76 | 213 | 0.0 | 2.0 | 0.00 | 0.06 | 0.00 | 87 | 1014.6 |
| 20260901125016 | 75 | 213 | 0.0 | 2.0 | 0.00 | 0.06 | 0.00 | 88 | 1014.9 |
| 20260901124909 | 75 | 213 | 0.0 | 2.0 | 0.00 | 0.06 | 0.00 | 88 | 1014.6 |
| 20260901124804 | 75 | 213 | 1.0 | 2.0 | 0.00 | 0.06 | 0.00 | 88 | 1014.9 |
| 20260901124657 | 75 | 207 | 0.0 | 2.0 | 0.00 | 0.06 | 0.00 | 88 | 1014.9 |
| 20260901124605 | 74 | 206 | 0.0 | 2.0 | 0.00 | 0.06 | 0.00 | 89 | 1014.9 |
| 20260901124446 | 74 | 207 | 0.0 | 2.0 | 0.00 | 0.06 | 0.00 | 89 | 1014.6 |
| 20260901124341 | 74 | 203 | 0.0 | 2.0 | 0.00 | 0.06 | 0.00 | 90 | 1014.9 |
| 20260901124323 | 74 | 191 | 0.0 | 2.0 | 0.00 | 0.06 | 0.00 | 90 | 1014.9 |
| 20260901124319 | 74 | 201 | 0.0 | 2.0 | 0.00 | 0.06 | 0.00 | 90 | 1014.9 |
| 20260901124311 | 74 | 193 | 0.0 | 2.0 | 0.00 | 0.06 | 0.00 | 90 | 1014.9 |
| 20260901124024 | 74 | 191 | 0.0 | 2.0 | 0.00 | 0.06 | 0.00 | 90 | 1014.9 |
| 20260901123917 | 74 | 177 | 0.0 | 2.0 | 0.00 | 0.06 | 0.00 | 90 | 1014.9 |
| 20260901123812 | 73 | 210 | 1.0 | 2.0 | 0.00 | 0.06 | 0.00 | 91 | 1014.9 |
| 20260901123706 | 73 | 190 | 0.0 | 1.0 | 0.00 | 0.06 | 0.00 | 91 | 1014.9 |
| 20260901123601 | 73 | 189 | 0.0 | 1.0 | 0.00 | 0.06 | 0.00 | 91 | 1014.9 |
| 20260901123545 | 73 | 191 | 0.0 | 1.0 | 0.00 | 0.06 | 0.00 | 92 | 1014.9 |
| 20260901123455 | 73 | 198 | 0.0 | 2.0 | 0.00 | 0.06 | 0.00 | 92 | 1014.6 |
| 20260901123349 | 73 | 198 | 0.0 | 3.0 | 0.00 | 0.06 | 0.00 | 92 | 1014.9 |
| 20260901123243 | 73 | 203 | 0.0 | 3.0 | 0.00 | 0.06 | 0.00 | 92 | 1014.9 |
| 20260901123138 | 73 | 177 | 0.0 | 3.0 | 0.00 | 0.06 | 0.00 | 92 | 1014.9 |
| 20260901123039 | 73 | 191 | 0.0 | 3.0 | 0.00 | 0.06 | 0.00 | 92 | 1014.9 |
| 20260901123032 | 73 | 180 | 0.0 | 3.0 | 0.00 | 0.06 | 0.00 | 92 | 1014.6 |
| 20260901122926 | 73 | 189 | 0.0 | 3.0 | 0.00 | 0.06 | 0.00 | 93 | 1014.6 |
| 20260901122821 | 72 | 191 | 0.0 | 3.0 | 0.00 | 0.06 | 0.00 | 93 | 1014.9 |
| 20260901122802 | 72 | 210 | 1.0 | 3.0 | 0.00 | 0.06 | 0.00 | 93 | 1014.6 |
| 20260901122758 | 72 | 199 | 0.0 | 3.0 | 0.00 | 0.06 | 0.00 | 93 | 1014.6 |
| 20260901122749 | 72 | 181 | 1.0 | 3.0 | 0.00 | 0.06 | 0.00 | 93 | 1014.6 |
| 20260901122503 | 72 | 191 | 1.0 | 3.0 | 0.00 | 0.06 | 0.00 | 93 | 1014.6 |
| 20260901122358 | 72 | 237 | 1.0 | 2.0 | 0.00 | 0.06 | 0.00 | 93 | 1014.9 |
| 20260901122253 | 72 | 237 | 0.0 | 2.0 | 0.00 | 0.06 | 0.00 | 94 | 1014.6 |
| 20260901122126 | 72 | 237 | 0.0 | 2.0 | 0.00 | 0.06 | 0.00 | 94 | 1014.6 |
| 20260901122021 | 72 | 237 | 0.0 | 2.0 | 0.00 | 0.06 | 0.00 | 94 | 1014.2 |
| 20260901121915 | 71 | 237 | 0.0 | 2.0 | 0.00 | 0.06 | 0.00 | 94 | 1014.6 |
| 20260901121822 | 71 | 237 | 0.0 | 2.0 | 0.00 | 0.06 | 0.00 | 94 | 1014.6 |
| 20260901121702 | 71 | 237 | 0.0 | 2.0 | 0.00 | 0.06 | 0.00 | 94 | 1014.6 |
| 20260901121557 | 71 | 237 | 0.0 | 2.0 | 0.00 | 0.06 | 0.00 | 95 | 1014.9 |
| 20260901121519 | 71 | 237 | 0.0 | 2.0 | 0.00 | 0.06 | 0.00 | 95 | 1014.6 |
| 20260901121452 | 71 | 237 | 0.0 | 2.0 | 0.00 | 0.06 | 0.00 | 95 | 1014.6 |
| 20260901121342 | 71 | 237 | 0.0 | 2.0 | 0.00 | 0.06 | 0.00 | 95 | 1014.6 |
| 20260901121237 | 71 | 237 | 0.0 | 2.0 | 0.00 | 0.06 | 0.00 | 95 | 1014.6 |
| 20260901121130 | 71 | 237 | 1.0 | 2.0 | 0.00 | 0.06 | 0.00 | 95 | 1014.6 |
| 20260901121030 | 71 | 223 | 0.0 | 0.0 | 0.00 | 0.06 | 0.00 | 96 | 1014.6 |
| 20260901121015 | 71 | 237 | 0.0 | 0.0 | 0.00 | 0.06 | 0.00 | 95 | 1014.6 |
| 20260901121011 | 71 | 237 | 0.0 | 0.0 | 0.00 | 0.06 | 0.00 | 95 | 1014.2 |
| 20260901121002 | 71 | 237 | 0.0 | 0.0 | 0.00 | 0.06 | 0.00 | 95 | 1014.2 |
| 20260901120743 | 71 | 237 | 0.0 | 0.0 | 0.00 | 0.06 | 0.00 | 95 | 1014.6 |
| 20260901120734 | 71 | 223 | 0.0 | 0.0 | 0.00 | 0.06 | 0.00 | 96 | 1014.6 |
| 20260901120511 | 71 | 223 | 0.0 | 0.0 | 0.00 | 0.06 | 0.00 | 96 | 1014.6 |
| 20260901120507 | 71 | 223 | 0.0 | 0.0 | 0.00 | 0.06 | 0.00 | 96 | 1014.6 |
| 20260901120459 | 71 | 223 | 0.0 | 0.0 | 0.00 | 0.06 | 0.00 | 96 | 1014.6 |
| 20260901120450 | 71 | 223 | 0.0 | 0.0 | 0.00 | 0.06 | 0.00 | 96 | 1014.2 |
| 20260901120227 | 71 | 223 | 0.0 | 0.0 | 0.00 | 0.06 | 0.00 | 96 | 1014.6 |
| 20260901120218 | 71 | 223 | 0.0 | 0.0 | 0.00 | 0.06 | 0.00 | 96 | 1014.6 |
| 20260901115928 | 71 | 223 | 0.0 | 0.0 | 0.00 | 0.06 | 0.00 | 96 | 1014.6 |
| 20260901115822 | 70 | 223 | 0.0 | 0.0 | 0.00 | 0.06 | 0.00 | 96 | 1014.2 |
| 20260901115732 | 70 | 222 | 0.0 | 0.0 | 0.00 | 0.06 | 0.00 | 96 | 1014.2 |
| 20260901115728 | 70 | 222 | 0.0 | 0.0 | 0.00 | 0.06 | 0.00 | 96 | 1014.6 |
| 20260901115719 | 70 | 222 | 0.0 | 0.0 | 0.00 | 0.06 | 0.00 | 96 | 1014.2 |
| 20260901115711 | 70 | 222 | 0.0 | 0.0 | 0.00 | 0.06 | 0.00 | 96 | 1014.2 |
| 20260901115359 | 70 | 222 | 0.0 | 0.0 | 0.00 | 0.06 | 0.00 | 96 | 1014.6 |
| 20260901115254 | 70 | 222 | 0.0 | 0.0 | 0.00 | 0.06 | 0.00 | 96 | 1014.6 |
| 20260901115217 | 70 | 222 | 0.0 | 0.0 | 0.00 | 0.06 | 0.00 | 96 | 1014.6 |
| 20260901115213 | 70 | 222 | 0.0 | 0.0 | 0.00 | 0.06 | 0.00 | 96 | 1014.6 |
| 20260901115204 | 70 | 222 | 0.0 | 0.0 | 0.00 | 0.06 | 0.00 | 96 | 1014.2 |
| 20260901114937 | 70 | 222 | 0.0 | 0.0 | 0.00 | 0.06 | 0.00 | 96 | 1014.2 |
| 20260901114831 | 70 | 222 | 0.0 | 0.0 | 0.00 | 0.06 | 0.00 | 96 | 1014.2 |
| 20260901114725 | 70 | 218 | 0.0 | 0.0 | 0.00 | 0.06 | 0.00 | 96 | 1014.6 |
| 20260901114710 | 70 | 218 | 0.0 | 0.0 | 0.00 | 0.06 | 0.00 | 96 | 1014.6 |
| 20260901114705 | 70 | 218 | 0.0 | 0.0 | 0.00 | 0.06 | 0.00 | 96 | 1014.6 |
| 20260901114657 | 70 | 218 | 0.0 | 0.0 | 0.00 | 0.06 | 0.00 | 96 | 1014.6 |
| 20260901114407 | 70 | 218 | 0.0 | 0.0 | 0.00 | 0.06 | 0.00 | 96 | 1014.6 |
| 20260901114301 | 70 | 218 | 0.0 | 0.0 | 0.00 | 0.06 | 0.00 | 96 | 1014.6 |
| 20260901114211 | 70 | 218 | 0.0 | 0.0 | 0.00 | 0.06 | 0.00 | 96 | 1014.6 |
| 20260901114207 | 70 | 218 | 0.0 | 0.0 | 0.00 | 0.06 | 0.00 | 96 | 1014.6 |
| 20260901114158 | 70 | 218 | 0.0 | 0.0 | 0.00 | 0.06 | 0.00 | 96 | 1014.6 |
| 20260901114150 | 70 | 218 | 0.0 | 0.0 | 0.00 | 0.06 | 0.00 | 96 | 1014.2 |
| 20260901113839 | 70 | 218 | 0.0 | 0.0 | 0.00 | 0.06 | 0.00 | 96 | 1014.6 |
| 20260901113734 | 70 | 218 | 0.0 | 0.0 | 0.00 | 0.06 | 0.00 | 96 | 1014.6 |
| 20260901113657 | 70 | 218 | 0.0 | 0.0 | 0.00 | 0.06 | 0.00 | 96 | 1014.2 |
| 20260901113651 | 70 | 218 | 0.0 | 0.0 | 0.00 | 0.06 | 0.00 | 96 | 1014.6 |
| 20260901113642 | 70 | 218 | 0.0 | 0.0 | 0.00 | 0.06 | 0.00 | 96 | 1014.2 |
| 20260901113416 | 70 | 218 | 0.0 | 0.0 | 0.00 | 0.06 | 0.00 | 96 | 1014.2 |
| 20260901113310 | 70 | 218 | 0.0 | 0.0 | 0.00 | 0.06 | 0.00 | 96 | 1014.2 |
| 20260901113205 | 70 | 218 | 0.0 | 0.0 | 0.00 | 0.06 | 0.00 | 96 | 1014.2 |
| 20260901113144 | 70 | 218 | 0.0 | 0.0 | 0.00 | 0.06 | 0.00 | 96 | 1014.2 |
| 20260901113135 | 70 | 218 | 0.0 | 0.0 | 0.00 | 0.06 | 0.00 | 96 | 1014.2 |
| 20260901112847 | 70 | 218 | 0.0 | 0.0 | 0.00 | 0.06 | 0.00 | 96 | 1014.2 |
| 20260901112742 | 70 | 218 | 0.0 | 0.0 | 0.00 | 0.06 | 0.00 | 96 | 1014.2 |
| 20260901112645 | 70 | 218 | 0.0 | 0.0 | 0.00 | 0.06 | 0.00 | 96 | 1014.2 |
| 20260901112636 | 70 | 218 | 0.0 | 0.0 | 0.00 | 0.06 | 0.00 | 96 | 1014.2 |
| 20260901112629 | 70 | 218 | 0.0 | 0.0 | 0.00 | 0.06 | 0.00 | 96 | 1014.2 |
| 20260901112319 | 70 | 218 | 0.0 | 0.0 | 0.00 | 0.06 | 0.00 | 96 | 1014.2 |
| 20260901112213 | 70 | 218 | 0.0 | 0.0 | 0.00 | 0.06 | 0.00 | 96 | 1014.2 |
| 20260901112107 | 70 | 218 | 0.0 | 0.0 | 0.00 | 0.06 | 0.00 | 96 | 1014.2 |
| 20260901112001 | 70 | 218 | 0.0 | 0.0 | 0.00 | 0.06 | 0.00 | 96 | 1014.2 |
| 20260901111902 | 70 | 218 | 0.0 | 0.0 | 0.00 | 0.06 | 0.00 | 96 | 1014.2 |
| 20260901111855 | 70 | 218 | 0.0 | 0.0 | 0.00 | 0.06 | 0.00 | 96 | 1014.2 |
| 20260901111750 | 70 | 218 | 0.0 | 0.0 | 0.00 | 0.06 | 0.00 | 96 | 1014.6 |
| 20260901111655 | 70 | 218 | 0.0 | 0.0 | 0.00 | 0.06 | 0.00 | 96 | 1014.2 |
| 20260901111550 | 70 | 218 | 0.0 | 0.0 | 0.00 | 0.06 | 0.00 | 96 | 1014.2 |
| 20260901111444 | 70 | 218 | 0.0 | 0.0 | 0.00 | 0.06 | 0.00 | 96 | 1014.2 |
| 20260901111338 | 70 | 218 | 0.0 | 0.0 | 0.00 | 0.06 | 0.00 | 96 | 1014.2 |
| 20260901111233 | 70 | 218 | 0.0 | 0.0 | 0.00 | 0.06 | 0.00 | 96 | 1014.2 |
| 20260901111152 | 70 | 218 | 0.0 | 0.0 | 0.00 | 0.06 | 0.00 | 96 | 1014.2 |
| 20260901111148 | 70 | 218 | 0.0 | 0.0 | 0.00 | 0.06 | 0.00 | 96 | 1014.2 |
| 20260901111144 | 70 | 218 | 0.0 | 0.0 | 0.00 | 0.06 | 0.00 | 96 | 1014.2 |
| 20260901111135 | 70 | 218 | 0.0 | 0.0 | 0.00 | 0.06 | 0.00 | 96 | 1014.2 |
| 20260901111127 | 70 | 218 | 0.0 | 0.0 | 0.00 | 0.06 | 0.00 | 96 | 1014.2 |
| 20260901110905 | 70 | 218 | 0.0 | 0.0 | 0.00 | 0.06 | 0.00 | 96 | 1014.2 |
| 20260901110856 | 70 | 218 | 0.0 | 0.0 | 0.00 | 0.06 | 0.00 | 96 | 1014.2 |
| 20260901110632 | 70 | 218 | 0.0 | 0.0 | 0.00 | 0.06 | 0.00 | 96 | 1014.2 |
| 20260901110628 | 70 | 218 | 0.0 | 0.0 | 0.00 | 0.06 | 0.00 | 96 | 1014.2 |
| 20260901110619 | 70 | 218 | 0.0 | 0.0 | 0.00 | 0.06 | 0.00 | 96 | 1014.2 |
| 20260901110356 | 70 | 218 | 0.0 | 0.0 | 0.00 | 0.06 | 0.00 | 96 | 1014.2 |
| 20260901110347 | 70 | 218 | 0.0 | 0.0 | 0.00 | 0.06 | 0.00 | 96 | 1014.2 |
| 20260901110339 | 70 | 218 | 0.0 | 0.0 | 0.00 | 0.06 | 0.00 | 96 | 1014.2 |
| 20260901110117 | 70 | 218 | 0.0 | 0.0 | 0.00 | 0.06 | 0.00 | 96 | 1014.2 |
| 20260901110108 | 70 | 218 | 0.0 | 0.0 | 0.00 | 0.06 | 0.00 | 96 | 1014.2 |
| 20260901105819 | 70 | 218 | 0.0 | 0.0 | 0.00 | 0.06 | 0.00 | 96 | 1014.2 |
| 20260901105714 | 70 | 218 | 0.0 | 0.0 | 0.00 | 0.06 | 0.00 | 96 | 1014.2 |
| 20260901105607 | 70 | 218 | 0.0 | 0.0 | 0.00 | 0.06 | 0.00 | 96 | 1014.2 |
| 20260901105502 | 70 | 218 | 0.0 | 0.0 | 0.00 | 0.06 | 0.00 | 96 | 1014.2 |
| 20260901105340 | 70 | 218 | 0.0 | 0.0 | 0.00 | 0.06 | 0.00 | 96 | 1014.2 |
| 20260901105250 | 70 | 218 | 0.0 | 0.0 | 0.00 | 0.06 | 0.00 | 96 | 1014.2 |
| 20260901105144 | 70 | 218 | 0.0 | 0.0 | 0.00 | 0.06 | 0.00 | 96 | 1014.2 |
| 20260901105038 | 70 | 218 | 0.0 | 0.0 | 0.00 | 0.06 | 0.00 | 96 | 1014.2 |
| 20260901104934 | 70 | 218 | 0.0 | 0.0 | 0.00 | 0.06 | 0.00 | 96 | 1014.2 |
| 20260901104827 | 70 | 218 | 0.0 | 0.0 | 0.00 | 0.06 | 0.00 | 96 | 1014.2 |
| 20260901104721 | 70 | 218 | 0.0 | 0.0 | 0.00 | 0.06 | 0.00 | 96 | 1014.2 |
| 20260901104616 | 70 | 218 | 0.0 | 0.0 | 0.00 | 0.06 | 0.00 | 96 | 1014.2 |
| 20260901104510 | 70 | 218 | 0.0 | 0.0 | 0.00 | 0.06 | 0.00 | 96 | 1014.2 |
| 20260901104404 | 70 | 218 | 0.0 | 0.0 | 0.00 | 0.06 | 0.00 | 96 | 1014.2 |
| 20260901104327 | 70 | 218 | 0.0 | 0.0 | 0.00 | 0.06 | 0.00 | 96 | 1014.2 |
| 20260901104258 | 70 | 218 | 0.0 | 0.0 | 0.00 | 0.06 | 0.00 | 96 | 1014.2 |
| 20260901104152 | 70 | 218 | 0.0 | 0.0 | 0.00 | 0.06 | 0.00 | 96 | 1014.2 |
| 20260901104047 | 70 | 218 | 0.0 | 0.0 | 0.00 | 0.06 | 0.00 | 96 | 1014.2 |
| 20260901103941 | 70 | 218 | 0.0 | 0.0 | 0.00 | 0.06 | 0.00 | 96 | 1014.2 |
| 20260901103820 | 70 | 218 | 0.0 | 0.0 | 0.00 | 0.06 | 0.00 | 96 | 1014.2 |
| 20260901103729 | 70 | 218 | 0.0 | 0.0 | 0.00 | 0.06 | 0.00 | 96 | 1013.9 |
| 20260901103624 | 70 | 218 | 0.0 | 0.0 | 0.00 | 0.06 | 0.00 | 96 | 1014.2 |
| 20260901103518 | 70 | 218 | 0.0 | 0.0 | 0.00 | 0.06 | 0.00 | 96 | 1014.2 |
| 20260901103413 | 70 | 218 | 0.0 | 0.0 | 0.00 | 0.06 | 0.00 | 96 | 1014.2 |
| 20260901103314 | 70 | 218 | 0.0 | 0.0 | 0.00 | 0.06 | 0.00 | 96 | 1013.9 |
| 20260901103307 | 70 | 218 | 0.0 | 0.0 | 0.00 | 0.06 | 0.00 | 96 | 1013.9 |
| 20260901103201 | 70 | 218 | 0.0 | 0.0 | 0.00 | 0.06 | 0.00 | 96 | 1014.2 |
| 20260901103056 | 70 | 218 | 0.0 | 0.0 | 0.00 | 0.06 | 0.00 | 96 | 1013.9 |
| 20260901102950 | 70 | 218 | 0.0 | 0.0 | 0.00 | 0.06 | 0.00 | 96 | 1014.2 |
| 20260901102845 | 70 | 218 | 0.0 | 0.0 | 0.00 | 0.06 | 0.00 | 96 | 1014.2 |
| 20260901102739 | 70 | 218 | 0.0 | 0.0 | 0.00 | 0.06 | 0.00 | 96 | 1014.2 |
| 20260901102632 | 70 | 218 | 0.0 | 0.0 | 0.00 | 0.06 | 0.00 | 96 | 1013.9 |
| 20260901102527 | 70 | 218 | 0.0 | 0.0 | 0.00 | 0.06 | 0.00 | 96 | 1013.9 |
| 20260901102422 | 70 | 218 | 0.0 | 0.0 | 0.00 | 0.06 | 0.00 | 96 | 1013.9 |
| 20260901102329 | 70 | 218 | 0.0 | 0.0 | 0.00 | 0.06 | 0.00 | 96 | 1013.9 |
| 20260901102300 | 70 | 218 | 0.0 | 0.0 | 0.00 | 0.06 | 0.00 | 96 | 1013.9 |
| 20260901102210 | 70 | 218 | 0.0 | 0.0 | 0.00 | 0.06 | 0.00 | 96 | 1014.2 |
| 20260901102104 | 70 | 218 | 0.0 | 0.0 | 0.00 | 0.06 | 0.00 | 96 | 1013.9 |
| 20260901101958 | 70 | 218 | 0.0 | 0.0 | 0.00 | 0.06 | 0.00 | 96 | 1013.9 |
| 20260901101905 | 70 | 219 | 0.0 | 0.0 | 0.00 | 0.06 | 0.00 | 96 | 1013.9 |
| 20260901101746 | 70 | 219 | 0.0 | 0.0 | 0.00 | 0.06 | 0.00 | 96 | 1013.9 |
| 20260901101641 | 70 | 219 | 0.0 | 0.0 | 0.00 | 0.06 | 0.00 | 96 | 1013.5 |
| 20260901101542 | 70 | 219 | 0.0 | 0.0 | 0.00 | 0.06 | 0.00 | 96 | 1013.5 |
| 20260901101538 | 70 | 219 | 0.0 | 0.0 | 0.00 | 0.06 | 0.00 | 96 | 1013.9 |
| 20260901101530 | 70 | 219 | 0.0 | 0.0 | 0.00 | 0.06 | 0.00 | 95 | 1013.5 |
| 20260901101509 | 70 | 219 | 0.0 | 0.0 | 0.00 | 0.06 | 0.00 | 95 | 1013.5 |
| 20260901101218 | 70 | 219 | 0.0 | 0.0 | 0.00 | 0.06 | 0.00 | 96 | 1013.9 |
| 20260901101113 | 70 | 219 | 0.0 | 0.0 | 0.00 | 0.06 | 0.00 | 95 | 1013.9 |
| 20260901101020 | 70 | 219 | 0.0 | 0.0 | 0.00 | 0.06 | 0.00 | 96 | 1013.9 |
| 20260901100901 | 70 | 219 | 0.0 | 0.0 | 0.00 | 0.06 | 0.00 | 95 | 1013.5 |
| 20260901100741 | 70 | 219 | 0.0 | 0.0 | 0.00 | 0.06 | 0.00 | 95 | 1013.9 |
| 20260901100705 | 70 | 219 | 0.0 | 0.0 | 0.00 | 0.06 | 0.00 | 95 | 1013.5 |
| 20260901100546 | 70 | 219 | 0.0 | 0.0 | 0.00 | 0.06 | 0.00 | 95 | 1013.9 |
| 20260901100441 | 70 | 219 | 0.0 | 0.0 | 0.00 | 0.06 | 0.00 | 95 | 1013.5 |
| 20260901100335 | 70 | 219 | 0.0 | 0.0 | 0.00 | 0.06 | 0.00 | 95 | 1013.9 |
| 20260901100229 | 71 | 219 | 0.0 | 0.0 | 0.00 | 0.06 | 0.00 | 95 | 1013.9 |
| 20260901100124 | 71 | 219 | 0.0 | 0.0 | 0.00 | 0.06 | 0.00 | 95 | 1013.9 |
| 20260901100018 | 71 | 219 | 0.0 | 0.0 | 0.00 | 0.06 | 0.00 | 95 | 1013.9 |
| 20260901095913 | 71 | 219 | 0.0 | 0.0 | 0.00 | 0.06 | 0.00 | 95 | 1013.9 |
| 20260901095806 | 71 | 219 | 0.0 | 0.0 | 0.00 | 0.06 | 0.00 | 95 | 1013.9 |
| 20260901095718 | 71 | 219 | 0.0 | 0.0 | 0.00 | 0.06 | 0.00 | 95 | 1013.9 |
| 20260901095701 | 71 | 219 | 0.0 | 0.0 | 0.00 | 0.06 | 0.00 | 95 | 1013.9 |
| 20260901095555 | 71 | 219 | 0.0 | 0.0 | 0.00 | 0.06 | 0.00 | 95 | 1013.9 |
| 20260901095450 | 71 | 219 | 0.0 | 0.0 | 0.00 | 0.06 | 0.00 | 95 | 1013.9 |
| 20260901095437 | 71 | 219 | 0.0 | 0.0 | 0.00 | 0.06 | 0.00 | 95 | 1013.9 |
| 20260901095429 | 71 | 219 | 0.0 | 0.0 | 0.00 | 0.06 | 0.00 | 95 | 1013.9 |
| 20260901095133 | 71 | 219 | 0.0 | 0.0 | 0.00 | 0.06 | 0.00 | 95 | 1013.9 |
| 20260901095026 | 71 | 219 | 0.0 | 0.0 | 0.00 | 0.06 | 0.00 | 95 | 1013.9 |
| 20260901094921 | 71 | 219 | 0.0 | 0.0 | 0.00 | 0.06 | 0.00 | 95 | 1013.5 |
| 20260901094815 | 71 | 219 | 0.0 | 0.0 | 0.00 | 0.06 | 0.00 | 95 | 1013.9 |
| 20260901094709 | 71 | 219 | 0.0 | 0.0 | 0.00 | 0.06 | 0.00 | 95 | 1013.9 |
| 20260901094604 | 71 | 219 | 0.0 | 0.0 | 0.00 | 0.06 | 0.00 | 95 | 1013.9 |
| 20260901094459 | 71 | 219 | 0.0 | 0.0 | 0.00 | 0.06 | 0.00 | 95 | 1013.9 |
| 20260901094432 | 71 | 219 | 0.0 | 0.0 | 0.00 | 0.06 | 0.00 | 95 | 1013.9 |
| 20260901094428 | 71 | 219 | 0.0 | 0.0 | 0.00 | 0.06 | 0.00 | 95 | 1013.9 |
| 20260901094419 | 71 | 219 | 0.0 | 0.0 | 0.00 | 0.06 | 0.00 | 95 | 1013.9 |
| 20260901094141 | 71 | 219 | 0.0 | 0.0 | 0.00 | 0.06 | 0.00 | 95 | 1013.9 |
| 20260901094036 | 71 | 219 | 0.0 | 0.0 | 0.00 | 0.06 | 0.00 | 95 | 1013.9 |
| 20260901093943 | 71 | 219 | 0.0 | 0.0 | 0.00 | 0.06 | 0.00 | 95 | 1013.9 |
| 20260901093824 | 71 | 206 | 0.0 | 0.0 | 0.00 | 0.06 | 0.00 | 95 | 1013.9 |
| 20260901093718 | 71 | 184 | 0.0 | 0.0 | 0.00 | 0.06 | 0.00 | 95 | 1013.9 |
| 20260901093652 | 71 | 185 | 0.0 | 0.0 | 0.00 | 0.06 | 0.00 | 95 | 1013.9 |
| 20260901093611 | 71 | 185 | 0.0 | 0.0 | 0.00 | 0.06 | 0.00 | 95 | 1013.9 |
| 20260901093506 | 71 | 186 | 0.0 | 0.0 | 0.00 | 0.06 | 0.00 | 95 | 1013.9 |
| 20260901093401 | 71 | 186 | 0.0 | 0.0 | 0.00 | 0.06 | 0.00 | 95 | 1013.9 |
| 20260901093256 | 71 | 186 | 0.0 | 0.0 | 0.00 | 0.06 | 0.00 | 95 | 1014.2 |
| 20260901093148 | 71 | 186 | 0.0 | 0.0 | 0.00 | 0.06 | 0.00 | 95 | 1014.2 |
| 20260901093043 | 71 | 185 | 0.0 | 0.0 | 0.00 | 0.06 | 0.00 | 95 | 1014.2 |
| 20260901092937 | 71 | 185 | 0.0 | 0.0 | 0.00 | 0.06 | 0.00 | 95 | 1014.2 |
| 20260901092910 | 71 | 185 | 0.0 | 0.0 | 0.00 | 0.06 | 0.00 | 95 | 1013.9 |
| 20260901092906 | 71 | 185 | 0.0 | 0.0 | 0.00 | 0.06 | 0.00 | 95 | 1013.9 |
| 20260901092858 | 71 | 185 | 0.0 | 0.0 | 0.00 | 0.06 | 0.00 | 95 | 1013.9 |
| 20260901092620 | 71 | 185 | 0.0 | 0.0 | 0.00 | 0.06 | 0.00 | 95 | 1013.9 |
| 20260901092514 | 71 | 184 | 0.0 | 0.0 | 0.00 | 0.06 | 0.00 | 95 | 1013.9 |
| 20260901092412 | 71 | 187 | 0.0 | 0.0 | 0.00 | 0.06 | 0.00 | 95 | 1013.9 |
| 20260901092403 | 71 | 187 | 0.0 | 1.0 | 0.00 | 0.06 | 0.00 | 95 | 1013.5 |
| 20260901092359 | 71 | 187 | 0.0 | 0.0 | 0.00 | 0.06 | 0.00 | 95 | 1014.2 |
| 20260901092350 | 71 | 187 | 0.0 | 1.0 | 0.00 | 0.06 | 0.00 | 95 | 1013.9 |
| 20260901092051 | 71 | 187 | 0.0 | 1.0 | 0.00 | 0.06 | 0.00 | 95 | 1013.5 |
| 20260901091946 | 71 | 186 | 0.0 | 2.0 | 0.00 | 0.06 | 0.00 | 95 | 1013.9 |
| 20260901091840 | 71 | 186 | 0.0 | 2.0 | 0.00 | 0.06 | 0.00 | 95 | 1013.9 |
| 20260901091735 | 71 | 163 | 0.0 | 2.0 | 0.00 | 0.06 | 0.00 | 95 | 1013.9 |
| 20260901091708 | 71 | 195 | 0.0 | 2.0 | 0.00 | 0.06 | 0.00 | 95 | 1013.5 |
| 20260901091657 | 71 | 170 | 0.0 | 2.0 | 0.00 | 0.06 | 0.00 | 95 | 1013.9 |
| 20260901091649 | 71 | 178 | 0.0 | 2.0 | 0.00 | 0.06 | 0.00 | 95 | 1013.9 |
| 20260901091427 | 71 | 178 | 0.0 | 2.0 | 0.00 | 0.06 | 0.00 | 95 | 1013.9 |
| 20260901091419 | 71 | 183 | 0.0 | 2.0 | 0.00 | 0.06 | 0.00 | 95 | 1013.9 |
| 20260901091410 | 71 | 191 | 0.0 | 2.0 | 0.00 | 0.06 | 0.00 | 95 | 1013.9 |
| 20260901091144 | 71 | 191 | 1.0 | 2.0 | 0.00 | 0.06 | 0.00 | 95 | 1013.9 |
| 20260901091140 | 71 | 191 | 0.0 | 2.0 | 0.00 | 0.06 | 0.00 | 95 | 1013.9 |
| 20260901091131 | 71 | 191 | 1.0 | 2.0 | 0.00 | 0.06 | 0.00 | 95 | 1013.9 |
| 20260901090910 | 71 | 172 | 0.0 | 2.0 | 0.00 | 0.06 | 0.00 | 95 | 1013.9 |
| 20260901090902 | 71 | 167 | 0.0 | 2.0 | 0.00 | 0.06 | 0.00 | 95 | 1014.2 |
| 20260901090853 | 71 | 198 | 0.0 | 2.0 | 0.00 | 0.06 | 0.00 | 95 | 1014.2 |
| 20260901090627 | 71 | 198 | 0.0 | 2.0 | 0.00 | 0.06 | 0.00 | 95 | 1013.9 |
| 20260901090623 | 71 | 198 | 0.0 | 2.0 | 0.00 | 0.06 | 0.00 | 95 | 1013.9 |
| 20260901090614 | 71 | 193 | 0.0 | 2.0 | 0.00 | 0.06 | 0.00 | 95 | 1013.9 |
| 20260901090351 | 71 | 194 | 0.0 | 2.0 | 0.00 | 0.06 | 0.00 | 95 | 1013.5 |
| 20260901090342 | 71 | 194 | 0.0 | 2.0 | 0.00 | 0.06 | 0.00 | 95 | 1013.5 |
| 20260901090119 | 71 | 195 | 0.0 | 2.0 | 0.00 | 0.06 | 0.00 | 95 | 1013.5 |
| 20260901085958 | 71 | 178 | 0.0 | 2.0 | 0.00 | 0.06 | 0.00 | 95 | 1013.5 |
| 20260901085853 | 71 | 177 | 0.0 | 2.0 | 0.00 | 0.06 | 0.00 | 95 | 1013.9 |
| 20260901085837 | 71 | 164 | 0.0 | 2.0 | 0.00 | 0.06 | 0.00 | 95 | 1013.5 |
| 20260901085833 | 71 | 167 | 0.0 | 2.0 | 0.00 | 0.06 | 0.00 | 95 | 1013.9 |
| 20260901085825 | 71 | 164 | 0.0 | 2.0 | 0.00 | 0.06 | 0.00 | 95 | 1013.9 |
| 20260901085534 | 71 | 171 | 0.0 | 2.0 | 0.00 | 0.06 | 0.00 | 95 | 1013.5 |
| 20260901085429 | 71 | 160 | 0.0 | 2.0 | 0.00 | 0.06 | 0.00 | 95 | 1013.9 |
| 20260901085324 | 71 | 160 | 0.0 | 2.0 | 0.00 | 0.06 | 0.00 | 95 | 1013.5 |
| 20260901085218 | 71 | 156 | 2.0 | 2.0 | 0.00 | 0.06 | 0.00 | 95 | 1013.5 |
| 20260901085112 | 71 | 191 | 0.0 | 0.0 | 0.00 | 0.06 | 0.00 | 95 | 1013.5 |
| 20260901085057 | 71 | 188 | 0.0 | 0.0 | 0.00 | 0.06 | 0.00 | 95 | 1013.5 |
| 20260901085019 | 71 | 191 | 0.0 | 0.0 | 0.00 | 0.06 | 0.00 | 95 | 1013.5 |
| 20260901084901 | 71 | 189 | 0.0 | 0.0 | 0.00 | 0.06 | 0.00 | 95 | 1013.9 |
| 20260901084755 | 71 | 190 | 0.0 | 0.0 | 0.00 | 0.06 | 0.00 | 95 | 1013.9 |
| 20260901084649 | 71 | 190 | 0.0 | 0.0 | 0.00 | 0.06 | 0.00 | 95 | 1013.9 |
| 20260901084543 | 71 | 189 | 0.0 | 1.0 | 0.00 | 0.06 | 0.00 | 95 | 1013.9 |
| 20260901084438 | 71 | 189 | 0.0 | 1.0 | 0.00 | 0.06 | 0.00 | 94 | 1013.9 |
| 20260901084331 | 71 | 189 | 0.0 | 1.0 | 0.00 | 0.06 | 0.00 | 95 | 1013.5 |
| 20260901084226 | 71 | 189 | 0.0 | 1.0 | 0.00 | 0.06 | 0.00 | 94 | 1013.5 |
| 20260901084121 | 71 | 190 | 0.0 | 1.0 | 0.00 | 0.06 | 0.00 | 94 | 1013.5 |
| 20260901084015 | 71 | 191 | 0.0 | 1.0 | 0.00 | 0.06 | 0.00 | 94 | 1013.5 |
| 20260901083909 | 71 | 190 | 0.0 | 1.0 | 0.00 | 0.06 | 0.00 | 94 | 1013.5 |
| 20260901083804 | 71 | 191 | 0.0 | 1.0 | 0.00 | 0.06 | 0.00 | 94 | 1013.5 |
| 20260901083657 | 71 | 191 | 0.0 | 1.0 | 0.00 | 0.06 | 0.00 | 95 | 1013.5 |
| 20260901083537 | 71 | 191 | 0.0 | 1.0 | 0.00 | 0.06 | 0.00 | 94 | 1013.5 |
| 20260901083446 | 71 | 191 | 0.0 | 1.0 | 0.00 | 0.06 | 0.00 | 94 | 1013.5 |
| 20260901083341 | 71 | 189 | 0.0 | 1.0 | 0.00 | 0.06 | 0.00 | 94 | 1013.5 |
| 20260901083235 | 71 | 190 | 0.0 | 1.0 | 0.00 | 0.06 | 0.00 | 94 | 1013.5 |
| 20260901083132 | 71 | 192 | 0.0 | 1.0 | 0.00 | 0.06 | 0.00 | 94 | 1013.5 |
| 20260901083025 | 71 | 192 | 0.0 | 2.0 | 0.00 | 0.06 | 0.00 | 94 | 1013.1 |
| 20260901082920 | 71 | 190 | 0.0 | 2.0 | 0.00 | 0.06 | 0.00 | 94 | 1013.5 |
| 20260901082815 | 71 | 190 | 0.0 | 2.0 | 0.00 | 0.06 | 0.00 | 94 | 1013.9 |
| 20260901082708 | 71 | 190 | 1.0 | 2.0 | 0.00 | 0.06 | 0.00 | 94 | 1013.9 |
| 20260901082603 | 71 | 191 | 0.0 | 2.0 | 0.00 | 0.06 | 0.00 | 94 | 1013.5 |
| 20260901082526 | 71 | 192 | 0.0 | 2.0 | 0.00 | 0.06 | 0.00 | 94 | 1013.5 |
| 20260901082457 | 71 | 190 | 0.0 | 2.0 | 0.00 | 0.06 | 0.00 | 94 | 1013.5 |
| 20260901082352 | 71 | 191 | 0.0 | 2.0 | 0.00 | 0.06 | 0.00 | 94 | 1013.5 |
| 20260901082245 | 71 | 191 | 0.0 | 2.0 | 0.00 | 0.06 | 0.00 | 94 | 1013.5 |
| 20260901082140 | 71 | 191 | 0.0 | 2.0 | 0.00 | 0.06 | 0.00 | 94 | 1013.5 |
| 20260901082035 | 71 | 191 | 0.0 | 1.0 | 0.00 | 0.06 | 0.00 | 94 | 1013.5 |
| 20260901082018 | 71 | 186 | 0.0 | 1.0 | 0.00 | 0.06 | 0.00 | 94 | 1013.5 |
| 20260901081929 | 71 | 186 | 0.0 | 1.0 | 0.00 | 0.06 | 0.00 | 94 | 1013.9 |
| 20260901081822 | 71 | 186 | 0.0 | 1.0 | 0.00 | 0.06 | 0.00 | 94 | 1013.5 |
| 20260901081716 | 71 | 186 | 0.0 | 1.0 | 0.00 | 0.06 | 0.00 | 94 | 1013.5 |
| 20260901081611 | 71 | 175 | 1.0 | 3.0 | 0.00 | 0.06 | 0.00 | 94 | 1013.5 |
| 20260901081512 | 71 | 174 | 1.0 | 3.0 | 0.00 | 0.06 | 0.00 | 94 | 1013.5 |
| 20260901081505 | 71 | 165 | 0.0 | 3.0 | 0.00 | 0.06 | 0.00 | 94 | 1013.5 |
| 20260901081359 | 71 | 180 | 0.0 | 3.0 | 0.00 | 0.06 | 0.00 | 94 | 1013.5 |
| 20260901081254 | 72 | 180 | 0.0 | 3.0 | 0.00 | 0.06 | 0.00 | 94 | 1013.5 |
| 20260901081147 | 72 | 165 | 0.0 | 3.0 | 0.00 | 0.06 | 0.00 | 94 | 1013.5 |
| 20260901081042 | 72 | 199 | 0.0 | 3.0 | 0.00 | 0.06 | 0.00 | 94 | 1013.5 |
| 20260901081004 | 72 | 165 | 0.0 | 3.0 | 0.00 | 0.06 | 0.00 | 94 | 1013.5 |
| 20260901080936 | 72 | 221 | 0.0 | 3.0 | 0.00 | 0.06 | 0.00 | 94 | 1013.5 |
| 20260901080831 | 72 | 221 | 0.0 | 3.0 | 0.00 | 0.06 | 0.00 | 94 | 1013.5 |
| 20260901080739 | 71 | 198 | 1.0 | 3.0 | 0.00 | 0.06 | 0.00 | 94 | 1013.1 |
| 20260901080735 | 72 | 221 | 0.0 | 3.0 | 0.00 | 0.06 | 0.00 | 94 | 1013.1 |
| 20260901080727 | 71 | 198 | 0.0 | 3.0 | 0.00 | 0.06 | 0.00 | 94 | 1013.1 |
| 20260901080718 | 71 | 198 | 1.0 | 3.0 | 0.00 | 0.06 | 0.00 | 94 | 1013.1 |
| 20260901080408 | 71 | 198 | 0.0 | 3.0 | 0.00 | 0.06 | 0.00 | 94 | 1013.5 |
| 20260901080315 | 72 | 198 | 0.0 | 3.0 | 0.00 | 0.06 | 0.00 | 94 | 1013.5 |
| 20260901080157 | 72 | 199 | 2.0 | 3.0 | 0.00 | 0.06 | 0.00 | 94 | 1013.5 |
| 20260901075944 | 71 | 193 | 0.0 | 1.0 | 0.00 | 0.06 | 0.00 | 94 | 1013.5 |
| 20260901075839 | 71 | 194 | 0.0 | 1.0 | 0.00 | 0.06 | 0.00 | 94 | 1013.5 |
| 20260901075734 | 71 | 193 | 0.0 | 1.0 | 0.00 | 0.06 | 0.00 | 94 | 1013.5 |
| 20260901075628 | 72 | 194 | 0.0 | 1.0 | 0.00 | 0.06 | 0.00 | 94 | 1013.5 |
| 20260901075522 | 72 | 194 | 0.0 | 1.0 | 0.00 | 0.06 | 0.00 | 94 | 1013.5 |
| 20260901075445 | 72 | 195 | 0.0 | 1.0 | 0.00 | 0.06 | 0.00 | 94 | 1013.5 |
| 20260901075417 | 72 | 196 | 0.0 | 1.0 | 0.00 | 0.06 | 0.00 | 94 | 1013.5 |
| 20260901075310 | 72 | 193 | 0.0 | 1.0 | 0.00 | 0.06 | 0.00 | 94 | 1013.5 |
| 20260901075205 | 72 | 193 | 0.0 | 1.0 | 0.00 | 0.06 | 0.00 | 94 | 1013.5 |
| 20260901075059 | 72 | 193 | 0.0 | 1.0 | 0.00 | 0.06 | 0.00 | 94 | 1013.5 |
| 20260901074938 | 72 | 193 | 0.0 | 0.0 | 0.00 | 0.06 | 0.00 | 94 | 1013.5 |
| 20260901074848 | 72 | 193 | 0.0 | 0.0 | 0.00 | 0.06 | 0.00 | 94 | 1013.1 |
| 20260901074741 | 72 | 195 | 0.0 | 0.0 | 0.00 | 0.06 | 0.00 | 94 | 1013.5 |
| 20260901074636 | 72 | 201 | 0.0 | 0.0 | 0.00 | 0.06 | 0.00 | 94 | 1013.5 |
| 20260901074530 | 71 | 191 | 0.0 | 0.0 | 0.00 | 0.06 | 0.00 | 94 | 1013.5 |
| 20260901074424 | 71 | 191 | 0.0 | 0.0 | 0.00 | 0.06 | 0.00 | 94 | 1013.5 |
| 20260901074319 | 71 | 191 | 0.0 | 0.0 | 0.00 | 0.06 | 0.00 | 94 | 1013.5 |
| 20260901074212 | 71 | 191 | 0.0 | 0.0 | 0.00 | 0.06 | 0.00 | 94 | 1013.5 |
| 20260901074151 | 71 | 192 | 0.0 | 0.0 | 0.00 | 0.06 | 0.00 | 94 | 1013.1 |
| 20260901074142 | 71 | 186 | 0.0 | 0.0 | 0.00 | 0.06 | 0.00 | 94 | 1013.5 |
| 20260901073855 | 71 | 186 | 0.0 | 2.0 | 0.00 | 0.06 | 0.00 | 94 | 1013.5 |
| 20260901073750 | 72 | 186 | 0.0 | 2.0 | 0.00 | 0.06 | 0.00 | 94 | 1013.5 |
| 20260901073657 | 72 | 186 | 0.0 | 2.0 | 0.00 | 0.06 | 0.00 | 94 | 1013.5 |
| 20260901073539 | 72 | 186 | 0.0 | 2.0 | 0.00 | 0.06 | 0.00 | 94 | 1013.5 |
| 20260901073418 | 72 | 186 | 0.0 | 2.0 | 0.00 | 0.06 | 0.00 | 94 | 1013.5 |
| 20260901073327 | 72 | 186 | 0.0 | 2.0 | 0.00 | 0.06 | 0.00 | 94 | 1013.5 |
| 20260901073222 | 72 | 186 | 0.0 | 2.0 | 0.00 | 0.06 | 0.00 | 94 | 1013.5 |
| 20260901073115 | 72 | 186 | 0.0 | 2.0 | 0.00 | 0.06 | 0.00 | 94 | 1013.5 |
| 20260901073009 | 72 | 186 | 0.0 | 3.0 | 0.00 | 0.06 | 0.00 | 94 | 1013.5 |
| 20260901072909 | 72 | 186 | 1.0 | 3.0 | 0.00 | 0.06 | 0.00 | 94 | 1013.5 |
| 20260901072903 | 72 | 186 | 1.0 | 3.0 | 0.00 | 0.06 | 0.00 | 94 | 1013.5 |
| 20260901072758 | 72 | 186 | 1.0 | 3.0 | 0.00 | 0.06 | 0.00 | 94 | 1013.5 |
| 20260901072652 | 72 | 167 | 1.0 | 3.0 | 0.00 | 0.06 | 0.00 | 93 | 1013.5 |
| 20260901072546 | 72 | 186 | 0.0 | 3.0 | 0.00 | 0.06 | 0.00 | 94 | 1013.5 |
| 20260901072440 | 72 | 185 | 0.0 | 3.0 | 0.00 | 0.06 | 0.00 | 94 | 1013.5 |
| 20260901072404 | 72 | 180 | 0.0 | 3.0 | 0.00 | 0.06 | 0.00 | 94 | 1013.5 |
| 20260901072335 | 72 | 183 | 0.0 | 3.0 | 0.00 | 0.06 | 0.00 | 94 | 1013.5 |
| 20260901072242 | 72 | 199 | 1.0 | 3.0 | 0.00 | 0.06 | 0.00 | 94 | 1013.5 |
| 20260901072124 | 72 | 213 | 1.0 | 3.0 | 0.00 | 0.06 | 0.00 | 94 | 1013.5 |
| 20260901072017 | 72 | 184 | 0.0 | 3.0 | 0.00 | 0.06 | 0.00 | 94 | 1013.5 |
| 20260901071912 | 71 | 203 | 2.0 | 3.0 | 0.00 | 0.06 | 0.00 | 94 | 1013.5 |
| 20260901071857 | 71 | 189 | 2.0 | 3.0 | 0.00 | 0.06 | 0.00 | 94 | 1013.5 |
| 20260901071819 | 71 | 211 | 1.0 | 3.0 | 0.00 | 0.06 | 0.00 | 94 | 1013.5 |
| 20260901071701 | 71 | 205 | 1.0 | 3.0 | 0.00 | 0.06 | 0.00 | 94 | 1013.5 |
| 20260901071624 | 71 | 198 | 1.0 | 2.0 | 0.00 | 0.06 | 0.00 | 94 | 1013.5 |
| 20260901071620 | 71 | 207 | 0.0 | 3.0 | 0.00 | 0.06 | 0.00 | 94 | 1013.5 |
| 20260901071611 | 71 | 202 | 1.0 | 2.0 | 0.00 | 0.06 | 0.00 | 94 | 1013.5 |
| 20260901071343 | 71 | 188 | 2.0 | 2.0 | 0.00 | 0.06 | 0.00 | 94 | 1013.5 |
| 20260901071237 | 71 | 184 | 0.0 | 2.0 | 0.00 | 0.06 | 0.00 | 94 | 1013.9 |
| 20260901071132 | 71 | 186 | 0.0 | 2.0 | 0.00 | 0.06 | 0.00 | 94 | 1013.5 |
| 20260901071027 | 71 | 200 | 0.0 | 1.0 | 0.00 | 0.06 | 0.00 | 94 | 1013.5 |
| 20260901070933 | 71 | 201 | 1.0 | 1.0 | 0.00 | 0.06 | 0.00 | 94 | 1013.5 |
| 20260901070843 | 71 | 201 | 1.0 | 1.0 | 0.00 | 0.06 | 0.00 | 94 | 1013.5 |
| 20260901070815 | 71 | 202 | 1.0 | 1.0 | 0.00 | 0.06 | 0.00 | 94 | 1013.5 |
| 20260901070709 | 71 | 202 | 0.0 | 0.0 | 0.00 | 0.06 | 0.00 | 94 | 1013.5 |
| 20260901070604 | 71 | 202 | 0.0 | 0.0 | 0.00 | 0.06 | 0.00 | 94 | 1013.9 |
| 20260901070458 | 71 | 202 | 0.0 | 0.0 | 0.00 | 0.06 | 0.00 | 94 | 1013.9 |
| 20260901070337 | 71 | 202 | 0.0 | 0.0 | 0.00 | 0.06 | 0.00 | 94 | 1013.5 |
| 20260901070246 | 71 | 202 | 0.0 | 0.0 | 0.00 | 0.06 | 0.00 | 94 | 1013.5 |
| 20260901070141 | 71 | 202 | 0.0 | 0.0 | 0.00 | 0.06 | 0.00 | 94 | 1013.5 |
| 20260901070034 | 71 | 202 | 0.0 | 0.0 | 0.00 | 0.06 | 0.00 | 94 | 1013.5 |
| 20260901065929 | 71 | 202 | 0.0 | 0.0 | 0.00 | 0.06 | 0.00 | 94 | 1013.5 |
| 20260901065823 | 71 | 202 | 0.0 | 0.0 | 0.00 | 0.06 | 0.00 | 94 | 1013.9 |
| 20260901065718 | 71 | 202 | 0.0 | 0.0 | 0.00 | 0.06 | 0.00 | 94 | 1013.5 |
| 20260901065612 | 71 | 202 | 0.0 | 0.0 | 0.00 | 0.06 | 0.00 | 94 | 1013.9 |
| 20260901065506 | 71 | 201 | 0.0 | 0.0 | 0.00 | 0.06 | 0.00 | 94 | 1013.5 |
| 20260901065401 | 71 | 201 | 0.0 | 0.0 | 0.00 | 0.06 | 0.00 | 94 | 1013.5 |
| 20260901065323 | 71 | 201 | 0.0 | 0.0 | 0.00 | 0.06 | 0.00 | 94 | 1013.5 |
| 20260901065255 | 71 | 201 | 0.0 | 0.0 | 0.00 | 0.06 | 0.00 | 94 | 1013.5 |
| 20260901065149 | 71 | 201 | 0.0 | 0.0 | 0.00 | 0.06 | 0.00 | 94 | 1013.5 |
| 20260901065044 | 71 | 201 | 0.0 | 0.0 | 0.00 | 0.06 | 0.00 | 93 | 1013.1 |
| 20260901064938 | 71 | 202 | 0.0 | 0.0 | 0.00 | 0.06 | 0.00 | 93 | 1013.5 |
| 20260901064832 | 71 | 195 | 0.0 | 0.0 | 0.00 | 0.06 | 0.00 | 94 | 1013.5 |
| 20260901064816 | 71 | 194 | 0.0 | 0.0 | 0.00 | 0.06 | 0.00 | 94 | 1013.5 |
| 20260901064726 | 71 | 184 | 0.0 | 0.0 | 0.00 | 0.06 | 0.00 | 94 | 1013.5 |
| 20260901064621 | 71 | 186 | 0.0 | 0.0 | 0.00 | 0.06 | 0.00 | 94 | 1013.5 |
| 20260901064515 | 71 | 186 | 0.0 | 0.0 | 0.00 | 0.06 | 0.00 | 93 | 1013.9 |
| 20260901064409 | 71 | 186 | 0.0 | 0.0 | 0.00 | 0.06 | 0.00 | 93 | 1013.9 |
| 20260901064310 | 71 | 186 | 0.0 | 0.0 | 0.00 | 0.06 | 0.00 | 94 | 1013.5 |
| 20260901064303 | 71 | 185 | 0.0 | 0.0 | 0.00 | 0.06 | 0.00 | 93 | 1013.5 |
| 20260901064158 | 71 | 185 | 0.0 | 0.0 | 0.00 | 0.06 | 0.00 | 93 | 1013.5 |
| 20260901064053 | 72 | 170 | 0.0 | 0.0 | 0.00 | 0.06 | 0.00 | 93 | 1013.5 |
| 20260901063946 | 72 | 182 | 0.0 | 0.0 | 0.00 | 0.06 | 0.00 | 93 | 1013.5 |
| 20260901063841 | 72 | 189 | 0.0 | 0.0 | 0.00 | 0.06 | 0.00 | 93 | 1013.5 |
| 20260901063804 | 72 | 189 | 0.0 | 0.0 | 0.00 | 0.06 | 0.00 | 94 | 1013.5 |
| 20260901063735 | 72 | 189 | 0.0 | 0.0 | 0.00 | 0.06 | 0.00 | 93 | 1013.5 |
| 20260901063630 | 71 | 191 | 0.0 | 0.0 | 0.00 | 0.06 | 0.00 | 94 | 1013.5 |
| 20260901063542 | 72 | 183 | 0.0 | 0.0 | 0.00 | 0.06 | 0.00 | 93 | 1013.5 |
| 20260901063533 | 72 | 183 | 0.0 | 0.0 | 0.00 | 0.06 | 0.00 | 93 | 1013.5 |
| 20260901063523 | 71 | 191 | 0.0 | 0.0 | 0.00 | 0.06 | 0.00 | 93 | 1013.5 |
| 20260901063203 | 71 | 184 | 0.0 | 0.0 | 0.00 | 0.06 | 0.00 | 93 | 1013.5 |
| 20260901063057 | 72 | 185 | 0.0 | 0.0 | 0.00 | 0.06 | 0.00 | 93 | 1013.5 |
| 20260901062952 | 72 | 190 | 0.0 | 0.0 | 0.00 | 0.06 | 0.00 | 93 | 1013.5 |
| 20260901062845 | 72 | 190 | 0.0 | 0.0 | 0.00 | 0.06 | 0.00 | 93 | 1013.5 |
| 20260901062758 | 72 | 191 | 0.0 | 0.0 | 0.00 | 0.06 | 0.00 | 93 | 1013.5 |
| 20260901062740 | 72 | 190 | 0.0 | 0.0 | 0.00 | 0.06 | 0.00 | 93 | 1013.5 |
| 20260901062634 | 72 | 190 | 0.0 | 0.0 | 0.00 | 0.06 | 0.00 | 93 | 1013.5 |
| 20260901062541 | 72 | 191 | 0.0 | 0.0 | 0.00 | 0.06 | 0.00 | 93 | 1013.5 |
| 20260901062423 | 72 | 191 | 0.0 | 0.0 | 0.00 | 0.06 | 0.00 | 92 | 1013.5 |
| 20260901062331 | 72 | 191 | 0.0 | 0.0 | 0.00 | 0.06 | 0.00 | 92 | 1013.5 |
| 20260901062251 | 72 | 191 | 0.0 | 0.0 | 0.00 | 0.06 | 0.00 | 92 | 1013.5 |
| 20260901062212 | 72 | 191 | 0.0 | 0.0 | 0.00 | 0.06 | 0.00 | 92 | 1013.5 |
| 20260901062105 | 72 | 191 | 0.0 | 0.0 | 0.00 | 0.06 | 0.00 | 92 | 1013.9 |
| 20260901062000 | 72 | 191 | 0.0 | 0.0 | 0.00 | 0.06 | 0.00 | 92 | 1013.5 |
| 20260901061855 | 72 | 191 | 0.0 | 0.0 | 0.00 | 0.06 | 0.00 | 92 | 1013.5 |
| 20260901061749 | 72 | 191 | 0.0 | 0.0 | 0.00 | 0.06 | 0.00 | 92 | 1013.5 |
| 20260901061643 | 72 | 191 | 0.0 | 0.0 | 0.00 | 0.06 | 0.00 | 92 | 1013.5 |
| 20260901061537 | 72 | 191 | 0.0 | 0.0 | 0.00 | 0.06 | 0.00 | 92 | 1013.9 |
| 20260901061431 | 72 | 191 | 0.0 | 0.0 | 0.00 | 0.06 | 0.00 | 92 | 1013.9 |
| 20260901061326 | 72 | 191 | 0.0 | 0.0 | 0.00 | 0.06 | 0.00 | 92 | 1013.9 |
| 20260901061238 | 72 | 191 | 0.0 | 0.0 | 0.00 | 0.06 | 0.00 | 92 | 1013.9 |
| 20260901061220 | 72 | 191 | 0.0 | 0.0 | 0.00 | 0.06 | 0.00 | 92 | 1013.5 |
| 20260901061114 | 72 | 191 | 0.0 | 0.0 | 0.00 | 0.06 | 0.00 | 92 | 1013.9 |
| 20260901061022 | 72 | 191 | 0.0 | 0.0 | 0.00 | 0.06 | 0.00 | 92 | 1013.5 |
| 20260901060902 | 72 | 192 | 0.0 | 0.0 | 0.00 | 0.06 | 0.00 | 92 | 1013.5 |
| 20260901060758 | 73 | 192 | 0.0 | 0.0 | 0.00 | 0.06 | 0.00 | 92 | 1013.9 |
| 20260901060730 | 73 | 192 | 0.0 | 0.0 | 0.00 | 0.06 | 0.00 | 92 | 1013.5 |
| 20260901060651 | 73 | 192 | 0.0 | 0.0 | 0.00 | 0.06 | 0.00 | 92 | 1013.5 |
| 20260901060546 | 73 | 196 | 0.0 | 0.0 | 0.00 | 0.06 | 0.00 | 92 | 1013.9 |
| 20260901060439 | 73 | 196 | 0.0 | 0.0 | 0.00 | 0.06 | 0.00 | 92 | 1013.9 |
| 20260901060334 | 73 | 196 | 0.0 | 0.0 | 0.00 | 0.06 | 0.00 | 92 | 1013.9 |
| 20260901060228 | 73 | 196 | 0.0 | 0.0 | 0.00 | 0.06 | 0.00 | 92 | 1013.9 |
| 20260901060123 | 73 | 192 | 0.0 | 0.0 | 0.00 | 0.06 | 0.00 | 92 | 1013.9 |
| 20260901060018 | 73 | 196 | 0.0 | 0.0 | 0.00 | 0.06 | 0.00 | 91 | 1013.9 |
| 20260901055953 | 73 | 191 | 0.0 | 0.0 | 0.00 | 0.06 | 0.00 | 91 | 1013.9 |
| 20260901055946 | 73 | 196 | 0.0 | 0.0 | 0.00 | 0.06 | 0.00 | 91 | 1013.9 |
| 20260901055938 | 73 | 190 | 0.0 | 0.0 | 0.00 | 0.06 | 0.00 | 91 | 1014.2 |
| 20260901055640 | 73 | 191 | 0.0 | 0.0 | 0.00 | 0.06 | 0.00 | 91 | 1013.9 |
| 20260901055535 | 73 | 190 | 0.0 | 0.0 | 0.00 | 0.06 | 0.00 | 92 | 1014.2 |
| 20260901055429 | 73 | 190 | 0.0 | 0.0 | 0.00 | 0.06 | 0.00 | 91 | 1013.9 |
| 20260901055323 | 73 | 191 | 0.0 | 0.0 | 0.00 | 0.06 | 0.00 | 91 | 1013.9 |
| 20260901055217 | 73 | 190 | 0.0 | 0.0 | 0.00 | 0.06 | 0.00 | 91 | 1013.9 |
| 20260901055112 | 73 | 190 | 0.0 | 0.0 | 0.00 | 0.06 | 0.00 | 91 | 1014.2 |
| 20260901055006 | 73 | 190 | 0.0 | 0.0 | 0.00 | 0.06 | 0.00 | 91 | 1014.2 |
| 20260901054901 | 73 | 190 | 0.0 | 0.0 | 0.00 | 0.06 | 0.00 | 91 | 1013.9 |
| 20260901054755 | 73 | 190 | 0.0 | 0.0 | 0.00 | 0.06 | 0.00 | 91 | 1013.9 |
| 20260901054706 | 73 | 190 | 0.0 | 0.0 | 0.00 | 0.06 | 0.00 | 91 | 1013.9 |
| 20260901054649 | 73 | 190 | 0.0 | 0.0 | 0.00 | 0.06 | 0.00 | 91 | 1013.9 |
| 20260901054543 | 73 | 190 | 0.0 | 0.0 | 0.00 | 0.06 | 0.00 | 91 | 1013.9 |
| 20260901054438 | 73 | 190 | 0.0 | 0.0 | 0.00 | 0.06 | 0.00 | 91 | 1013.9 |
| 20260901054332 | 73 | 190 | 0.0 | 0.0 | 0.00 | 0.06 | 0.00 | 91 | 1014.2 |
| 20260901054226 | 73 | 190 | 0.0 | 0.0 | 0.00 | 0.06 | 0.00 | 91 | 1014.2 |
| 20260901054200 | 73 | 190 | 0.0 | 0.0 | 0.00 | 0.06 | 0.00 | 90 | 1014.2 |
| 20260901054121 | 73 | 190 | 0.0 | 0.0 | 0.00 | 0.06 | 0.00 | 91 | 1014.2 |
| 20260901054014 | 73 | 190 | 0.0 | 0.0 | 0.00 | 0.06 | 0.00 | 90 | 1013.9 |
| 20260901053909 | 73 | 191 | 0.0 | 0.0 | 0.00 | 0.06 | 0.00 | 91 | 1013.9 |
| 20260901053804 | 73 | 188 | 0.0 | 0.0 | 0.00 | 0.06 | 0.00 | 90 | 1014.2 |
| 20260901053657 | 73 | 189 | 0.0 | 0.0 | 0.00 | 0.06 | 0.00 | 90 | 1013.9 |
| 20260901053552 | 73 | 189 | 0.0 | 0.0 | 0.00 | 0.06 | 0.00 | 90 | 1014.2 |
| 20260901053447 | 73 | 189 | 0.0 | 0.0 | 0.00 | 0.06 | 0.00 | 90 | 1014.2 |
| 20260901053340 | 73 | 189 | 0.0 | 0.0 | 0.00 | 0.06 | 0.00 | 90 | 1013.9 |
| 20260901053235 | 73 | 189 | 0.0 | 0.0 | 0.00 | 0.06 | 0.00 | 90 | 1014.2 |
| 20260901053147 | 73 | 189 | 0.0 | 0.0 | 0.00 | 0.06 | 0.00 | 90 | 1014.2 |
| 20260901053129 | 74 | 189 | 0.0 | 0.0 | 0.00 | 0.06 | 0.00 | 90 | 1014.2 |
| 20260901053023 | 74 | 189 | 0.0 | 0.0 | 0.00 | 0.06 | 0.00 | 90 | 1014.2 |
| 20260901052917 | 74 | 189 | 0.0 | 0.0 | 0.00 | 0.06 | 0.00 | 90 | 1013.9 |
| 20260901052811 | 74 | 189 | 0.0 | 0.0 | 0.00 | 0.06 | 0.00 | 90 | 1014.2 |
| 20260901052706 | 74 | 189 | 0.0 | 0.0 | 0.00 | 0.06 | 0.00 | 90 | 1013.9 |
| 20260901052640 | 74 | 189 | 0.0 | 0.0 | 0.00 | 0.06 | 0.00 | 90 | 1013.9 |
| 20260901052601 | 74 | 189 | 0.0 | 0.0 | 0.00 | 0.06 | 0.00 | 90 | 1014.2 |
| 20260901052454 | 74 | 189 | 0.0 | 0.0 | 0.00 | 0.06 | 0.00 | 90 | 1013.9 |
| 20260901052411 | 74 | 189 | 0.0 | 0.0 | 0.00 | 0.06 | 0.00 | 90 | 1013.9 |
| 20260901052403 | 74 | 186 | 0.0 | 0.0 | 0.00 | 0.06 | 0.00 | 90 | 1014.2 |
| 20260901052352 | 74 | 184 | 0.0 | 0.0 | 0.00 | 0.06 | 0.00 | 90 | 1014.2 |
| 20260901052032 | 74 | 181 | 0.0 | 0.0 | 0.00 | 0.06 | 0.00 | 90 | 1014.2 |
| 20260901051926 | 74 | 189 | 0.0 | 0.0 | 0.00 | 0.06 | 0.00 | 90 | 1014.2 |
| 20260901051821 | 74 | 184 | 0.0 | 0.0 | 0.00 | 0.06 | 0.00 | 90 | 1013.9 |
| 20260901051714 | 74 | 184 | 0.0 | 0.0 | 0.00 | 0.06 | 0.00 | 90 | 1013.9 |
| 20260901051626 | 74 | 184 | 0.0 | 0.0 | 0.00 | 0.06 | 0.00 | 90 | 1013.9 |
| 20260901051609 | 74 | 184 | 0.0 | 0.0 | 0.00 | 0.06 | 0.00 | 89 | 1013.9 |
| 20260901051503 | 74 | 182 | 0.0 | 0.0 | 0.00 | 0.06 | 0.00 | 90 | 1013.9 |
| 20260901051358 | 74 | 183 | 0.0 | 0.0 | 0.00 | 0.06 | 0.00 | 89 | 1013.9 |
| 20260901051251 | 74 | 181 | 0.0 | 0.0 | 0.00 | 0.06 | 0.00 | 89 | 1013.9 |
| 20260901051146 | 74 | 184 | 0.0 | 0.0 | 0.00 | 0.06 | 0.00 | 89 | 1013.9 |
| 20260901051120 | 74 | 183 | 0.0 | 0.0 | 0.00 | 0.06 | 0.00 | 89 | 1013.9 |
| 20260901051041 | 74 | 183 | 0.0 | 0.0 | 0.00 | 0.06 | 0.00 | 89 | 1013.9 |
| 20260901050935 | 74 | 199 | 0.0 | 0.0 | 0.00 | 0.06 | 0.00 | 89 | 1013.9 |
| 20260901050829 | 74 | 192 | 0.0 | 0.0 | 0.00 | 0.06 | 0.00 | 89 | 1014.2 |
| 20260901050724 | 74 | 198 | 0.0 | 0.0 | 0.00 | 0.06 | 0.00 | 89 | 1013.9 |
| 20260901050618 | 74 | 195 | 0.0 | 0.0 | 0.00 | 0.06 | 0.00 | 89 | 1013.9 |
| 20260901050512 | 74 | 179 | 0.0 | 0.0 | 0.00 | 0.06 | 0.00 | 89 | 1013.9 |
| 20260901050419 | 74 | 198 | 0.0 | 0.0 | 0.00 | 0.06 | 0.00 | 89 | 1014.2 |
| 20260901050313 | 74 | 191 | 0.0 | 0.0 | 0.00 | 0.06 | 0.00 | 89 | 1014.2 |
| 20260901050155 | 74 | 200 | 0.0 | 0.0 | 0.00 | 0.06 | 0.00 | 89 | 1014.2 |
| 20260901050106 | 74 | 200 | 0.0 | 0.0 | 0.00 | 0.06 | 0.00 | 89 | 1013.9 |
| 20260901045943 | 74 | 202 | 0.0 | 0.0 | 0.00 | 0.06 | 0.00 | 89 | 1013.9 |
| 20260901045841 | 74 | 199 | 0.0 | 0.0 | 0.00 | 0.06 | 0.00 | 89 | 1013.9 |
| 20260901045832 | 74 | 199 | 0.0 | 0.0 | 0.00 | 0.06 | 0.00 | 89 | 1013.9 |
| 20260901045826 | 74 | 199 | 0.0 | 0.0 | 0.00 | 0.06 | 0.00 | 89 | 1013.9 |
| 20260901045817 | 74 | 199 | 0.0 | 0.0 | 0.00 | 0.06 | 0.00 | 89 | 1013.9 |
| 20260901045520 | 74 | 219 | 0.0 | 0.0 | 0.00 | 0.06 | 0.00 | 89 | 1013.9 |
| 20260901045415 | 74 | 220 | 0.0 | 0.0 | 0.00 | 0.06 | 0.00 | 89 | 1013.9 |
| 20260901045328 | 74 | 220 | 0.0 | 0.0 | 0.00 | 0.06 | 0.00 | 89 | 1013.9 |
| 20260901045319 | 74 | 220 | 0.0 | 0.0 | 0.00 | 0.06 | 0.00 | 89 | 1013.9 |
| 20260901045309 | 74 | 220 | 0.0 | 0.0 | 0.00 | 0.06 | 0.00 | 89 | 1013.9 |
| 20260901044952 | 74 | 220 | 0.0 | 0.0 | 0.00 | 0.06 | 0.00 | 89 | 1013.9 |
| 20260901044847 | 74 | 220 | 0.0 | 1.0 | 0.00 | 0.06 | 0.00 | 89 | 1014.2 |
| 20260901044741 | 74 | 220 | 0.0 | 2.0 | 0.00 | 0.06 | 0.00 | 89 | 1013.9 |
| 20260901044635 | 74 | 221 | 0.0 | 2.0 | 0.00 | 0.06 | 0.00 | 88 | 1013.9 |
| 20260901044529 | 74 | 221 | 0.0 | 2.0 | 0.00 | 0.06 | 0.00 | 88 | 1013.9 |
| 20260901044423 | 74 | 192 | 0.0 | 3.0 | 0.00 | 0.06 | 0.00 | 88 | 1013.9 |
| 20260901044322 | 74 | 184 | 0.0 | 3.0 | 0.00 | 0.06 | 0.00 | 89 | 1013.9 |
| 20260901044313 | 74 | 191 | 0.0 | 3.0 | 0.00 | 0.06 | 0.00 | 89 | 1013.9 |
| 20260901044309 | 74 | 184 | 0.0 | 3.0 | 0.00 | 0.06 | 0.00 | 89 | 1013.9 |
| 20260901044300 | 74 | 190 | 0.0 | 3.0 | 0.00 | 0.06 | 0.00 | 88 | 1013.9 |
| 20260901044002 | 74 | 191 | 0.0 | 3.0 | 0.00 | 0.06 | 0.00 | 88 | 1013.9 |
| 20260901043857 | 74 | 186 | 1.0 | 3.0 | 0.00 | 0.06 | 0.00 | 88 | 1014.2 |
| 20260901043752 | 74 | 210 | 1.0 | 3.0 | 0.00 | 0.06 | 0.00 | 88 | 1013.9 |
| 20260901043645 | 74 | 205 | 2.0 | 3.0 | 0.00 | 0.06 | 0.00 | 88 | 1014.2 |
| 20260901043540 | 74 | 198 | 1.0 | 3.0 | 0.00 | 0.06 | 0.00 | 88 | 1013.9 |
| 20260901043434 | 74 | 198 | 1.0 | 3.0 | 0.00 | 0.06 | 0.00 | 88 | 1014.2 |
| 20260901043328 | 74 | 206 | 1.0 | 3.0 | 0.00 | 0.06 | 0.00 | 88 | 1013.9 |
| 20260901043223 | 74 | 210 | 1.0 | 3.0 | 0.00 | 0.06 | 0.00 | 88 | 1013.9 |
| 20260901043117 | 74 | 192 | 2.0 | 3.0 | 0.00 | 0.06 | 0.00 | 88 | 1013.9 |
| 20260901043029 | 74 | 187 | 2.0 | 3.0 | 0.00 | 0.06 | 0.00 | 88 | 1014.2 |
| 20260901043011 | 74 | 181 | 1.0 | 3.0 | 0.00 | 0.06 | 0.00 | 88 | 1014.2 |
| 20260901042906 | 74 | 191 | 2.0 | 3.0 | 0.00 | 0.06 | 0.00 | 88 | 1013.9 |
| 20260901042801 | 74 | 185 | 2.0 | 3.0 | 0.00 | 0.06 | 0.00 | 89 | 1013.9 |
| 20260901042655 | 73 | 186 | 2.0 | 3.0 | 0.00 | 0.06 | 0.00 | 89 | 1013.9 |
| 20260901042548 | 73 | 173 | 1.0 | 3.0 | 0.00 | 0.06 | 0.00 | 88 | 1013.9 |
| 20260901042522 | 73 | 173 | 2.0 | 3.0 | 0.00 | 0.06 | 0.00 | 88 | 1013.9 |
| 20260901042443 | 74 | 208 | 1.0 | 3.0 | 0.00 | 0.06 | 0.00 | 88 | 1013.9 |
| 20260901042337 | 74 | 205 | 1.0 | 4.0 | 0.00 | 0.06 | 0.00 | 88 | 1013.9 |
| 20260901042232 | 74 | 196 | 1.0 | 4.0 | 0.00 | 0.06 | 0.00 | 88 | 1013.9 |
| 20260901042125 | 74 | 195 | 2.0 | 4.0 | 0.00 | 0.06 | 0.00 | 88 | 1013.9 |
| 20260901042019 | 74 | 194 | 2.0 | 4.0 | 0.00 | 0.06 | 0.00 | 88 | 1013.9 |
| 20260901041914 | 74 | 206 | 2.0 | 4.0 | 0.00 | 0.06 | 0.00 | 88 | 1013.9 |
| 20260901041809 | 73 | 196 | 2.0 | 4.0 | 0.00 | 0.06 | 0.00 | 88 | 1013.9 |
| 20260901041744 | 73 | 199 | 1.0 | 4.0 | 0.00 | 0.06 | 0.00 | 88 | 1014.2 |
| 20260901041738 | 73 | 199 | 1.0 | 4.0 | 0.00 | 0.06 | 0.00 | 88 | 1014.2 |
| 20260901041729 | 73 | 189 | 2.0 | 4.0 | 0.00 | 0.06 | 0.00 | 88 | 1013.9 |
| 20260901041451 | 73 | 201 | 2.0 | 4.0 | 0.00 | 0.06 | 0.00 | 88 | 1014.2 |
| 20260901041358 | 73 | 189 | 1.0 | 3.0 | 0.00 | 0.06 | 0.00 | 88 | 1013.9 |
| 20260901041243 | 73 | 206 | 1.0 | 4.0 | 0.00 | 0.06 | 0.00 | 88 | 1013.9 |
| 20260901041239 | 73 | 205 | 2.0 | 4.0 | 0.00 | 0.06 | 0.00 | 88 | 1013.9 |
| 20260901041231 | 73 | 205 | 2.0 | 4.0 | 0.00 | 0.06 | 0.00 | 88 | 1013.9 |
| 20260901041222 | 73 | 205 | 2.0 | 4.0 | 0.00 | 0.06 | 0.00 | 88 | 1013.9 |
| 20260901040922 | 73 | 206 | 2.0 | 4.0 | 0.00 | 0.06 | 0.00 | 88 | 1013.9 |
| 20260901040817 | 74 | 206 | 0.0 | 4.0 | 0.00 | 0.06 | 0.00 | 88 | 1014.2 |
| 20260901040711 | 74 | 205 | 1.0 | 4.0 | 0.00 | 0.06 | 0.00 | 87 | 1013.9 |
| 20260901040605 | 74 | 152 | 2.0 | 4.0 | 0.00 | 0.06 | 0.00 | 87 | 1014.2 |
| 20260901040459 | 73 | 202 | 1.0 | 6.0 | 0.00 | 0.06 | 0.00 | 87 | 1013.9 |
| 20260901040353 | 73 | 197 | 3.0 | 6.0 | 0.00 | 0.06 | 0.00 | 88 | 1013.9 |
| 20260901040300 | 73 | 178 | 3.0 | 6.0 | 0.00 | 0.06 | 0.00 | 88 | 1013.9 |
| 20260901040142 | 73 | 170 | 1.0 | 6.0 | 0.00 | 0.06 | 0.00 | 88 | 1013.9 |
| 20260901040037 | 73 | 212 | 2.0 | 6.0 | 0.00 | 0.06 | 0.00 | 88 | 1013.9 |
| 20260901035948 | 73 | 209 | 1.0 | 6.0 | 0.00 | 0.06 | 0.06 | 87 | 1013.9 |
| 20260901035931 | 73 | 208 | 2.0 | 6.0 | 0.00 | 0.06 | 0.06 | 87 | 1013.9 |
| 20260901035825 | 73 | 214 | 1.0 | 6.0 | 0.00 | 0.06 | 0.06 | 87 | 1013.9 |
| 20260901035722 | 73 | 190 | 2.0 | 6.0 | 0.00 | 0.06 | 0.06 | 87 | 1013.9 |
| 20260901035713 | 73 | 201 | 3.0 | 6.0 | 0.00 | 0.06 | 0.06 | 87 | 1013.9 |
| 20260901035709 | 73 | 187 | 3.0 | 6.0 | 0.00 | 0.06 | 0.06 | 87 | 1013.9 |
| 20260901035701 | 73 | 209 | 2.0 | 6.0 | 0.00 | 0.06 | 0.06 | 87 | 1013.9 |
| 20260901035402 | 73 | 180 | 4.0 | 6.0 | 0.00 | 0.06 | 0.06 | 87 | 1013.9 |
| 20260901035257 | 73 | 180 | 5.0 | 6.0 | 0.00 | 0.06 | 0.06 | 87 | 1013.9 |
| 20260901035150 | 73 | 191 | 2.0 | 4.0 | 0.00 | 0.06 | 0.06 | 87 | 1013.9 |
| 20260901035045 | 73 | 235 | 1.0 | 4.0 | 0.00 | 0.06 | 0.06 | 87 | 1014.2 |
| 20260901034939 | 73 | 205 | 1.0 | 4.0 | 0.00 | 0.06 | 0.06 | 87 | 1013.9 |
| 20260901034834 | 73 | 207 | 1.0 | 4.0 | 0.00 | 0.06 | 0.06 | 87 | 1014.2 |
| 20260901034728 | 73 | 205 | 2.0 | 6.0 | 0.00 | 0.06 | 0.06 | 87 | 1013.9 |
| 20260901034621 | 73 | 178 | 4.0 | 6.0 | 0.00 | 0.06 | 0.06 | 87 | 1014.2 |
| 20260901034516 | 73 | 196 | 1.0 | 6.0 | 0.00 | 0.06 | 0.06 | 87 | 1014.2 |
| 20260901034428 | 73 | 183 | 2.0 | 6.0 | 0.00 | 0.06 | 0.06 | 87 | 1014.2 |
| 20260901034410 | 73 | 171 | 1.0 | 6.0 | 0.00 | 0.06 | 0.06 | 87 | 1014.2 |
| 20260901034304 | 73 | 177 | 0.0 | 6.0 | 0.00 | 0.06 | 0.06 | 87 | 1014.2 |
| 20260901034158 | 73 | 193 | 1.0 | 6.0 | 0.00 | 0.06 | 0.06 | 87 | 1014.2 |
| 20260901034053 | 73 | 205 | 1.0 | 6.0 | 0.00 | 0.06 | 0.06 | 87 | 1014.2 |
| 20260901033947 | 73 | 221 | 1.0 | 6.0 | 0.00 | 0.06 | 0.06 | 87 | 1014.2 |
| 20260901033921 | 73 | 221 | 1.0 | 6.0 | 0.00 | 0.06 | 0.06 | 87 | 1013.9 |
| 20260901033841 | 73 | 225 | 1.0 | 6.0 | 0.00 | 0.06 | 0.06 | 87 | 1013.9 |
| 20260901033736 | 73 | 179 | 3.0 | 6.0 | 0.00 | 0.06 | 0.06 | 87 | 1014.2 |
| 20260901033630 | 73 | 188 | 1.0 | 6.0 | 0.00 | 0.06 | 0.06 | 87 | 1014.2 |
| 20260901033525 | 73 | 202 | 3.0 | 6.0 | 0.00 | 0.06 | 0.06 | 87 | 1014.2 |
| 20260901033418 | 73 | 205 | 3.0 | 4.0 | 0.00 | 0.06 | 0.06 | 87 | 1014.2 |
| 20260901033313 | 73 | 204 | 2.0 | 4.0 | 0.00 | 0.06 | 0.06 | 87 | 1014.2 |
| 20260901033208 | 72 | 192 | 2.0 | 6.0 | 0.00 | 0.06 | 0.06 | 87 | 1014.2 |
| 20260901033101 | 72 | 191 | 2.0 | 6.0 | 0.00 | 0.06 | 0.06 | 87 | 1014.2 |
| 20260901032956 | 73 | 184 | 2.0 | 6.0 | 0.00 | 0.06 | 0.06 | 87 | 1013.9 |
| 20260901032907 | 73 | 159 | 2.0 | 6.0 | 0.00 | 0.06 | 0.06 | 87 | 1014.2 |
| 20260901032850 | 73 | 195 | 2.0 | 6.0 | 0.00 | 0.06 | 0.06 | 87 | 1014.2 |
| 20260901032744 | 73 | 202 | 1.0 | 6.0 | 0.00 | 0.06 | 0.06 | 87 | 1014.2 |
| 20260901032639 | 73 | 198 | 2.0 | 6.0 | 0.00 | 0.06 | 0.06 | 87 | 1014.2 |
| 20260901032533 | 73 | 214 | 3.0 | 6.0 | 0.00 | 0.06 | 0.06 | 86 | 1014.2 |
| 20260901032428 | 73 | 206 | 2.0 | 6.0 | 0.00 | 0.06 | 0.06 | 86 | 1014.2 |
| 20260901032401 | 73 | 218 | 1.0 | 6.0 | 0.00 | 0.06 | 0.06 | 86 | 1014.2 |
| 20260901032322 | 73 | 213 | 4.0 | 6.0 | 0.00 | 0.06 | 0.06 | 86 | 1013.9 |
| 20260901032215 | 73 | 187 | 2.0 | 4.0 | 0.00 | 0.06 | 0.06 | 86 | 1014.2 |
| 20260901032129 | 73 | 195 | 3.0 | 4.0 | 0.00 | 0.06 | 0.06 | 87 | 1014.2 |
| 20260901032120 | 73 | 200 | 2.0 | 4.0 | 0.00 | 0.06 | 0.06 | 87 | 1014.2 |
| 20260901032109 | 73 | 214 | 2.0 | 4.0 | 0.00 | 0.06 | 0.06 | 87 | 1014.2 |
| 20260901031753 | 73 | 205 | 2.0 | 4.0 | 0.00 | 0.06 | 0.06 | 86 | 1014.2 |
| 20260901031647 | 73 | 168 | 3.0 | 4.0 | 0.00 | 0.06 | 0.06 | 87 | 1014.2 |
| 20260901031542 | 73 | 210 | 1.0 | 4.0 | 0.00 | 0.06 | 0.06 | 86 | 1013.9 |
| 20260901031436 | 73 | 199 | 2.0 | 6.0 | 0.00 | 0.06 | 0.06 | 86 | 1014.2 |
| 20260901031348 | 73 | 178 | 3.0 | 6.0 | 0.00 | 0.06 | 0.06 | 86 | 1014.2 |
| 20260901031330 | 73 | 211 | 1.0 | 6.0 | 0.00 | 0.06 | 0.06 | 86 | 1014.2 |
| 20260901031225 | 73 | 201 | 2.0 | 6.0 | 0.00 | 0.06 | 0.06 | 86 | 1014.2 |
| 20260901031118 | 73 | 217 | 3.0 | 6.0 | 0.00 | 0.06 | 0.06 | 86 | 1014.2 |
| 20260901031013 | 73 | 189 | 2.0 | 6.0 | 0.00 | 0.06 | 0.06 | 86 | 1014.2 |
| 20260901030908 | 73 | 148 | 0.0 | 6.0 | 0.00 | 0.06 | 0.06 | 86 | 1014.2 |
| 20260901030841 | 73 | 195 | 2.0 | 6.0 | 0.00 | 0.06 | 0.06 | 86 | 1014.2 |
| 20260901030802 | 73 | 206 | 2.0 | 6.0 | 0.00 | 0.06 | 0.06 | 86 | 1014.2 |
| 20260901030656 | 73 | 184 | 0.0 | 6.0 | 0.00 | 0.06 | 0.06 | 86 | 1014.2 |
| 20260901030553 | 73 | 215 | 2.0 | 6.0 | 0.00 | 0.06 | 0.06 | 86 | 1014.2 |
| 20260901030447 | 73 | 208 | 2.0 | 6.0 | 0.00 | 0.06 | 0.06 | 86 | 1014.2 |
| 20260901030340 | 73 | 209 | 2.0 | 6.0 | 0.00 | 0.06 | 0.06 | 85 | 1014.2 |
| 20260901030235 | 73 | 209 | 3.0 | 6.0 | 0.00 | 0.06 | 0.06 | 86 | 1014.2 |
| 20260901030130 | 73 | 199 | 2.0 | 6.0 | 0.00 | 0.06 | 0.06 | 86 | 1014.2 |
| 20260901030024 | 73 | 193 | 2.0 | 6.0 | 0.00 | 0.06 | 0.06 | 86 | 1014.2 |
| 20260901025918 | 73 | 209 | 2.0 | 6.0 | 0.00 | 0.06 | 0.06 | 86 | 1014.2 |
| 20260901025835 | 72 | 192 | 3.0 | 6.0 | 0.00 | 0.06 | 0.06 | 86 | 1014.2 |
| 20260901025818 | 72 | 206 | 3.0 | 6.0 | 0.00 | 0.06 | 0.06 | 86 | 1014.2 |
| 20260901025713 | 72 | 223 | 2.0 | 4.0 | 0.00 | 0.06 | 0.06 | 86 | 1014.2 |
| 20260901025611 | 73 | 211 | 1.0 | 6.0 | 0.00 | 0.06 | 0.06 | 86 | 1014.2 |
| 20260901025607 | 73 | 206 | 1.0 | 4.0 | 0.00 | 0.06 | 0.06 | 86 | 1014.2 |
| 20260901025558 | 73 | 206 | 2.0 | 6.0 | 0.00 | 0.06 | 0.06 | 86 | 1014.2 |
| 20260901025550 | 73 | 210 | 1.0 | 6.0 | 0.00 | 0.06 | 0.06 | 86 | 1014.6 |
| 20260901025250 | 73 | 189 | 1.0 | 6.0 | 0.00 | 0.06 | 0.06 | 86 | 1014.2 |
| 20260901025144 | 73 | 202 | 1.0 | 6.0 | 0.00 | 0.06 | 0.06 | 86 | 1014.2 |
| 20260901025101 | 73 | 185 | 2.0 | 6.0 | 0.00 | 0.06 | 0.06 | 86 | 1014.2 |
| 20260901025052 | 73 | 175 | 2.0 | 6.0 | 0.00 | 0.06 | 0.06 | 86 | 1014.2 |
| 20260901025042 | 72 | 206 | 1.0 | 6.0 | 0.00 | 0.06 | 0.06 | 86 | 1014.2 |
| 20260901024720 | 72 | 189 | 3.0 | 6.0 | 0.00 | 0.06 | 0.06 | 86 | 1014.2 |
| 20260901024615 | 72 | 198 | 3.0 | 6.0 | 0.00 | 0.06 | 0.06 | 86 | 1014.2 |
| 20260901024509 | 72 | 206 | 2.0 | 4.0 | 0.00 | 0.06 | 0.06 | 87 | 1014.2 |
| 20260901024404 | 72 | 209 | 2.0 | 4.0 | 0.00 | 0.06 | 0.06 | 87 | 1014.2 |
| 20260901024316 | 72 | 222 | 2.0 | 4.0 | 0.00 | 0.06 | 0.06 | 87 | 1014.2 |
| 20260901024258 | 72 | 192 | 2.0 | 4.0 | 0.00 | 0.06 | 0.06 | 87 | 1014.2 |
| 20260901024153 | 72 | 210 | 1.0 | 4.0 | 0.00 | 0.06 | 0.06 | 87 | 1014.2 |
| 20260901024050 | 72 | 230 | 2.0 | 4.0 | 0.00 | 0.06 | 0.06 | 87 | 1014.2 |
| 20260901024041 | 72 | 203 | 3.0 | 4.0 | 0.00 | 0.06 | 0.06 | 87 | 1013.9 |
| 20260901024037 | 72 | 202 | 1.0 | 4.0 | 0.00 | 0.06 | 0.06 | 87 | 1014.2 |
| 20260901024028 | 72 | 202 | 2.0 | 4.0 | 0.00 | 0.06 | 0.06 | 87 | 1013.9 |
| 20260901023729 | 72 | 204 | 3.0 | 4.0 | 0.00 | 0.06 | 0.06 | 87 | 1014.2 |
| 20260901023624 | 72 | 193 | 2.0 | 4.0 | 0.00 | 0.06 | 0.06 | 87 | 1014.2 |
| 20260901023518 | 72 | 181 | 2.0 | 4.0 | 0.00 | 0.06 | 0.06 | 87 | 1014.2 |
| 20260901023412 | 72 | 175 | 3.0 | 4.0 | 0.00 | 0.06 | 0.06 | 87 | 1014.2 |
| 20260901023306 | 72 | 167 | 2.0 | 4.0 | 0.00 | 0.06 | 0.06 | 87 | 1014.2 |
| 20260901023201 | 72 | 187 | 2.0 | 4.0 | 0.00 | 0.06 | 0.06 | 87 | 1014.2 |
| 20260901023055 | 72 | 208 | 2.0 | 4.0 | 0.00 | 0.06 | 0.06 | 87 | 1014.2 |
| 20260901022949 | 72 | 189 | 2.0 | 4.0 | 0.00 | 0.06 | 0.06 | 87 | 1014.2 |
| 20260901022843 | 72 | 202 | 2.0 | 4.0 | 0.00 | 0.06 | 0.06 | 87 | 1014.2 |
| 20260901022755 | 72 | 207 | 1.0 | 4.0 | 0.00 | 0.06 | 0.06 | 87 | 1014.2 |
| 20260901022738 | 72 | 205 | 1.0 | 4.0 | 0.00 | 0.06 | 0.06 | 87 | 1014.2 |
| 20260901022632 | 72 | 194 | 2.0 | 4.0 | 0.00 | 0.06 | 0.06 | 87 | 1014.2 |
| 20260901022539 | 72 | 196 | 2.0 | 4.0 | 0.00 | 0.06 | 0.06 | 87 | 1014.2 |
| 20260901022420 | 72 | 193 | 1.0 | 3.0 | 0.00 | 0.06 | 0.06 | 87 | 1014.2 |
| 20260901022315 | 72 | 198 | 2.0 | 4.0 | 0.00 | 0.06 | 0.06 | 87 | 1014.2 |
| 20260901022249 | 72 | 196 | 1.0 | 4.0 | 0.00 | 0.06 | 0.06 | 87 | 1014.2 |
| 20260901022209 | 72 | 197 | 2.0 | 4.0 | 0.00 | 0.06 | 0.06 | 87 | 1014.2 |
| 20260901022104 | 72 | 188 | 2.0 | 4.0 | 0.00 | 0.06 | 0.06 | 88 | 1014.2 |
| 20260901021958 | 72 | 212 | 1.0 | 4.0 | 0.00 | 0.06 | 0.06 | 88 | 1014.2 |
| 20260901021853 | 72 | 206 | 1.0 | 4.0 | 0.00 | 0.06 | 0.06 | 88 | 1014.2 |
| 20260901021746 | 72 | 196 | 1.0 | 4.0 | 0.00 | 0.06 | 0.06 | 88 | 1014.2 |
| 20260901021640 | 72 | 204 | 2.0 | 4.0 | 0.00 | 0.06 | 0.06 | 88 | 1014.2 |
| 20260901021534 | 72 | 204 | 1.0 | 4.0 | 0.00 | 0.06 | 0.06 | 88 | 1014.2 |
| 20260901021505 | 72 | 201 | 1.0 | 3.0 | 0.00 | 0.06 | 0.06 | 89 | 1014.2 |
| 20260901021501 | 72 | 203 | 2.0 | 4.0 | 0.00 | 0.06 | 0.06 | 88 | 1014.2 |
| 20260901021452 | 72 | 205 | 1.0 | 3.0 | 0.00 | 0.06 | 0.06 | 89 | 1014.2 |
| 20260901021218 | 72 | 193 | 1.0 | 3.0 | 0.00 | 0.06 | 0.06 | 89 | 1014.2 |
| 20260901021111 | 72 | 217 | 0.0 | 3.0 | 0.00 | 0.06 | 0.06 | 89 | 1014.2 |
| 20260901021020 | 72 | 207 | 1.0 | 4.0 | 0.00 | 0.06 | 0.06 | 89 | 1014.2 |
| 20260901021015 | 72 | 206 | 1.0 | 4.0 | 0.00 | 0.06 | 0.06 | 89 | 1014.2 |
| 20260901021007 | 72 | 181 | 2.0 | 4.0 | 0.00 | 0.06 | 0.06 | 89 | 1014.2 |
| 20260901020945 | 72 | 207 | 0.0 | 4.0 | 0.00 | 0.06 | 0.06 | 89 | 1014.2 |
| 20260901020650 | 72 | 212 | 0.0 | 4.0 | 0.00 | 0.06 | 0.06 | 89 | 1014.2 |
| 20260901020543 | 72 | 210 | 2.0 | 4.0 | 0.00 | 0.06 | 0.06 | 89 | 1014.2 |
| 20260901020450 | 72 | 216 | 1.0 | 4.0 | 0.00 | 0.06 | 0.06 | 89 | 1014.2 |
| 20260901020331 | 72 | 218 | 3.0 | 4.0 | 0.00 | 0.06 | 0.06 | 89 | 1014.2 |
| 20260901020223 | 72 | 205 | 1.0 | 4.0 | 0.00 | 0.06 | 0.06 | 89 | 1014.2 |
| 20260901020131 | 72 | 164 | 2.0 | 4.0 | 0.00 | 0.06 | 0.06 | 89 | 1014.2 |
| 20260901020013 | 72 | 208 | 0.0 | 4.0 | 0.00 | 0.06 | 0.06 | 90 | 1014.2 |
| 20260901015943 | 72 | 222 | 1.0 | 4.0 | 0.00 | 0.06 | 0.06 | 90 | 1014.2 |
| 20260901015939 | 72 | 207 | 1.0 | 4.0 | 0.00 | 0.06 | 0.06 | 90 | 1014.2 |
| 20260901015931 | 72 | 195 | 1.0 | 4.0 | 0.00 | 0.06 | 0.06 | 90 | 1014.2 |
| 20260901015655 | 72 | 197 | 2.0 | 4.0 | 0.00 | 0.06 | 0.06 | 90 | 1014.2 |
| 20260901015549 | 72 | 199 | 1.0 | 4.0 | 0.00 | 0.06 | 0.06 | 90 | 1014.2 |
| 20260901015444 | 72 | 202 | 2.0 | 4.0 | 0.00 | 0.06 | 0.06 | 90 | 1014.2 |
| 20260901015338 | 72 | 217 | 2.0 | 4.0 | 0.00 | 0.06 | 0.06 | 90 | 1014.2 |
| 20260901015232 | 72 | 215 | 2.0 | 4.0 | 0.00 | 0.06 | 0.06 | 90 | 1014.6 |
| 20260901015206 | 72 | 200 | 1.0 | 4.0 | 0.00 | 0.06 | 0.06 | 90 | 1014.6 |
| 20260901015126 | 72 | 176 | 1.0 | 4.0 | 0.00 | 0.06 | 0.06 | 90 | 1014.2 |
| 20260901015021 | 72 | 201 | 2.0 | 4.0 | 0.00 | 0.06 | 0.06 | 90 | 1014.2 |
| 20260901014915 | 72 | 214 | 3.0 | 4.0 | 0.00 | 0.06 | 0.06 | 90 | 1014.2 |
| 20260901014810 | 72 | 193 | 2.0 | 3.0 | 0.00 | 0.06 | 0.06 | 90 | 1014.2 |
| 20260901014704 | 72 | 188 | 2.0 | 3.0 | 0.00 | 0.06 | 0.06 | 90 | 1014.2 |
| 20260901014558 | 72 | 191 | 2.0 | 3.0 | 0.00 | 0.06 | 0.06 | 90 | 1014.2 |
| 20260901014453 | 72 | 197 | 1.0 | 3.0 | 0.00 | 0.06 | 0.06 | 90 | 1014.2 |
| 20260901014347 | 72 | 197 | 3.0 | 3.0 | 0.00 | 0.06 | 0.06 | 90 | 1014.2 |
| 20260901014241 | 72 | 156 | 2.0 | 3.0 | 0.00 | 0.06 | 0.06 | 90 | 1014.2 |
| 20260901014153 | 72 | 189 | 3.0 | 3.0 | 0.00 | 0.06 | 0.06 | 90 | 1014.2 |
| 20260901014135 | 72 | 201 | 2.0 | 3.0 | 0.00 | 0.06 | 0.06 | 90 | 1014.2 |
| 20260901014030 | 72 | 215 | 2.0 | 3.0 | 0.00 | 0.06 | 0.06 | 90 | 1014.2 |
| 20260901013923 | 72 | 196 | 2.0 | 3.0 | 0.00 | 0.06 | 0.06 | 90 | 1014.2 |
| 20260901013818 | 72 | 187 | 1.0 | 3.0 | 0.00 | 0.06 | 0.06 | 90 | 1014.2 |
| 20260901013713 | 72 | 220 | 1.0 | 3.0 | 0.00 | 0.06 | 0.06 | 90 | 1014.2 |
| 20260901013646 | 72 | 205 | 1.0 | 3.0 | 0.00 | 0.06 | 0.06 | 90 | 1014.2 |
| 20260901013607 | 72 | 204 | 3.0 | 3.0 | 0.00 | 0.06 | 0.06 | 91 | 1014.6 |
| 20260901013501 | 72 | 204 | 2.0 | 4.0 | 0.00 | 0.06 | 0.06 | 91 | 1014.2 |
| 20260901013417 | 72 | 202 | 1.0 | 4.0 | 0.00 | 0.06 | 0.06 | 91 | 1014.2 |
| 20260901013409 | 72 | 191 | 2.0 | 6.0 | 0.00 | 0.06 | 0.06 | 91 | 1014.2 |
| 20260901013359 | 72 | 193 | 1.0 | 7.0 | 0.00 | 0.06 | 0.06 | 91 | 1014.2 |
| 20260901013038 | 72 | 181 | 0.0 | 7.0 | 0.00 | 0.06 | 0.06 | 91 | 1014.6 |
| 20260901012932 | 72 | 239 | 1.0 | 7.0 | 0.00 | 0.06 | 0.06 | 91 | 1014.2 |
| 20260901012918 | 72 | 197 | 3.0 | 7.0 | 0.00 | 0.06 | 0.06 | 91 | 1014.2 |
| 20260901012914 | 72 | 211 | 2.0 | 7.0 | 0.00 | 0.06 | 0.06 | 91 | 1014.2 |
| 20260901012905 | 72 | 158 | 2.0 | 7.0 | 0.00 | 0.06 | 0.06 | 91 | 1014.2 |
| 20260901012615 | 72 | 183 | 4.0 | 7.0 | 0.00 | 0.06 | 0.06 | 91 | 1014.2 |
| 20260901012509 | 72 | 165 | 1.0 | 7.0 | 0.00 | 0.06 | 0.06 | 91 | 1014.2 |
| 20260901012404 | 72 | 219 | 3.0 | 7.0 | 0.00 | 0.06 | 0.06 | 91 | 1014.2 |
| 20260901012259 | 72 | 209 | 2.0 | 7.0 | 0.00 | 0.06 | 0.06 | 91 | 1014.2 |
| 20260901012152 | 72 | 193 | 5.0 | 7.0 | 0.00 | 0.06 | 0.06 | 91 | 1014.2 |
| 20260901012126 | 72 | 212 | 0.0 | 4.0 | 0.00 | 0.06 | 0.06 | 91 | 1014.2 |
| 20260901012047 | 72 | 175 | 2.0 | 4.0 | 0.00 | 0.06 | 0.06 | 91 | 1014.2 |
| 20260901011942 | 72 | 197 | 2.0 | 4.0 | 0.00 | 0.06 | 0.06 | 91 | 1013.9 |
| 20260901011835 | 72 | 175 | 3.0 | 4.0 | 0.00 | 0.06 | 0.06 | 91 | 1014.2 |
| 20260901011730 | 72 | 221 | 2.0 | 4.0 | 0.00 | 0.06 | 0.06 | 91 | 1014.2 |
| 20260901011624 | 72 | 220 | 2.0 | 4.0 | 0.00 | 0.06 | 0.06 | 91 | 1014.2 |
| 20260901011518 | 72 | 180 | 0.0 | 4.0 | 0.00 | 0.06 | 0.06 | 91 | 1013.9 |
| 20260901011413 | 72 | 199 | 0.0 | 4.0 | 0.00 | 0.06 | 0.06 | 91 | 1014.2 |
| 20260901011320 | 72 | 211 | 0.0 | 4.0 | 0.00 | 0.06 | 0.06 | 91 | 1014.2 |
| 20260901011201 | 72 | 189 | 0.0 | 3.0 | 0.00 | 0.06 | 0.06 | 91 | 1014.2 |
| 20260901011113 | 72 | 184 | 0.0 | 3.0 | 0.00 | 0.06 | 0.06 | 91 | 1013.9 |
| 20260901011055 | 72 | 196 | 0.0 | 3.0 | 0.00 | 0.06 | 0.06 | 91 | 1013.9 |
| 20260901010950 | 72 | 201 | 0.0 | 3.0 | 0.00 | 0.06 | 0.06 | 91 | 1013.9 |
| 20260901010857 | 72 | 173 | 0.0 | 3.0 | 0.00 | 0.06 | 0.06 | 91 | 1014.2 |
| 20260901010738 | 72 | 211 | 0.0 | 3.0 | 0.00 | 0.06 | 0.06 | 91 | 1014.2 |
| 20260901010634 | 72 | 208 | 2.0 | 3.0 | 0.00 | 0.06 | 0.06 | 91 | 1013.9 |
| 20260901010606 | 72 | 211 | 2.0 | 3.0 | 0.00 | 0.06 | 0.06 | 91 | 1013.9 |
| 20260901010539 | 72 | 158 | 2.0 | 3.0 | 0.00 | 0.06 | 0.06 | 91 | 1014.2 |
| 20260901010421 | 72 | 191 | 2.0 | 3.0 | 0.00 | 0.06 | 0.06 | 91 | 1013.9 |
| 20260901010316 | 72 | 179 | 2.0 | 3.0 | 0.00 | 0.06 | 0.06 | 91 | 1013.9 |
| 20260901010208 | 72 | 215 | 1.0 | 3.0 | 0.00 | 0.06 | 0.06 | 91 | 1013.9 |
| 20260901010108 | 72 | 198 | 0.0 | 3.0 | 0.00 | 0.06 | 0.06 | 91 | 1013.9 |
| 20260901005957 | 72 | 213 | 1.0 | 3.0 | 0.00 | 0.06 | 0.06 | 91 | 1014.2 |
| 20260901005851 | 72 | 204 | 1.0 | 3.0 | 0.00 | 0.06 | 0.06 | 91 | 1013.9 |
| 20260901005745 | 72 | 222 | 0.0 | 3.0 | 0.00 | 0.06 | 0.06 | 91 | 1013.9 |
| 20260901005640 | 72 | 221 | 0.0 | 3.0 | 0.00 | 0.06 | 0.06 | 91 | 1013.5 |
| 20260901005552 | 72 | 221 | 0.0 | 3.0 | 0.00 | 0.06 | 0.06 | 91 | 1013.5 |
| 20260901005534 | 72 | 221 | 1.0 | 3.0 | 0.00 | 0.06 | 0.06 | 91 | 1013.9 |
| 20260901005428 | 72 | 198 | 1.0 | 3.0 | 0.00 | 0.06 | 0.06 | 91 | 1013.5 |
| 20260901005322 | 72 | 208 | 1.0 | 3.0 | 0.00 | 0.06 | 0.06 | 91 | 1013.5 |
| 20260901005217 | 72 | 196 | 2.0 | 3.0 | 0.00 | 0.06 | 0.06 | 91 | 1013.5 |
| 20260901005114 | 72 | 215 | 0.0 | 0.0 | 0.00 | 0.06 | 0.06 | 91 | 1013.9 |
| 20260901005045 | 72 | 215 | 0.0 | 0.0 | 0.00 | 0.06 | 0.06 | 91 | 1013.9 |
| 20260901005005 | 72 | 191 | 0.0 | 0.0 | 0.00 | 0.06 | 0.06 | 91 | 1013.5 |
| 20260901004900 | 72 | 189 | 0.0 | 0.0 | 0.00 | 0.06 | 0.06 | 91 | 1013.5 |
| 20260901004753 | 72 | 185 | 0.0 | 0.0 | 0.00 | 0.06 | 0.06 | 91 | 1013.9 |
| 20260901004648 | 72 | 155 | 0.0 | 0.0 | 0.00 | 0.06 | 0.06 | 91 | 1013.5 |
| 20260901004542 | 72 | 186 | 0.0 | 0.0 | 0.00 | 0.06 | 0.06 | 91 | 1013.5 |
| 20260901004436 | 72 | 211 | 0.0 | 0.0 | 0.00 | 0.06 | 0.06 | 91 | 1013.5 |
| 20260901004330 | 72 | 203 | 0.0 | 0.0 | 0.00 | 0.06 | 0.06 | 91 | 1013.5 |
| 20260901004225 | 72 | 210 | 0.0 | 0.0 | 0.00 | 0.06 | 0.06 | 91 | 1013.5 |
| 20260901004119 | 72 | 208 | 0.0 | 0.0 | 0.00 | 0.06 | 0.06 | 91 | 1013.5 |
| 20260901004031 | 72 | 206 | 0.0 | 0.0 | 0.00 | 0.06 | 0.06 | 90 | 1013.5 |
| 20260901004013 | 72 | 195 | 0.0 | 0.0 | 0.00 | 0.06 | 0.06 | 90 | 1013.5 |
| 20260901003908 | 72 | 193 | 0.0 | 0.0 | 0.00 | 0.06 | 0.06 | 90 | 1013.5 |
| 20260901003801 | 72 | 192 | 0.0 | 0.0 | 0.00 | 0.06 | 0.06 | 90 | 1013.5 |
| 20260901003656 | 72 | 154 | 0.0 | 0.0 | 0.00 | 0.06 | 0.06 | 91 | 1013.5 |
| 20260901003551 | 72 | 210 | 0.0 | 1.0 | 0.00 | 0.06 | 0.06 | 91 | 1013.5 |
| 20260901003524 | 72 | 210 | 0.0 | 2.0 | 0.00 | 0.06 | 0.06 | 91 | 1013.5 |
| 20260901003445 | 72 | 198 | 0.0 | 3.0 | 0.00 | 0.06 | 0.06 | 90 | 1013.5 |
| 20260901003338 | 72 | 202 | 0.0 | 3.0 | 0.00 | 0.06 | 0.06 | 90 | 1013.5 |
| 20260901003233 | 73 | 202 | 0.0 | 4.0 | 0.00 | 0.06 | 0.06 | 90 | 1013.5 |
| 20260901003128 | 73 | 196 | 0.0 | 4.0 | 0.00 | 0.06 | 0.06 | 90 | 1013.5 |
| 20260901003022 | 73 | 191 | 0.0 | 4.0 | 0.00 | 0.06 | 0.06 | 90 | 1013.5 |
| 20260901002916 | 73 | 149 | 0.0 | 4.0 | 0.00 | 0.06 | 0.06 | 90 | 1013.5 |
| 20260901002810 | 73 | 191 | 0.0 | 4.0 | 0.00 | 0.06 | 0.06 | 90 | 1013.5 |
| 20260901002705 | 73 | 188 | 0.0 | 4.0 | 0.00 | 0.06 | 0.06 | 90 | 1013.5 |
| 20260901002558 | 73 | 206 | 1.0 | 4.0 | 0.00 | 0.06 | 0.06 | 90 | 1013.5 |
| 20260901002510 | 73 | 191 | 3.0 | 4.0 | 0.00 | 0.06 | 0.06 | 90 | 1013.5 |
| 20260901002453 | 73 | 183 | 2.0 | 4.0 | 0.00 | 0.06 | 0.06 | 90 | 1013.5 |
| 20260901002347 | 73 | 202 | 2.0 | 4.0 | 0.00 | 0.06 | 0.06 | 90 | 1013.5 |
| 20260901002245 | 73 | 201 | 0.0 | 3.0 | 0.00 | 0.06 | 0.06 | 90 | 1013.5 |
| 20260901002241 | 73 | 167 | 1.0 | 4.0 | 0.00 | 0.06 | 0.06 | 90 | 1013.5 |
| 20260901002233 | 73 | 198 | 0.0 | 3.0 | 0.00 | 0.06 | 0.06 | 90 | 1013.5 |
| 20260901002224 | 73 | 203 | 0.0 | 3.0 | 0.00 | 0.06 | 0.06 | 90 | 1013.5 |
| 20260901001924 | 73 | 202 | 0.0 | 3.0 | 0.00 | 0.06 | 0.06 | 89 | 1013.5 |
| 20260901001819 | 73 | 200 | 0.0 | 3.0 | 0.00 | 0.06 | 0.06 | 89 | 1013.5 |
| 20260901001713 | 73 | 195 | 1.0 | 4.0 | 0.00 | 0.06 | 0.06 | 89 | 1013.5 |
| 20260901001607 | 73 | 185 | 2.0 | 4.0 | 0.00 | 0.06 | 0.06 | 89 | 1013.5 |
| 20260901001502 | 73 | 208 | 0.0 | 4.0 | 0.00 | 0.06 | 0.06 | 89 | 1013.5 |
| 20260901001356 | 73 | 210 | 0.0 | 4.0 | 0.00 | 0.06 | 0.06 | 89 | 1013.5 |
| 20260901001250 | 73 | 197 | 1.0 | 4.0 | 0.00 | 0.06 | 0.06 | 89 | 1013.5 |
| 20260901001145 | 73 | 174 | 1.0 | 4.0 | 0.00 | 0.06 | 0.06 | 89 | 1013.5 |
| 20260901001039 | 73 | 200 | 1.0 | 4.0 | 0.00 | 0.06 | 0.06 | 88 | 1013.5 |
| 20260901000951 | 73 | 205 | 1.0 | 4.0 | 0.00 | 0.06 | 0.06 | 88 | 1013.5 |
| 20260901000933 | 73 | 196 | 1.0 | 4.0 | 0.00 | 0.06 | 0.06 | 88 | 1013.5 |
| 20260901000827 | 73 | 195 | 2.0 | 4.0 | 0.00 | 0.06 | 0.06 | 88 | 1013.9 |
| 20260901000722 | 73 | 180 | 2.0 | 3.0 | 0.00 | 0.06 | 0.06 | 88 | 1013.5 |
| 20260901000616 | 73 | 192 | 2.0 | 6.0 | 0.00 | 0.06 | 0.06 | 88 | 1013.5 |
| 20260901000510 | 73 | 202 | 1.0 | 6.0 | 0.00 | 0.06 | 0.06 | 88 | 1013.5 |
| 20260901000444 | 73 | 203 | 1.0 | 6.0 | 0.00 | 0.06 | 0.06 | 88 | 1013.5 |
| 20260901000406 | 73 | 182 | 2.0 | 6.0 | 0.00 | 0.06 | 0.06 | 88 | 1013.5 |
| 20260901000259 | 73 | 198 | 0.0 | 6.0 | 0.00 | 0.06 | 0.06 | 88 | 1013.5 |
| 20260901000155 | 73 | 212 | 2.0 | 6.0 | 0.00 | 0.06 | 0.06 | 88 | 1013.5 |
| 20260831235938 | 74 | 184 | 1.0 | 6.0 | 0.00 | 0.06 | 0.06 | 88 | 1013.5 |
| 20260831235843 | 74 | 195 | 0.0 | 6.0 | 0.00 | 0.06 | 0.06 | 88 | 1013.5 |
| 20260831235737 | 74 | 206 | 2.0 | 6.0 | 0.00 | 0.06 | 0.06 | 88 | 1013.5 |
| 20260831235631 | 73 | 155 | 3.0 | 6.0 | 0.00 | 0.06 | 0.06 | 88 | 1013.5 |
| 20260831235526 | 73 | 215 | 2.0 | 4.0 | 0.00 | 0.06 | 0.06 | 88 | 1013.1 |
| 20260831235438 | 73 | 147 | 2.0 | 4.0 | 0.00 | 0.06 | 0.06 | 88 | 1013.1 |
| 20260831235420 | 74 | 184 | 2.0 | 4.0 | 0.00 | 0.06 | 0.06 | 88 | 1013.5 |
| 20260831235314 | 74 | 166 | 1.0 | 4.0 | 0.00 | 0.06 | 0.06 | 88 | 1013.5 |
| 20260831235208 | 74 | 165 | 2.0 | 4.0 | 0.00 | 0.06 | 0.06 | 88 | 1013.5 |
| 20260831235103 | 74 | 150 | 2.0 | 6.0 | 0.00 | 0.06 | 0.06 | 88 | 1013.5 |
| 20260831234957 | 74 | 188 | 0.0 | 6.0 | 0.00 | 0.06 | 0.06 | 88 | 1013.9 |
| 20260831234931 | 74 | 175 | 0.0 | 6.0 | 0.00 | 0.06 | 0.06 | 88 | 1013.5 |
| 20260831234852 | 74 | 166 | 1.0 | 6.0 | 0.00 | 0.06 | 0.06 | 87 | 1013.5 |
| 20260831234746 | 74 | 193 | 1.0 | 6.0 | 0.00 | 0.06 | 0.06 | 87 | 1013.5 |
| 20260831234701 | 74 | 213 | 2.0 | 6.0 | 0.00 | 0.06 | 0.06 | 87 | 1013.5 |
| 20260831234653 | 74 | 199 | 1.0 | 10.0 | 0.00 | 0.06 | 0.06 | 87 | 1013.9 |
| 20260831234643 | 74 | 203 | 2.0 | 11.0 | 0.00 | 0.06 | 0.06 | 87 | 1013.5 |
| 20260831234322 | 74 | 147 | 2.0 | 11.0 | 0.00 | 0.06 | 0.06 | 87 | 1013.5 |
| 20260831234217 | 74 | 204 | 4.0 | 11.0 | 0.00 | 0.06 | 0.06 | 87 | 1013.5 |
| 20260831234111 | 74 | 179 | 2.0 | 11.0 | 0.00 | 0.06 | 0.06 | 86 | 1013.5 |
| 20260831234005 | 74 | 187 | 2.0 | 11.0 | 0.00 | 0.06 | 0.06 | 86 | 1013.9 |
| 20260831233917 | 74 | 196 | 3.0 | 11.0 | 0.00 | 0.06 | 0.06 | 86 | 1013.5 |
| 20260831233900 | 74 | 159 | 4.0 | 11.0 | 0.00 | 0.06 | 0.06 | 86 | 1013.5 |
| 20260831233753 | 74 | 194 | 3.0 | 11.0 | 0.00 | 0.06 | 0.06 | 86 | 1013.9 |
| 20260831233648 | 74 | 186 | 3.0 | 11.0 | 0.01 | 0.06 | 0.06 | 86 | 1013.9 |
| 20260831233543 | 74 | 201 | 5.0 | 11.0 | 0.01 | 0.06 | 0.06 | 87 | 1013.9 |
| 20260831233437 | 74 | 212 | 2.0 | 6.0 | 0.01 | 0.06 | 0.06 | 87 | 1013.9 |
| 20260831233411 | 74 | 184 | 1.0 | 6.0 | 0.01 | 0.06 | 0.06 | 88 | 1013.9 |
| 20260831233332 | 74 | 179 | 4.0 | 6.0 | 0.01 | 0.06 | 0.06 | 87 | 1013.9 |
| 20260831233225 | 74 | 209 | 2.0 | 6.0 | 0.01 | 0.06 | 0.06 | 88 | 1013.9 |
| 20260831233118 | 74 | 179 | 2.0 | 4.0 | 0.01 | 0.06 | 0.06 | 88 | 1013.5 |
| 20260831233012 | 74 | 180 | 3.0 | 4.0 | 0.01 | 0.06 | 0.06 | 87 | 1013.5 |
| 20260831232919 | 74 | 192 | 2.0 | 4.0 | 0.01 | 0.06 | 0.06 | 88 | 1013.5 |
| 20260831232801 | 74 | 229 | 3.0 | 4.0 | 0.01 | 0.06 | 0.06 | 88 | 1014.2 |
| 20260831232656 | 74 | 178 | 3.0 | 4.0 | 0.01 | 0.06 | 0.06 | 88 | 1013.9 |
| 20260831232549 | 74 | 196 | 2.0 | 3.0 | 0.01 | 0.06 | 0.06 | 88 | 1013.9 |
| 20260831232444 | 74 | 167 | 2.0 | 3.0 | 0.01 | 0.06 | 0.06 | 88 | 1013.9 |
| 20260831232356 | 74 | 152 | 3.0 | 4.0 | 0.01 | 0.06 | 0.06 | 88 | 1013.9 |
| 20260831232338 | 74 | 188 | 2.0 | 4.0 | 0.01 | 0.06 | 0.06 | 88 | 1013.9 |
| 20260831232232 | 74 | 137 | 3.0 | 4.0 | 0.01 | 0.06 | 0.06 | 88 | 1013.9 |
| 20260831232127 | 74 | 191 | 2.0 | 4.0 | 0.01 | 0.06 | 0.06 | 88 | 1013.9 |
| 20260831232021 | 74 | 172 | 2.0 | 4.0 | 0.01 | 0.06 | 0.06 | 88 | 1013.9 |
| 20260831231916 | 74 | 182 | 2.0 | 4.0 | 0.01 | 0.06 | 0.06 | 88 | 1013.9 |
| 20260831231849 | 74 | 196 | 0.0 | 4.0 | 0.01 | 0.06 | 0.06 | 88 | 1013.9 |
| 20260831231810 | 74 | 195 | 1.0 | 4.0 | 0.01 | 0.06 | 0.06 | 88 | 1013.9 |
| 20260831231702 | 74 | 184 | 0.0 | 8.0 | 0.01 | 0.06 | 0.06 | 88 | 1013.9 |
| 20260831231619 | 74 | 188 | 2.0 | 8.0 | 0.01 | 0.06 | 0.06 | 88 | 1014.2 |
| 20260831231610 | 75 | 176 | 3.0 | 8.0 | 0.01 | 0.06 | 0.06 | 87 | 1014.2 |
| 20260831231600 | 75 | 179 | 3.0 | 8.0 | 0.01 | 0.06 | 0.06 | 87 | 1013.9 |
| 20260831231252 | 75 | 191 | 1.0 | 8.0 | 0.01 | 0.06 | 0.06 | 87 | 1013.9 |
| 20260831231134 | 75 | 191 | 1.0 | 8.0 | 0.01 | 0.06 | 0.06 | 87 | 1013.9 |
| 20260831231029 | 75 | 196 | 3.0 | 8.0 | 0.01 | 0.06 | 0.06 | 87 | 1013.9 |
| 20260831230923 | 75 | 189 | 2.0 | 8.0 | 0.01 | 0.06 | 0.06 | 87 | 1013.9 |
| 20260831230835 | 75 | 174 | 2.0 | 8.0 | 0.01 | 0.06 | 0.06 | 87 | 1013.9 |
| 20260831230817 | 75 | 186 | 1.0 | 8.0 | 0.01 | 0.06 | 0.06 | 87 | 1013.9 |
| 20260831230712 | 75 | 191 | 6.0 | 8.0 | 0.01 | 0.06 | 0.06 | 87 | 1013.9 |
| 20260831230619 | 75 | 146 | 1.0 | 7.0 | 0.01 | 0.06 | 0.06 | 88 | 1013.9 |
| 20260831230501 | 75 | 200 | 2.0 | 7.0 | 0.01 | 0.06 | 0.06 | 87 | 1013.9 |
| 20260831230354 | 75 | 205 | 3.0 | 7.0 | 0.01 | 0.06 | 0.06 | 87 | 1014.2 |
| 20260831230328 | 75 | 141 | 4.0 | 7.0 | 0.01 | 0.06 | 0.06 | 87 | 1014.2 |
| 20260831230248 | 75 | 187 | 2.0 | 7.0 | 0.01 | 0.06 | 0.06 | 87 | 1014.2 |
| 20260831230143 | 75 | 177 | 2.0 | 7.0 | 0.01 | 0.06 | 0.06 | 87 | 1013.9 |
| 20260831230037 | 75 | 166 | 2.0 | 7.0 | 0.01 | 0.06 | 0.06 | 87 | 1014.2 |
| 20260831225932 | 75 | 155 | 1.0 | 7.0 | 0.01 | 0.06 | 0.06 | 86 | 1014.2 |
| 20260831225826 | 75 | 182 | 1.0 | 7.0 | 0.01 | 0.06 | 0.06 | 86 | 1014.2 |
| 20260831225721 | 75 | 184 | 3.0 | 7.0 | 0.01 | 0.06 | 0.06 | 86 | 1014.2 |
| 20260831225614 | 75 | 214 | 2.0 | 7.0 | 0.01 | 0.06 | 0.06 | 86 | 1014.2 |
| 20260831225509 | 75 | 198 | 2.0 | 6.0 | 0.01 | 0.06 | 0.06 | 87 | 1014.2 |
| 20260831225403 | 75 | 168 | 2.0 | 6.0 | 0.01 | 0.06 | 0.06 | 87 | 1014.2 |
| 20260831225314 | 75 | 177 | 3.0 | 6.0 | 0.01 | 0.06 | 0.06 | 87 | 1014.2 |
| 20260831225258 | 75 | 131 | 0.0 | 4.0 | 0.01 | 0.06 | 0.06 | 88 | 1014.2 |
| 20260831225151 | 76 | 217 | 3.0 | 4.0 | 0.01 | 0.06 | 0.06 | 87 | 1013.9 |
| 20260831225046 | 76 | 128 | 3.0 | 4.0 | 0.01 | 0.06 | 0.06 | 87 | 1013.9 |
| 20260831224940 | 76 | 110 | 1.0 | 4.0 | 0.01 | 0.06 | 0.06 | 88 | 1014.2 |
| 20260831224836 | 76 | 158 | 1.0 | 4.0 | 0.01 | 0.06 | 0.06 | 88 | 1014.6 |
| 20260831224808 | 76 | 144 | 0.0 | 4.0 | 0.01 | 0.06 | 0.06 | 87 | 1014.6 |
| 20260831224729 | 76 | 204 | 1.0 | 4.0 | 0.01 | 0.06 | 0.06 | 87 | 1014.6 |
| 20260831224623 | 76 | 195 | 1.0 | 4.0 | 0.01 | 0.06 | 0.06 | 87 | 1014.2 |
| 20260831224518 | 76 | 212 | 1.0 | 4.0 | 0.01 | 0.06 | 0.06 | 87 | 1014.2 |
| 20260831224411 | 75 | 216 | 3.0 | 4.0 | 0.01 | 0.06 | 0.06 | 85 | 1014.6 |
| 20260831224305 | 75 | 229 | 1.0 | 3.0 | 0.01 | 0.06 | 0.06 | 86 | 1014.9 |
| 20260831224200 | 76 | 199 | 1.0 | 3.0 | 0.01 | 0.06 | 0.06 | 87 | 1014.6 |
| 20260831224054 | 76 | 144 | 1.0 | 3.0 | 0.01 | 0.06 | 0.06 | 87 | 1014.2 |
| 20260831223950 | 76 | 168 | 0.0 | 3.0 | 0.01 | 0.06 | 0.06 | 86 | 1014.6 |
| 20260831223843 | 76 | 149 | 0.0 | 3.0 | 0.01 | 0.06 | 0.06 | 86 | 1014.6 |
| 20260831223755 | 76 | 142 | 0.0 | 3.0 | 0.01 | 0.06 | 0.06 | 85 | 1014.6 |
| 20260831223737 | 76 | 231 | 0.0 | 3.0 | 0.01 | 0.06 | 0.06 | 85 | 1014.6 |
| 20260831223632 | 76 | 213 | 0.0 | 3.0 | 0.00 | 0.05 | 0.05 | 85 | 1014.6 |
| 20260831223530 | 76 | 204 | 2.0 | 6.0 | 0.00 | 0.05 | 0.05 | 83 | 1014.6 |
| 20260831223526 | 76 | 224 | 0.0 | 3.0 | 0.00 | 0.05 | 0.05 | 84 | 1014.6 |
| 20260831223517 | 76 | 218 | 2.0 | 6.0 | 0.00 | 0.05 | 0.05 | 83 | 1014.2 |
| 20260831223509 | 76 | 210 | 2.0 | 6.0 | 0.00 | 0.05 | 0.05 | 83 | 1014.6 |
| 20260831223209 | 76 | 195 | 2.0 | 6.0 | 0.00 | 0.05 | 0.05 | 83 | 1014.6 |
| 20260831223102 | 76 | 206 | 0.0 | 6.0 | 0.00 | 0.05 | 0.05 | 83 | 1014.6 |
| 20260831222957 | 76 | 193 | 2.0 | 6.0 | 0.00 | 0.05 | 0.05 | 83 | 1014.6 |
| 20260831222850 | 76 | 191 | 2.0 | 6.0 | 0.00 | 0.05 | 0.05 | 84 | 1014.9 |
| 20260831222745 | 76 | 193 | 2.0 | 6.0 | 0.00 | 0.05 | 0.05 | 84 | 1014.6 |
| 20260831222640 | 76 | 216 | 1.0 | 6.0 | 0.00 | 0.05 | 0.05 | 83 | 1014.2 |
| 20260831222533 | 75 | 230 | 2.0 | 6.0 | 0.00 | 0.05 | 0.05 | 83 | 1014.6 |
| 20260831222427 | 75 | 183 | 4.0 | 6.0 | 0.00 | 0.05 | 0.05 | 84 | 1014.6 |
| 20260831222323 | 75 | 196 | 2.0 | 6.0 | 0.00 | 0.05 | 0.05 | 84 | 1014.6 |
| 20260831222234 | 75 | 202 | 5.0 | 6.0 | 0.00 | 0.05 | 0.05 | 84 | 1014.6 |
| 20260831222216 | 75 | 223 | 1.0 | 3.0 | 0.00 | 0.05 | 0.05 | 85 | 1014.6 |
| 20260831222111 | 75 | 220 | 1.0 | 3.0 | 0.00 | 0.05 | 0.05 | 85 | 1014.6 |
| 20260831222007 | 75 | 220 | 1.0 | 4.0 | 0.00 | 0.05 | 0.05 | 85 | 1014.6 |
| 20260831221900 | 75 | 179 | 0.0 | 6.0 | 0.00 | 0.05 | 0.05 | 85 | 1014.9 |
| 20260831221753 | 75 | 201 | 1.0 | 6.0 | 0.00 | 0.05 | 0.05 | 85 | 1014.6 |
| 20260831221727 | 75 | 182 | 2.0 | 6.0 | 0.00 | 0.05 | 0.05 | 85 | 1014.6 |
| 20260831221648 | 75 | 160 | 3.0 | 6.0 | 0.00 | 0.05 | 0.05 | 85 | 1014.6 |
| 20260831221542 | 75 | 209 | 3.0 | 6.0 | 0.00 | 0.05 | 0.05 | 85 | 1014.6 |
| 20260831221437 | 75 | 203 | 2.0 | 6.0 | 0.00 | 0.05 | 0.05 | 85 | 1014.6 |
| 20260831221331 | 75 | 219 | 1.0 | 6.0 | 0.00 | 0.05 | 0.05 | 85 | 1014.6 |
| 20260831221225 | 75 | 216 | 1.0 | 6.0 | 0.00 | 0.05 | 0.05 | 85 | 1014.6 |
| 20260831221119 | 75 | 202 | 2.0 | 6.0 | 0.00 | 0.05 | 0.05 | 85 | 1014.6 |
| 20260831221014 | 75 | 223 | 5.0 | 6.0 | 0.00 | 0.05 | 0.05 | 85 | 1014.9 |
| 20260831220949 | 75 | 186 | 4.0 | 6.0 | 0.00 | 0.05 | 0.05 | 85 | 1014.9 |
| 20260831220941 | 75 | 207 | 3.0 | 6.0 | 0.00 | 0.05 | 0.05 | 85 | 1014.6 |
| 20260831220932 | 75 | 211 | 3.0 | 6.0 | 0.00 | 0.05 | 0.05 | 85 | 1014.9 |
| 20260831220656 | 75 | 210 | 4.0 | 6.0 | 0.00 | 0.05 | 0.05 | 85 | 1014.9 |
| 20260831220551 | 75 | 188 | 2.0 | 4.0 | 0.00 | 0.05 | 0.05 | 85 | 1014.9 |
| 20260831220449 | 75 | 320 | 2.0 | 6.0 | 0.00 | 0.05 | 0.05 | 85 | 1015.3 |
| 20260831220447 | 75 | 207 | 3.0 | 6.0 | 0.00 | 0.05 | 0.05 | 85 | 1014.9 |
| 20260831220435 | 75 | 194 | 0.0 | 6.0 | 0.00 | 0.05 | 0.05 | 85 | 1015.3 |
| 20260831220426 | 75 | 320 | 1.0 | 6.0 | 0.00 | 0.05 | 0.05 | 85 | 1015.3 |
| 20260831220128 | 75 | 29 | 1.0 | 6.0 | 0.00 | 0.05 | 0.05 | 85 | 1015.3 |
| 20260831220022 | 75 | 29 | 1.0 | 6.0 | 0.00 | 0.05 | 0.05 | 85 | 1015.3 |
| 20260831215917 | 75 | 208 | 2.0 | 7.0 | 0.00 | 0.05 | 0.05 | 85 | 1015.3 |
| 20260831215811 | 75 | 287 | 1.0 | 7.0 | 0.00 | 0.05 | 0.05 | 84 | 1015.3 |
| 20260831215705 | 75 | 204 | 2.0 | 7.0 | 0.00 | 0.05 | 0.05 | 84 | 1014.9 |
| 20260831215600 | 75 | 241 | 3.0 | 7.0 | 0.00 | 0.05 | 0.05 | 84 | 1014.6 |
| 20260831215454 | 75 | 215 | 1.0 | 7.0 | 0.00 | 0.05 | 0.05 | 84 | 1014.9 |
| 20260831215348 | 75 | 214 | 2.0 | 7.0 | 0.00 | 0.05 | 0.05 | 84 | 1014.2 |
| 20260831215242 | 75 | 213 | 2.0 | 7.0 | 0.00 | 0.05 | 0.05 | 84 | 1014.2 |
| 20260831215154 | 75 | 107 | 0.0 | 7.0 | 0.00 | 0.05 | 0.05 | 84 | 1014.2 |
| 20260831215137 | 75 | 167 | 2.0 | 7.0 | 0.00 | 0.05 | 0.05 | 84 | 1014.2 |
| 20260831215030 | 75 | 262 | 4.0 | 7.0 | 0.00 | 0.05 | 0.05 | 84 | 1014.2 |
| 20260831214925 | 75 | 196 | 2.0 | 7.0 | 0.00 | 0.05 | 0.05 | 84 | 1014.6 |
| 20260831214819 | 75 | 153 | 5.0 | 7.0 | 0.00 | 0.05 | 0.05 | 83 | 1014.2 |
| 20260831214714 | 75 | 143 | 4.0 | 7.0 | 0.00 | 0.05 | 0.05 | 83 | 1014.2 |
| 20260831214647 | 75 | 135 | 2.0 | 7.0 | 0.00 | 0.05 | 0.05 | 84 | 1014.2 |
| 20260831214609 | 75 | 174 | 3.0 | 7.0 | 0.00 | 0.05 | 0.05 | 84 | 1014.2 |
| 20260831214503 | 75 | 172 | 4.0 | 7.0 | 0.00 | 0.05 | 0.05 | 84 | 1014.2 |
| 20260831214419 | 75 | 176 | 4.0 | 7.0 | 0.00 | 0.05 | 0.05 | 84 | 1014.6 |
| 20260831214411 | 75 | 193 | 5.0 | 7.0 | 0.00 | 0.05 | 0.05 | 84 | 1014.6 |
| 20260831214400 | 75 | 206 | 2.0 | 8.0 | 0.00 | 0.05 | 0.05 | 84 | 1014.6 |
| 20260831214039 | 75 | 204 | 2.0 | 8.0 | 0.00 | 0.05 | 0.05 | 84 | 1014.2 |
| 20260831213934 | 75 | 177 | 2.0 | 8.0 | 0.00 | 0.05 | 0.05 | 85 | 1014.2 |
| 20260831213841 | 75 | 213 | 3.0 | 8.0 | 0.00 | 0.05 | 0.05 | 84 | 1014.6 |
| 20260831213723 | 75 | 111 | 2.0 | 8.0 | 0.00 | 0.05 | 0.05 | 84 | 1014.6 |
| 20260831213634 | 75 | 143 | 4.0 | 8.0 | 0.00 | 0.05 | 0.05 | 84 | 1014.6 |
| 20260831213617 | 75 | 178 | 2.0 | 8.0 | 0.00 | 0.05 | 0.05 | 84 | 1014.6 |
| 20260831213511 | 75 | 200 | 2.0 | 8.0 | 0.00 | 0.05 | 0.05 | 84 | 1014.6 |
| 20260831213405 | 75 | 130 | 6.0 | 8.0 | 0.00 | 0.05 | 0.05 | 84 | 1014.9 |
| 20260831213258 | 75 | 196 | 3.0 | 8.0 | 0.00 | 0.05 | 0.05 | 84 | 1014.9 |
| 20260831213126 | 75 | 157 | 2.0 | 8.0 | 0.00 | 0.05 | 0.05 | 84 | 1015.3 |
| 20260831213047 | 75 | 175 | 3.0 | 8.0 | 0.00 | 0.05 | 0.05 | 84 | 1015.3 |
| 20260831212940 | 75 | 186 | 4.0 | 8.0 | 0.00 | 0.05 | 0.05 | 84 | 1015.3 |
| 20260831212835 | 75 | 146 | 4.0 | 8.0 | 0.00 | 0.05 | 0.05 | 84 | 1015.3 |
| 20260831212729 | 75 | 182 | 2.0 | 8.0 | 0.00 | 0.05 | 0.05 | 84 | 1015.3 |
| 20260831212623 | 75 | 205 | 3.0 | 8.0 | 0.00 | 0.05 | 0.05 | 84 | 1015.3 |
| 20260831212518 | 75 | 200 | 5.0 | 8.0 | 0.00 | 0.05 | 0.05 | 84 | 1014.9 |
| 20260831212412 | 75 | 213 | 4.0 | 8.0 | 0.00 | 0.05 | 0.05 | 84 | 1014.9 |
| 20260831212307 | 75 | 184 | 3.0 | 7.0 | 0.00 | 0.05 | 0.05 | 84 | 1014.9 |
| 20260831212156 | 75 | 181 | 4.0 | 6.0 | 0.00 | 0.05 | 0.05 | 84 | 1015.3 |
| 20260831212119 | 75 | 166 | 3.0 | 6.0 | 0.00 | 0.05 | 0.05 | 84 | 1014.9 |
| 20260831212050 | 75 | 217 | 3.0 | 6.0 | 0.00 | 0.05 | 0.05 | 84 | 1014.9 |
| 20260831211945 | 75 | 185 | 3.0 | 8.0 | 0.00 | 0.05 | 0.05 | 84 | 1014.9 |
| 20260831211839 | 75 | 213 | 3.0 | 8.0 | 0.00 | 0.05 | 0.05 | 84 | 1014.9 |
| 20260831211734 | 75 | 204 | 2.0 | 8.0 | 0.00 | 0.05 | 0.05 | 84 | 1014.9 |
| 20260831211612 | 75 | 185 | 2.0 | 8.0 | 0.00 | 0.05 | 0.05 | 84 | 1014.9 |
| 20260831211522 | 75 | 191 | 1.0 | 11.0 | 0.00 | 0.05 | 0.05 | 84 | 1014.9 |
| 20260831211416 | 75 | 199 | 3.0 | 11.0 | 0.00 | 0.05 | 0.05 | 84 | 1014.9 |
| 20260831211338 | 75 | 199 | 2.0 | 11.0 | 0.00 | 0.05 | 0.05 | 84 | 1014.9 |
| 20260831211332 | 75 | 202 | 2.0 | 11.0 | 0.00 | 0.05 | 0.05 | 84 | 1014.9 |
| 20260831211323 | 75 | 213 | 3.0 | 11.0 | 0.00 | 0.05 | 0.05 | 84 | 1014.9 |
| 20260831211058 | 75 | 169 | 3.0 | 11.0 | 0.00 | 0.05 | 0.05 | 84 | 1014.9 |
| 20260831210953 | 75 | 135 | 5.0 | 11.0 | 0.00 | 0.05 | 0.05 | 84 | 1014.9 |
| 20260831210848 | 75 | 131 | 3.0 | 11.0 | 0.00 | 0.05 | 0.05 | 84 | 1014.9 |
| 20260831210741 | 75 | 189 | 3.0 | 11.0 | 0.00 | 0.05 | 0.05 | 84 | 1014.9 |
| 20260831210636 | 75 | 124 | 2.0 | 11.0 | 0.00 | 0.05 | 0.05 | 84 | 1014.9 |
| 20260831210558 | 75 | 214 | 8.0 | 11.0 | 0.00 | 0.05 | 0.05 | 84 | 1014.9 |
| 20260831210530 | 75 | 161 | 2.0 | 10.0 | 0.00 | 0.05 | 0.05 | 84 | 1014.9 |
| 20260831210425 | 75 | 130 | 4.0 | 10.0 | 0.00 | 0.05 | 0.05 | 84 | 1014.9 |
| 20260831210318 | 75 | 212 | 4.0 | 10.0 | 0.00 | 0.05 | 0.05 | 85 | 1014.9 |
| 20260831210212 | 75 | 153 | 4.0 | 10.0 | 0.00 | 0.05 | 0.05 | 84 | 1014.6 |
| 20260831210107 | 75 | 88 | 2.0 | 10.0 | 0.00 | 0.05 | 0.05 | 85 | 1014.9 |
| 20260831210050 | 75 | 111 | 2.0 | 10.0 | 0.00 | 0.05 | 0.05 | 84 | 1014.9 |
| 20260831210001 | 75 | 167 | 2.0 | 10.0 | 0.00 | 0.05 | 0.05 | 84 | 1014.9 |
| 20260831205853 | 75 | 64 | 4.0 | 10.0 | 0.00 | 0.05 | 0.05 | 84 | 1014.6 |
| 20260831205747 | 75 | 113 | 2.0 | 8.0 | 0.00 | 0.05 | 0.05 | 84 | 1014.9 |
| 20260831205642 | 75 | 152 | 2.0 | 8.0 | 0.00 | 0.05 | 0.05 | 84 | 1014.9 |
| 20260831205542 | 75 | 126 | 3.0 | 8.0 | 0.00 | 0.05 | 0.05 | 84 | 1014.9 |
| 20260831205536 | 75 | 153 | 4.0 | 8.0 | 0.00 | 0.05 | 0.05 | 84 | 1015.3 |
| 20260831205431 | 75 | 163 | 3.0 | 8.0 | 0.00 | 0.05 | 0.05 | 84 | 1015.3 |
| 20260831205324 | 75 | 128 | 3.0 | 8.0 | 0.00 | 0.05 | 0.05 | 84 | 1015.3 |
| 20260831205219 | 75 | 176 | 1.0 | 8.0 | 0.00 | 0.05 | 0.05 | 85 | 1014.9 |
| 20260831205113 | 75 | 185 | 1.0 | 8.0 | 0.00 | 0.05 | 0.05 | 85 | 1015.3 |
| 20260831205036 | 75 | 173 | 3.0 | 8.0 | 0.00 | 0.05 | 0.05 | 85 | 1015.3 |
| 20260831205007 | 75 | 193 | 2.0 | 8.0 | 0.00 | 0.05 | 0.05 | 85 | 1015.3 |
| 20260831204902 | 75 | 139 | 2.0 | 8.0 | 0.00 | 0.05 | 0.05 | 85 | 1015.3 |
| 20260831204805 | 75 | 145 | 2.0 | 8.0 | 0.00 | 0.05 | 0.05 | 85 | 1015.3 |
| 20260831204756 | 75 | 57 | 1.0 | 8.0 | 0.00 | 0.05 | 0.05 | 84 | 1015.3 |
| 20260831204747 | 75 | 167 | 1.0 | 8.0 | 0.00 | 0.05 | 0.05 | 84 | 1015.3 |
| 20260831204438 | 75 | 154 | 5.0 | 8.0 | 0.00 | 0.05 | 0.05 | 84 | 1015.3 |
| 20260831204332 | 75 | 124 | 4.0 | 8.0 | 0.00 | 0.05 | 0.05 | 85 | 1015.3 |
| 20260831204227 | 75 | 125 | 3.0 | 8.0 | 0.00 | 0.05 | 0.05 | 85 | 1015.3 |
| 20260831204120 | 75 | 153 | 4.0 | 8.0 | 0.00 | 0.05 | 0.05 | 85 | 1015.3 |
| 20260831204016 | 75 | 164 | 1.0 | 8.0 | 0.00 | 0.05 | 0.05 | 85 | 1015.3 |
| 20260831203909 | 75 | 186 | 4.0 | 8.0 | 0.00 | 0.05 | 0.05 | 85 | 1014.9 |
| 20260831203804 | 75 | 89 | 3.0 | 8.0 | 0.00 | 0.05 | 0.05 | 85 | 1014.9 |
| 20260831203658 | 75 | 160 | 1.0 | 8.0 | 0.00 | 0.05 | 0.05 | 86 | 1015.3 |